[[{"header":{"parameterUnit":"m.s-1","parameterCategory":1,"la1":31.0,"la2":29.5877,"lo1":-88.7671,"lo2":-86.6584,"dy":0.0162,"dx":0.0185,"nx":115,"ny":88,"refTime":"2024-02-20T06:00:00:Z","depth":0,"parameterNumber":2,"parameterNumberName":"U-component_of_WINDS"},"data":[0.0,0.0,0.0,0.0,0.0,0.0,0.0,0.0,0.0,0.0,0.0,0.0,0.0,0.0,0.0,0.0,0.0,0.0,0.0,0.0,0.0,0.0,0.0,0.0,0.0,0.0,0.0,0.0,0.0,0.0,0.0,0.0,0.0,0.0,0.0,0.0,0.0,0.0,0.0,0.0,0.0,0.0,0.0,0.0,0.0,0.0,0.0,0.0,0.0,0.0,0.0,0.0,0.0,0.0,0.0,0.0,0.0,0.0,0.0,0.0,0.0,0.0,0.0,0.0,0.0,0.0,0.0,0.0,0.0,0.0,0.0,0.0,0.0,0.0,0.0,0.0,0.0,0.0,0.0,0.0,0.0,0.0,0.0,0.0,0.0,0.0,0.0,0.0,0.0,0.0,0.0,0.0,0.0,0.0,0.0,0.0,0.0,0.0,0.0,0.0,0.0,0.0,0.0,0.0,0.0,0.0,0.0,0.0,0.0,0.0,0.0,0.0,0.0,0.0,0.0,0.0,0.0,0.0,0.0,0.0,0.0,0.0,0.0,0.0,0.0,0.0,0.0,0.0,0.0,0.0,0.0,0.0,0.0,0.0,0.0,0.0,0.0,0.0,0.0,0.0,0.0,0.0,0.0,0.0,0.0,0.0,0.0,0.0,0.0,0.0,0.0,0.0,0.0,0.0,0.0,0.0,0.0,0.0,0.0,0.0,0.0,0.0,0.0,0.0,0.0,0.0,0.0,0.0,0.0,0.0,0.0,0.0,0.0,0.0,0.0,0.0,0.0,0.0,0.0,0.0,0.0,0.0,0.0,0.0,0.0,0.0,0.0,0.0,0.0,0.0,0.0,0.0,0.0,0.0,0.0,0.0,0.0,0.0,0.0,0.0,0.0,0.0,0.0,0.0,0.0,0.0,0.0,0.0,0.0,0.0,0.0,0.0,0.0,0.0,0.0,0.0,0.0,0.0,0.0,0.0,0.0,0.0,0.0,0.0,0.0,0.0,0.0,0.0,0.0,0.0,0.0,0.0,0.0,0.0,0.0,0.0,0.0,0.0,0.0,0.0,0.0,0.0,0.0,0.0,0.0,0.0,0.0,0.0,0.0,0.0,0.0,0.0,0.0,0.0,0.0,0.0,0.0,0.0,0.0,0.0,0.0,0.0,0.0,0.0,0.0,0.0,0.0,0.0,0.0,0.0,0.0,0.0,0.0,0.0,0.0,0.0,0.0,0.0,0.0,0.0,0.0,0.0,0.0,0.0,0.0,0.0,0.0,0.0,0.0,0.0,0.0,0.0,0.0,0.0,0.0,0.0,0.0,0.0,0.0,0.0,0.0,0.0,0.0,0.0,0.0,0.0,0.0,0.0,0.0,0.0,0.0,0.0,0.0,0.0,0.0,0.0,0.0,0.0,0.0,0.0,0.0,0.0,0.0,0.0,0.0,0.0,0.0,0.0,0.0,0.0,0.0,0.0,0.0,0.0,0.0,0.0,0.0,0.0,0.0,0.0,0.0,0.0,0.0,0.0,0.0,0.0,0.0,0.0,0.0,0.0,0.0,0.0,0.0,0.0,0.0,0.0,0.0,0.0,0.0,0.0,0.0,0.0,0.0,0.0,0.0,0.0,0.0,0.0,0.0,0.0,0.0,0.0,0.0,0.0,0.0,0.0,0.0,0.0,0.0,0.0,0.0,0.0,0.0,0.0,0.0,0.0,0.0,0.0,0.0,0.0,0.0,0.0,0.0,0.0,0.0,0.0,0.0,0.0,0.0,0.0,0.0,0.0,0.0,0.0,0.0,0.0,0.0,0.0,0.0,0.0,0.0,0.0,0.0,0.0,0.0,0.0,0.0,0.0,0.0,0.0,0.0,0.0,0.0,0.0,0.0,0.0,0.0,0.0,0.0,0.0,0.0,0.0,0.0,0.0,0.0,0.0,0.0,0.0,0.0,0.0,0.0,0.0,0.0,0.0,0.0,0.0,0.0,0.0,0.0,0.0,0.0,0.0,0.0,0.0,0.0,0.0,0.0,0.0,0.0,0.0,0.0,0.0,0.0,0.0,0.0,0.0,0.0,0.0,0.0,0.0,0.0,0.0,0.0,0.0,0.0,0.0,0.0,0.0,0.0,0.0,0.0,0.0,0.0,0.0,0.0,0.0,0.0,0.0,0.0,0.0,0.0,0.0,0.0,0.0,0.0,0.0,0.0,0.0,0.0,0.0,0.0,0.0,0.0,0.0,0.0,0.0,0.0,0.0,0.0,0.0,0.0,0.0,0.0,0.0,0.0,0.0,0.0,0.0,0.0,0.0,0.0,0.0,0.0,0.0,0.0,0.0,0.0,0.0,0.0,0.0,0.0,0.0,0.0,0.0,0.0,0.0,0.0,0.0,0.0,0.0,0.0,0.0,0.0,0.0,0.0,0.0,0.0,0.0,0.0,0.0,0.0,0.0,0.0,0.0,0.0,0.0,0.0,0.0,0.0,0.0,0.0,0.0,0.0,0.0,0.0,0.0,0.0,0.0,0.0,0.0,0.0,0.0,0.0,0.0,0.0,0.0,0.0,0.0,0.0,0.0,0.0,0.0,0.0,0.0,0.0,0.0,0.0,0.0,0.0,0.0,0.0,0.0,0.0,0.0,0.0,0.0,0.0,0.0,0.0,0.0,0.0,0.0,0.0,0.0,0.0,0.0,0.0,0.0,0.0,0.0,0.0,0.0,0.0,0.0,0.0,0.0,0.0,0.0,0.0,0.0,0.0,0.0,0.0,0.0,0.0,0.0,0.0,0.0,0.0,0.0,0.0,0.0,0.0,0.0,0.0,0.0,0.0,0.0,0.0,0.0,0.0,0.0,0.0,0.0,0.0,0.0,0.0,0.0,0.0,0.0,0.0,0.0,0.0,0.0,0.0,0.0,0.0,0.0,0.0,0.0,0.0,0.0,0.0,0.0,0.0,0.0,0.0,0.0,0.0,0.0,0.0,0.0,0.0,0.0,0.0,0.0,0.0,0.0,0.0,0.0,0.0,0.0,0.0,0.0,0.0,0.0,0.0,0.0,0.0,0.0,0.0,0.0,0.0,0.0,0.0,0.0,0.0,0.0,0.0,0.0,0.0,0.0,0.0,0.0,0.0,0.0,0.0,0.0,0.0,0.0,0.0,0.0,0.0,0.0,0.0,0.0,0.0,0.0,0.0,0.0,0.0,0.0,0.0,0.0,0.0,0.0,0.0,0.0,0.0,0.0,0.0,0.0,0.0,0.0,0.0,0.0,0.0,0.0,0.0,0.0,0.0,0.0,0.0,0.0,0.0,0.0,0.0,0.0,0.0,0.0,0.0,0.0,0.0,0.0,0.0,0.0,0.0,0.0,0.0,0.0,0.0,0.0,0.0,0.0,0.0,0.0,0.0,0.0,0.0,0.0,0.0,0.0,0.0,0.0,0.0,0.0,0.0,0.0,0.0,0.0,0.0,0.0,0.0,0.0,0.0,0.0,0.0,0.0,0.0,0.0,0.0,0.0,0.0,0.0,0.0,0.0,0.0,0.0,0.0,0.0,0.0,0.0,0.0,0.0,0.0,0.0,0.0,0.0,0.0,0.0,0.0,0.0,0.0,0.0,0.0,0.0,0.0,0.0,0.0,0.0,0.0,0.0,0.0,0.0,0.0,0.0,0.0,0.0,0.0,0.0,0.0,0.0,0.0,0.0,0.0,0.0,0.0,0.0,0.0,0.0,0.0,0.0,0.0,0.0,0.0,0.0,0.0,0.0,0.0,0.0,0.0,0.0,0.0,0.0,0.0,0.0,0.0,0.0,0.0,0.0,0.0,0.0,0.0,0.0,0.0,0.0,0.0,0.0,0.0,0.0,0.0,0.0,0.0,0.0,0.0,0.0,0.0,0.0,0.0,0.0,0.0,0.0,0.0,0.0,0.0,0.0,0.0,0.0,0.0,0.0,0.0,0.0,0.0,0.0,0.0,0.0,0.0,0.0,0.0,0.0,0.0,0.0,0.0,0.0,0.0,0.0,0.0,0.0,0.0,0.0,0.0,0.0,0.0,0.0,0.0,0.0,0.0,0.0,0.0,0.0,0.0,0.0,0.0,0.0,0.0,0.0,0.0,0.0,0.0,0.0,0.0,0.0,0.0,0.0,0.0,0.0,0.0,0.0,0.0,0.0,0.0,0.0,0.0,0.0,0.0,0.0,0.0,0.0,0.0,0.0,0.0,0.0,0.0,0.0,0.0,0.0,0.0,0.0,0.0,0.0,0.0,0.0,0.0,0.0,0.0,0.0,-4.5545,0.0,0.0,0.0,0.0,0.0,0.0,0.0,0.0,0.0,0.0,0.0,0.0,0.0,0.0,0.0,0.0,0.0,0.0,0.0,0.0,0.0,0.0,0.0,0.0,0.0,0.0,0.0,0.0,0.0,0.0,0.0,0.0,0.0,0.0,0.0,0.0,0.0,0.0,0.0,0.0,0.0,0.0,0.0,0.0,0.0,0.0,0.0,0.0,0.0,0.0,0.0,0.0,0.0,0.0,0.0,0.0,0.0,0.0,0.0,0.0,0.0,0.0,0.0,0.0,0.0,0.0,0.0,0.0,0.0,0.0,0.0,0.0,0.0,0.0,0.0,0.0,0.0,0.0,0.0,0.0,0.0,0.0,0.0,0.0,0.0,0.0,0.0,0.0,0.0,0.0,0.0,0.0,0.0,0.0,0.0,0.0,0.0,0.0,0.0,0.0,0.0,0.0,0.0,0.0,0.0,0.0,0.0,0.0,0.0,0.0,-4.6608,-4.5934,-4.5924,-4.5848,-4.5565,0.0,0.0,0.0,0.0,0.0,0.0,0.0,0.0,0.0,0.0,0.0,0.0,0.0,0.0,0.0,0.0,0.0,0.0,0.0,0.0,0.0,0.0,0.0,0.0,0.0,0.0,0.0,0.0,0.0,0.0,0.0,0.0,0.0,0.0,0.0,0.0,0.0,0.0,0.0,0.0,0.0,0.0,0.0,0.0,0.0,0.0,0.0,0.0,0.0,0.0,0.0,0.0,0.0,0.0,0.0,0.0,0.0,0.0,0.0,0.0,0.0,0.0,0.0,0.0,0.0,0.0,0.0,0.0,0.0,0.0,0.0,0.0,0.0,0.0,0.0,0.0,0.0,0.0,0.0,0.0,0.0,0.0,0.0,0.0,0.0,0.0,0.0,0.0,0.0,0.0,0.0,0.0,0.0,0.0,0.0,0.0,0.0,0.0,0.0,0.0,0.0,0.0,0.0,0.0,0.0,0.0,0.0,0.0,0.0,0.0,0.0,0.0,-4.6556,-4.6209,-4.5419,0.0,0.0,0.0,0.0,0.0,0.0,0.0,0.0,0.0,0.0,0.0,0.0,0.0,0.0,0.0,0.0,0.0,0.0,0.0,0.0,0.0,0.0,0.0,0.0,0.0,0.0,0.0,0.0,0.0,0.0,0.0,0.0,0.0,0.0,0.0,0.0,0.0,0.0,0.0,0.0,0.0,0.0,0.0,0.0,0.0,0.0,0.0,0.0,0.0,0.0,0.0,0.0,0.0,0.0,0.0,0.0,0.0,0.0,0.0,0.0,0.0,0.0,0.0,0.0,0.0,0.0,0.0,0.0,0.0,0.0,0.0,0.0,0.0,0.0,0.0,0.0,0.0,0.0,0.0,0.0,0.0,0.0,0.0,0.0,0.0,0.0,0.0,0.0,0.0,0.0,0.0,0.0,0.0,0.0,0.0,0.0,0.0,0.0,0.0,0.0,0.0,0.0,0.0,0.0,0.0,0.0,0.0,0.0,0.0,0.0,-4.6961,-4.8314,-4.8271,0.0,-4.5079,0.0,0.0,0.0,0.0,0.0,0.0,0.0,0.0,0.0,0.0,0.0,0.0,0.0,0.0,0.0,0.0,0.0,0.0,0.0,0.0,0.0,0.0,0.0,0.0,0.0,0.0,0.0,0.0,0.0,0.0,0.0,0.0,0.0,0.0,0.0,0.0,0.0,0.0,0.0,0.0,0.0,0.0,0.0,0.0,0.0,0.0,0.0,0.0,0.0,0.0,0.0,0.0,0.0,0.0,0.0,0.0,0.0,0.0,0.0,0.0,0.0,0.0,0.0,0.0,0.0,0.0,0.0,0.0,0.0,0.0,0.0,0.0,0.0,0.0,0.0,0.0,0.0,0.0,0.0,0.0,0.0,0.0,0.0,0.0,0.0,0.0,0.0,0.0,0.0,0.0,0.0,0.0,0.0,0.0,0.0,0.0,0.0,0.0,0.0,0.0,0.0,0.0,0.0,0.0,0.0,0.0,0.0,0.0,0.0,0.0,-4.6442,-4.8554,-4.7921,-4.67,0.0,0.0,0.0,0.0,0.0,0.0,0.0,0.0,0.0,0.0,0.0,0.0,0.0,0.0,0.0,0.0,0.0,0.0,0.0,0.0,0.0,0.0,0.0,0.0,0.0,0.0,0.0,0.0,0.0,0.0,0.0,0.0,0.0,0.0,0.0,0.0,0.0,0.0,0.0,0.0,0.0,0.0,0.0,0.0,0.0,0.0,0.0,0.0,0.0,0.0,0.0,0.0,0.0,0.0,0.0,0.0,0.0,0.0,0.0,0.0,0.0,0.0,0.0,0.0,0.0,0.0,0.0,0.0,0.0,0.0,0.0,0.0,0.0,0.0,0.0,0.0,0.0,0.0,0.0,0.0,0.0,0.0,0.0,0.0,0.0,0.0,0.0,0.0,0.0,0.0,0.0,0.0,0.0,0.0,0.0,0.0,0.0,0.0,0.0,0.0,0.0,0.0,0.0,0.0,0.0,0.0,0.0,0.0,0.0,0.0,-4.5382,-4.6777,-4.9036,-4.7523,-4.6033,-4.4903,0.0,0.0,0.0,0.0,0.0,0.0,0.0,0.0,0.0,0.0,0.0,0.0,0.0,0.0,0.0,0.0,0.0,0.0,0.0,0.0,0.0,0.0,0.0,0.0,0.0,0.0,0.0,0.0,0.0,0.0,0.0,0.0,0.0,0.0,0.0,0.0,0.0,0.0,0.0,0.0,0.0,0.0,0.0,0.0,0.0,0.0,0.0,0.0,0.0,0.0,0.0,0.0,0.0,0.0,0.0,0.0,0.0,0.0,0.0,0.0,0.0,0.0,0.0,0.0,0.0,0.0,0.0,0.0,0.0,0.0,0.0,0.0,0.0,0.0,0.0,0.0,0.0,0.0,0.0,0.0,0.0,0.0,0.0,0.0,0.0,0.0,0.0,0.0,0.0,0.0,0.0,0.0,0.0,0.0,0.0,0.0,0.0,0.0,0.0,0.0,0.0,0.0,0.0,0.0,0.0,0.0,0.0,0.0,-4.8178,-4.7657,-4.8457,-5.0734,-4.7578,-4.5549,0.0,0.0,0.0,0.0,0.0,0.0,0.0,0.0,0.0,0.0,0.0,0.0,0.0,0.0,0.0,0.0,0.0,0.0,0.0,0.0,0.0,0.0,0.0,0.0,0.0,0.0,0.0,0.0,0.0,0.0,0.0,0.0,0.0,0.0,0.0,0.0,0.0,0.0,0.0,0.0,0.0,0.0,0.0,0.0,0.0,0.0,0.0,0.0,0.0,0.0,0.0,0.0,0.0,0.0,0.0,0.0,0.0,0.0,0.0,0.0,0.0,0.0,0.0,0.0,0.0,0.0,0.0,0.0,0.0,0.0,0.0,0.0,0.0,0.0,0.0,0.0,0.0,0.0,0.0,0.0,0.0,0.0,0.0,0.0,0.0,0.0,0.0,0.0,0.0,0.0,0.0,0.0,0.0,0.0,0.0,0.0,0.0,0.0,0.0,0.0,0.0,0.0,0.0,0.0,0.0,0.0,0.0,0.0,0.0,-4.5391,-4.7206,-4.8304,-4.8602,-4.6771,-4.5518,0.0,0.0,0.0,0.0,0.0,0.0,0.0,0.0,0.0,0.0,0.0,0.0,0.0,0.0,0.0,0.0,0.0,0.0,0.0,0.0,0.0,0.0,0.0,0.0,0.0,0.0,0.0,0.0,0.0,0.0,0.0,0.0,0.0,0.0,0.0,0.0,0.0,0.0,0.0,0.0,0.0,0.0,0.0,0.0,0.0,0.0,0.0,0.0,0.0,0.0,0.0,0.0,0.0,0.0,0.0,0.0,0.0,0.0,0.0,0.0,0.0,0.0,0.0,0.0,0.0,0.0,0.0,0.0,0.0,0.0,0.0,0.0,0.0,0.0,0.0,0.0,0.0,0.0,0.0,0.0,0.0,0.0,0.0,0.0,0.0,0.0,0.0,0.0,0.0,0.0,0.0,0.0,0.0,0.0,0.0,0.0,0.0,0.0,0.0,0.0,0.0,0.0,0.0,0.0,0.0,0.0,0.0,0.0,0.0,-4.5273,0.0,-4.9058,-4.8144,-4.6632,-4.5348,0.0,0.0,0.0,0.0,0.0,0.0,0.0,0.0,0.0,0.0,0.0,0.0,0.0,0.0,0.0,0.0,0.0,0.0,0.0,0.0,0.0,0.0,0.0,0.0,0.0,0.0,0.0,0.0,0.0,0.0,0.0,0.0,0.0,0.0,0.0,0.0,0.0,0.0,0.0,0.0,0.0,0.0,0.0,0.0,0.0,0.0,0.0,0.0,0.0,0.0,0.0,0.0,0.0,0.0,0.0,0.0,0.0,0.0,0.0,0.0,0.0,0.0,0.0,0.0,0.0,0.0,0.0,0.0,0.0,0.0,0.0,0.0,0.0,0.0,0.0,0.0,0.0,0.0,0.0,0.0,0.0,0.0,0.0,0.0,0.0,0.0,0.0,0.0,0.0,0.0,0.0,0.0,0.0,0.0,0.0,0.0,0.0,0.0,0.0,0.0,0.0,0.0,0.0,0.0,0.0,0.0,0.0,0.0,-4.4393,-4.8537,-5.0308,-5.0691,-4.9877,-4.7267,-4.4923,0.0,0.0,0.0,0.0,0.0,0.0,0.0,0.0,0.0,0.0,0.0,0.0,0.0,0.0,0.0,0.0,0.0,0.0,0.0,0.0,0.0,0.0,0.0,0.0,0.0,0.0,0.0,0.0,0.0,0.0,0.0,0.0,0.0,0.0,0.0,0.0,0.0,0.0,0.0,0.0,0.0,0.0,0.0,0.0,0.0,0.0,0.0,0.0,0.0,0.0,0.0,0.0,0.0,0.0,0.0,0.0,0.0,0.0,0.0,0.0,0.0,0.0,0.0,0.0,0.0,0.0,0.0,0.0,0.0,0.0,0.0,0.0,0.0,0.0,0.0,0.0,0.0,0.0,0.0,0.0,0.0,0.0,0.0,0.0,0.0,0.0,0.0,0.0,0.0,0.0,0.0,0.0,0.0,0.0,0.0,0.0,0.0,0.0,0.0,0.0,0.0,0.0,0.0,0.0,0.0,0.0,0.0,0.0,0.0,-4.703,-4.9204,-5.0192,-4.9827,-4.7256,-4.5673,0.0,0.0,0.0,0.0,0.0,0.0,0.0,0.0,0.0,0.0,0.0,0.0,0.0,0.0,0.0,0.0,0.0,0.0,0.0,0.0,0.0,0.0,0.0,0.0,0.0,0.0,0.0,0.0,0.0,0.0,0.0,0.0,0.0,0.0,0.0,0.0,0.0,0.0,0.0,0.0,0.0,0.0,0.0,0.0,0.0,0.0,0.0,0.0,0.0,0.0,0.0,0.0,0.0,0.0,0.0,0.0,0.0,0.0,0.0,0.0,0.0,0.0,0.0,0.0,0.0,0.0,0.0,0.0,0.0,0.0,0.0,0.0,0.0,0.0,0.0,0.0,0.0,0.0,0.0,0.0,0.0,0.0,0.0,0.0,0.0,0.0,0.0,0.0,0.0,0.0,0.0,0.0,0.0,0.0,0.0,0.0,0.0,0.0,0.0,0.0,0.0,0.0,0.0,0.0,0.0,0.0,0.0,0.0,0.0,-4.7773,-4.9803,-5.0738,-5.0381,-4.8075,-4.6263,-4.5073,0.0,0.0,0.0,0.0,0.0,0.0,0.0,0.0,0.0,0.0,0.0,0.0,0.0,0.0,0.0,0.0,0.0,0.0,0.0,0.0,0.0,0.0,0.0,0.0,0.0,0.0,0.0,0.0,0.0,0.0,0.0,0.0,0.0,0.0,0.0,0.0,0.0,0.0,0.0,0.0,0.0,0.0,0.0,0.0,0.0,0.0,0.0,0.0,0.0,0.0,0.0,0.0,0.0,0.0,0.0,0.0,0.0,0.0,0.0,0.0,0.0,0.0,0.0,0.0,0.0,0.0,0.0,0.0,0.0,0.0,0.0,0.0,0.0,0.0,0.0,0.0,0.0,0.0,0.0,0.0,0.0,0.0,0.0,0.0,0.0,0.0,0.0,0.0,0.0,0.0,0.0,0.0,0.0,0.0,0.0,0.0,0.0,0.0,0.0,0.0,0.0,0.0,0.0,0.0,0.0,0.0,0.0,0.0,-5.0391,-5.209,-5.2459,-5.1381,-4.9542,-4.6783,0.0,0.0,0.0,0.0,0.0,0.0,0.0,0.0,0.0,0.0,0.0,0.0,0.0,0.0,0.0,0.0,0.0,0.0,0.0,0.0,0.0,0.0,0.0,0.0,0.0,0.0,0.0,0.0,0.0,0.0,0.0,0.0,0.0,0.0,0.0,0.0,0.0,0.0,0.0,0.0,0.0,0.0,0.0,0.0,0.0,0.0,0.0,0.0,0.0,0.0,0.0,0.0,0.0,0.0,0.0,0.0,0.0,0.0,0.0,0.0,0.0,0.0,0.0,0.0,0.0,0.0,0.0,0.0,0.0,0.0,0.0,0.0,0.0,0.0,0.0,0.0,0.0,0.0,0.0,0.0,0.0,0.0,0.0,0.0,0.0,0.0,0.0,0.0,0.0,0.0,0.0,0.0,0.0,0.0,0.0,0.0,0.0,0.0,0.0,0.0,0.0,0.0,0.0,0.0,0.0,0.0,0.0,0.0,0.0,-5.2988,-5.5827,-5.5964,-5.3214,-5.0699,-4.8171,0.0,0.0,0.0,0.0,0.0,0.0,0.0,0.0,0.0,0.0,0.0,0.0,0.0,0.0,0.0,0.0,0.0,0.0,0.0,0.0,0.0,0.0,0.0,0.0,0.0,0.0,0.0,0.0,0.0,0.0,0.0,0.0,0.0,0.0,0.0,0.0,0.0,0.0,0.0,0.0,0.0,0.0,0.0,0.0,0.0,0.0,0.0,0.0,0.0,0.0,0.0,0.0,0.0,0.0,0.0,0.0,0.0,0.0,0.0,0.0,0.0,0.0,0.0,0.0,0.0,0.0,0.0,0.0,0.0,0.0,0.0,0.0,0.0,0.0,0.0,0.0,0.0,0.0,0.0,0.0,0.0,0.0,0.0,0.0,0.0,0.0,0.0,0.0,0.0,0.0,0.0,0.0,0.0,0.0,0.0,0.0,0.0,0.0,0.0,0.0,0.0,0.0,0.0,0.0,0.0,0.0,0.0,0.0,-5.1445,-5.3965,-5.7267,-5.7852,-5.5439,-5.3126,-5.0005,0.0,0.0,0.0,0.0,0.0,0.0,0.0,0.0,0.0,0.0,0.0,0.0,0.0,0.0,0.0,0.0,0.0,0.0,0.0,0.0,0.0,0.0,0.0,0.0,0.0,0.0,0.0,0.0,0.0,0.0,0.0,0.0,0.0,0.0,0.0,0.0,0.0,0.0,0.0,0.0,0.0,0.0,0.0,0.0,0.0,0.0,0.0,0.0,0.0,0.0,0.0,0.0,0.0,0.0,0.0,0.0,0.0,0.0,0.0,0.0,0.0,0.0,0.0,0.0,0.0,0.0,0.0,0.0,0.0,0.0,0.0,0.0,0.0,0.0,0.0,0.0,0.0,0.0,0.0,0.0,0.0,0.0,0.0,0.0,0.0,0.0,0.0,0.0,0.0,0.0,0.0,0.0,0.0,0.0,0.0,0.0,0.0,0.0,0.0,0.0,0.0,0.0,0.0,0.0,0.0,0.0,0.0,0.0,-5.1601,-5.3984,-5.7371,-5.8643,-5.7587,-5.5578,-5.1655,0.0,0.0,0.0,0.0,0.0,0.0,0.0,0.0,0.0,0.0,0.0,0.0,0.0,0.0,0.0,0.0,0.0,0.0,0.0,0.0,0.0,0.0,0.0,0.0,0.0,0.0,0.0,0.0,0.0,0.0,0.0,0.0,0.0,0.0,0.0,0.0,0.0,0.0,0.0,0.0,0.0,0.0,0.0,0.0,0.0,0.0,0.0,0.0,0.0,0.0,0.0,0.0,0.0,0.0,0.0,0.0,0.0,0.0,0.0,0.0,0.0,0.0,0.0,0.0,0.0,0.0,0.0,0.0,0.0,0.0,0.0,0.0,0.0,0.0,0.0,0.0,0.0,0.0,0.0,0.0,0.0,0.0,0.0,0.0,0.0,0.0,0.0,0.0,0.0,0.0,0.0,0.0,0.0,0.0,0.0,0.0,0.0,0.0,0.0,0.0,0.0,0.0,0.0,0.0,0.0,0.0,0.0,0.0,-5.2773,-5.4023,-5.7999,-5.9312,-5.7645,-5.3849,-5.0082,0.0,0.0,0.0,0.0,0.0,0.0,0.0,0.0,0.0,0.0,0.0,0.0,0.0,0.0,0.0,0.0,0.0,0.0,0.0,0.0,0.0,0.0,0.0,0.0,0.0,0.0,0.0,0.0,0.0,0.0,0.0,0.0,0.0,0.0,0.0,0.0,0.0,0.0,0.0,0.0,0.0,0.0,0.0,0.0,0.0,0.0,0.0,0.0,-4.2252,0.0,0.0,0.0,0.0,0.0,0.0,0.0,0.0,0.0,0.0,0.0,0.0,0.0,0.0,0.0,0.0,0.0,0.0,0.0,0.0,0.0,0.0,0.0,0.0,0.0,0.0,0.0,0.0,0.0,0.0,0.0,0.0,0.0,0.0,0.0,0.0,0.0,0.0,0.0,0.0,0.0,0.0,0.0,0.0,0.0,0.0,0.0,0.0,0.0,0.0,0.0,0.0,0.0,0.0,0.0,0.0,0.0,0.0,0.0,-5.2148,-5.3418,-5.6402,-5.7467,-5.6301,-5.2557,-4.947,0.0,0.0,0.0,0.0,0.0,0.0,0.0,0.0,0.0,0.0,0.0,0.0,0.0,0.0,0.0,0.0,0.0,0.0,0.0,0.0,0.0,0.0,0.0,0.0,0.0,0.0,0.0,0.0,0.0,0.0,0.0,0.0,0.0,0.0,0.0,0.0,0.0,0.0,0.0,0.0,0.0,0.0,0.0,0.0,0.0,0.0,0.0,0.0,0.0,0.0,0.0,0.0,0.0,0.0,0.0,0.0,0.0,0.0,0.0,0.0,0.0,0.0,0.0,0.0,0.0,0.0,0.0,0.0,0.0,0.0,0.0,0.0,0.0,0.0,0.0,0.0,0.0,0.0,0.0,0.0,0.0,0.0,0.0,0.0,0.0,0.0,0.0,0.0,0.0,0.0,0.0,0.0,0.0,0.0,0.0,0.0,0.0,0.0,0.0,0.0,0.0,0.0,0.0,0.0,0.0,0.0,0.0,-4.8105,-5.0605,-5.2637,-5.4275,-5.5011,-5.4785,-5.1631,-4.9293,-4.7979,0.0,0.0,0.0,0.0,0.0,0.0,0.0,0.0,0.0,0.0,0.0,0.0,0.0,0.0,0.0,0.0,0.0,0.0,0.0,0.0,0.0,0.0,0.0,0.0,0.0,0.0,0.0,0.0,0.0,0.0,0.0,0.0,0.0,0.0,0.0,0.0,0.0,0.0,-4.1506,-4.3826,0.0,0.0,0.0,0.0,0.0,0.0,0.0,0.0,-4.3062,0.0,0.0,0.0,0.0,0.0,0.0,0.0,0.0,0.0,0.0,0.0,0.0,0.0,0.0,0.0,0.0,0.0,0.0,0.0,0.0,0.0,0.0,0.0,0.0,0.0,0.0,0.0,0.0,0.0,0.0,0.0,0.0,0.0,0.0,0.0,0.0,0.0,0.0,0.0,0.0,0.0,0.0,0.0,0.0,0.0,0.0,0.0,0.0,0.0,0.0,0.0,0.0,0.0,0.0,0.0,0.0,-4.5938,-4.6619,-4.8808,-5.2598,-5.3691,-5.415,-5.3943,-5.1342,-4.9094,-4.7327,0.0,0.0,0.0,0.0,0.0,0.0,0.0,0.0,0.0,0.0,0.0,0.0,0.0,0.0,0.0,0.0,0.0,0.0,0.0,0.0,0.0,0.0,0.0,0.0,0.0,0.0,0.0,0.0,0.0,0.0,0.0,0.0,0.0,0.0,0.0,0.0,0.0,0.0,0.0,-4.7583,-4.8055,0.0,0.0,0.0,0.0,0.0,0.0,0.0,0.0,-4.3369,0.0,0.0,0.0,0.0,0.0,0.0,0.0,0.0,0.0,0.0,0.0,0.0,0.0,0.0,0.0,0.0,0.0,0.0,0.0,0.0,0.0,0.0,0.0,0.0,0.0,0.0,0.0,0.0,0.0,0.0,0.0,0.0,0.0,0.0,0.0,0.0,0.0,0.0,0.0,0.0,0.0,0.0,0.0,0.0,0.0,0.0,0.0,0.0,0.0,0.0,0.0,0.0,0.0,0.0,0.0,-4.5444,-4.6933,-4.9062,-5.1894,-5.2031,-5.2179,-5.2411,-4.9134,-4.6851,0.0,0.0,0.0,0.0,0.0,0.0,0.0,0.0,0.0,0.0,0.0,0.0,0.0,0.0,0.0,0.0,0.0,0.0,0.0,0.0,0.0,0.0,0.0,0.0,0.0,0.0,0.0,0.0,0.0,0.0,0.0,0.0,0.0,0.0,0.0,0.0,0.0,0.0,0.0,0.0,-4.941,-5.0635,-5.0725,0.0,0.0,0.0,0.0,0.0,0.0,-4.4834,-4.3665,0.0,0.0,0.0,0.0,0.0,0.0,0.0,0.0,0.0,0.0,0.0,0.0,0.0,0.0,0.0,0.0,0.0,0.0,0.0,0.0,0.0,0.0,0.0,0.0,0.0,0.0,0.0,0.0,0.0,0.0,0.0,0.0,0.0,0.0,0.0,0.0,0.0,0.0,0.0,0.0,0.0,0.0,0.0,0.0,0.0,0.0,0.0,0.0,0.0,0.0,0.0,0.0,0.0,0.0,0.0,-4.4453,-4.7051,-4.9199,-5.0781,-5.043,-5.0482,-5.0964,-4.7229,-4.5036,0.0,0.0,0.0,0.0,0.0,0.0,0.0,0.0,0.0,0.0,0.0,0.0,0.0,0.0,0.0,0.0,0.0,0.0,0.0,0.0,0.0,0.0,0.0,0.0,0.0,0.0,0.0,0.0,0.0,0.0,0.0,0.0,0.0,0.0,0.0,0.0,0.0,0.0,0.0,0.0,0.0,-5.2653,-5.2369,-5.1397,0.0,0.0,0.0,0.0,-4.7121,-4.6284,0.0,0.0,0.0,0.0,0.0,0.0,0.0,0.0,0.0,0.0,0.0,0.0,0.0,0.0,0.0,0.0,0.0,0.0,0.0,0.0,0.0,0.0,0.0,0.0,0.0,0.0,0.0,0.0,0.0,0.0,0.0,0.0,0.0,0.0,0.0,0.0,0.0,0.0,0.0,0.0,0.0,0.0,0.0,0.0,0.0,0.0,0.0,0.0,0.0,0.0,0.0,0.0,0.0,0.0,0.0,0.0,-4.2676,-4.5273,-4.7441,-4.9121,-4.9844,-5.0213,-5.0203,-4.7517,-4.5665,0.0,0.0,0.0,0.0,0.0,0.0,0.0,0.0,0.0,0.0,0.0,0.0,0.0,0.0,0.0,0.0,0.0,0.0,0.0,0.0,0.0,0.0,0.0,0.0,0.0,0.0,0.0,0.0,0.0,0.0,0.0,0.0,0.0,0.0,0.0,0.0,0.0,0.0,0.0,0.0,0.0,-5.3104,-5.1655,-5.2005,-5.1191,0.0,0.0,-4.9785,-5.0589,-5.1776,0.0,0.0,0.0,0.0,0.0,0.0,0.0,0.0,0.0,0.0,0.0,0.0,0.0,0.0,0.0,0.0,0.0,0.0,0.0,0.0,0.0,0.0,0.0,0.0,0.0,0.0,0.0,0.0,0.0,0.0,0.0,0.0,0.0,0.0,0.0,0.0,0.0,0.0,0.0,0.0,0.0,0.0,0.0,0.0,0.0,0.0,0.0,0.0,0.0,0.0,0.0,0.0,0.0,0.0,0.0,-4.035,-4.24,-4.496,-4.7148,-4.8828,-4.8789,-4.8925,-4.9348,-4.5912,-4.3829,0.0,0.0,0.0,0.0,0.0,0.0,0.0,0.0,0.0,0.0,0.0,0.0,0.0,0.0,0.0,0.0,0.0,0.0,0.0,0.0,0.0,0.0,0.0,0.0,0.0,0.0,0.0,0.0,0.0,0.0,0.0,0.0,0.0,0.0,0.0,0.0,0.0,0.0,0.0,0.0,0.0,0.0,-5.2876,-5.3158,0.0,0.0,0.0,-5.0809,-5.0687,0.0,0.0,0.0,0.0,0.0,0.0,0.0,0.0,0.0,0.0,0.0,0.0,0.0,0.0,0.0,0.0,0.0,0.0,0.0,0.0,0.0,0.0,0.0,0.0,0.0,0.0,0.0,0.0,0.0,0.0,0.0,0.0,0.0,0.0,0.0,0.0,0.0,0.0,0.0,0.0,0.0,0.0,0.0,0.0,0.0,0.0,0.0,0.0,0.0,0.0,0.0,0.0,0.0,0.0,0.0,0.0,0.0,-4.2065,-4.4859,-4.6931,-4.8181,-4.7831,-4.7773,-4.8084,-4.4609,0.0,0.0,0.0,0.0,0.0,0.0,0.0,0.0,0.0,0.0,0.0,0.0,0.0,0.0,0.0,0.0,0.0,0.0,0.0,0.0,0.0,0.0,0.0,0.0,0.0,0.0,0.0,0.0,0.0,0.0,0.0,0.0,0.0,0.0,0.0,0.0,0.0,0.0,0.0,0.0,0.0,0.0,-5.359,-5.3567,-5.4194,-5.4512,0.0,0.0,-5.191,-5.1542,-5.2967,-5.2685,0.0,0.0,0.0,0.0,0.0,0.0,0.0,0.0,0.0,0.0,0.0,0.0,0.0,0.0,0.0,0.0,0.0,0.0,0.0,0.0,0.0,0.0,0.0,0.0,0.0,0.0,0.0,0.0,0.0,0.0,0.0,0.0,0.0,0.0,0.0,0.0,0.0,0.0,0.0,0.0,0.0,0.0,0.0,0.0,0.0,0.0,0.0,0.0,0.0,0.0,0.0,0.0,0.0,0.0,0.0,-4.1244,-4.4564,-4.6341,-4.6498,-4.722,-4.724,-4.6459,-4.4603,-4.2831,0.0,0.0,0.0,0.0,0.0,0.0,0.0,0.0,0.0,0.0,0.0,0.0,0.0,0.0,0.0,0.0,0.0,0.0,0.0,0.0,0.0,0.0,0.0,0.0,0.0,0.0,0.0,0.0,0.0,0.0,0.0,0.0,0.0,0.0,0.0,0.0,0.0,0.0,0.0,0.0,0.0,-5.2695,-5.2695,-5.4821,-5.668,0.0,0.0,-5.4081,-5.4818,-5.694,-5.6308,-4.9689,0.0,0.0,0.0,0.0,0.0,0.0,0.0,0.0,0.0,0.0,0.0,0.0,0.0,0.0,0.0,0.0,0.0,0.0,0.0,0.0,0.0,0.0,0.0,0.0,0.0,0.0,0.0,0.0,0.0,0.0,0.0,0.0,0.0,0.0,0.0,0.0,0.0,0.0,0.0,0.0,0.0,0.0,0.0,0.0,0.0,0.0,0.0,0.0,0.0,0.0,0.0,0.0,0.0,-3.8613,-4.0296,-4.3186,-4.4945,-4.5515,-4.6339,-4.6653,-4.6301,-4.4622,-4.2651,0.0,0.0,0.0,0.0,0.0,0.0,0.0,0.0,0.0,0.0,0.0,0.0,0.0,0.0,0.0,0.0,0.0,0.0,0.0,0.0,0.0,0.0,0.0,0.0,0.0,0.0,0.0,0.0,-3.4512,-3.4765,-3.4211,0.0,0.0,0.0,0.0,0.0,0.0,0.0,0.0,0.0,0.0,-5.1891,-5.3962,-5.5156,0.0,0.0,-5.5801,-5.4922,-5.5253,-5.5182,-5.3707,-4.9501,-4.6761,0.0,0.0,0.0,0.0,0.0,0.0,0.0,0.0,0.0,0.0,0.0,0.0,0.0,0.0,0.0,0.0,0.0,0.0,0.0,0.0,0.0,0.0,0.0,0.0,0.0,0.0,0.0,0.0,0.0,0.0,0.0,0.0,0.0,0.0,0.0,0.0,0.0,0.0,0.0,0.0,0.0,0.0,0.0,0.0,0.0,0.0,0.0,0.0,0.0,0.0,0.0,0.0,-3.8108,-3.98,-4.2371,-4.4112,-4.498,-4.5845,-4.616,-4.5886,-4.4734,-4.2779,0.0,0.0,0.0,0.0,0.0,0.0,0.0,0.0,0.0,0.0,0.0,0.0,0.0,0.0,0.0,0.0,0.0,0.0,0.0,0.0,0.0,0.0,0.0,0.0,0.0,0.0,0.0,0.0,-3.5448,-3.5715,-3.5043,0.0,0.0,0.0,0.0,0.0,0.0,0.0,0.0,0.0,0.0,-5.1405,-5.3767,-5.4355,-5.4726,-5.533,-5.4023,-5.3183,-5.3691,-5.273,-5.1065,-4.8535,0.0,0.0,0.0,0.0,0.0,0.0,0.0,0.0,0.0,0.0,0.0,0.0,0.0,0.0,0.0,0.0,0.0,0.0,0.0,0.0,0.0,0.0,0.0,0.0,0.0,0.0,0.0,0.0,0.0,0.0,-3.5836,0.0,0.0,0.0,0.0,0.0,0.0,0.0,0.0,0.0,0.0,0.0,0.0,0.0,0.0,0.0,0.0,0.0,0.0,0.0,0.0,0.0,0.0,-3.8063,-3.978,-4.234,-4.4096,-4.4951,-4.5853,-4.5892,-4.5109,-4.4972,-4.3313,-3.9878,0.0,0.0,0.0,0.0,0.0,0.0,0.0,0.0,0.0,0.0,0.0,0.0,0.0,0.0,0.0,0.0,0.0,0.0,0.0,0.0,0.0,0.0,0.0,0.0,0.0,0.0,-3.4687,-3.5421,-3.5864,0.0,0.0,0.0,0.0,0.0,0.0,0.0,0.0,0.0,0.0,-4.8073,-5.1337,-5.1384,-5.2159,-5.2728,-5.2734,-4.9995,-4.8437,-5.0176,-5.0251,-4.9291,0.0,0.0,0.0,0.0,0.0,0.0,0.0,0.0,0.0,0.0,0.0,0.0,0.0,0.0,0.0,0.0,0.0,0.0,0.0,0.0,0.0,0.0,0.0,0.0,0.0,0.0,0.0,-3.8363,-3.7615,0.0,0.0,0.0,0.0,0.0,0.0,0.0,0.0,0.0,0.0,0.0,-4.023,-4.0803,0.0,0.0,0.0,0.0,0.0,0.0,0.0,0.0,0.0,0.0,0.0,0.0,-3.7835,-3.9058,-4.1546,-4.3263,-4.4133,-4.4972,-4.5558,-4.5851,-4.4738,-4.224,-3.8277,0.0,0.0,0.0,0.0,0.0,0.0,0.0,0.0,0.0,0.0,0.0,0.0,0.0,0.0,0.0,0.0,0.0,0.0,0.0,0.0,0.0,0.0,0.0,0.0,0.0,-3.6025,0.0,0.0,0.0,0.0,0.0,0.0,0.0,0.0,0.0,0.0,0.0,-4.1532,-4.4124,-4.5933,-4.7621,-4.9332,-4.9833,-5.0428,0.0,0.0,0.0,0.0,0.0,0.0,0.0,0.0,0.0,0.0,0.0,0.0,0.0,0.0,-4.6597,-4.2318,-4.0361,-3.9558,-4.0145,0.0,0.0,0.0,0.0,0.0,0.0,0.0,0.0,0.0,0.0,0.0,0.0,0.0,0.0,-4.0112,0.0,-3.9427,0.0,0.0,0.0,0.0,0.0,0.0,0.0,0.0,-4.1644,-4.214,-4.1871,-4.2441,-4.2268,0.0,-4.1191,-3.9664,0.0,0.0,0.0,0.0,0.0,0.0,0.0,0.0,-3.7805,-3.8204,-4.0625,-4.2347,-4.3224,-4.3786,-4.4621,-4.5733,-4.4131,-4.177,-3.8686,-3.6645,-3.5162,0.0,0.0,0.0,0.0,0.0,0.0,0.0,0.0,0.0,0.0,0.0,0.0,0.0,0.0,0.0,0.0,0.0,0.0,0.0,0.0,0.0,0.0,0.0,-3.6698,0.0,0.0,0.0,0.0,0.0,0.0,0.0,0.0,0.0,-3.8813,-4.0333,-4.2393,-4.4975,-4.5568,-4.6232,-4.7568,0.0,0.0,0.0,0.0,0.0,0.0,0.0,-4.6167,-4.615,-4.5521,-4.5488,-4.6895,-4.9,-5.0254,-4.9433,0.0,0.0,-4.5447,-4.3471,-4.2629,-4.3252,-4.1957,-4.0955,-4.1831,-4.2007,-4.2007,0.0,0.0,0.0,0.0,0.0,0.0,0.0,0.0,-4.2959,-4.195,0.0,-4.1415,0.0,0.0,0.0,0.0,0.0,-4.0989,0.0,0.0,-4.4484,-4.5256,-4.4446,-4.4407,-4.4002,-4.3211,-4.2279,-4.0997,-3.9384,-3.8699,0.0,0.0,0.0,0.0,0.0,0.0,-3.7946,-3.7417,-3.9779,-4.1464,-4.2359,-4.234,-4.3124,-4.4676,-4.3133,-4.1805,-4.089,-3.8463,-3.6789,-3.5942,-3.5065,0.0,0.0,0.0,0.0,0.0,0.0,0.0,0.0,0.0,0.0,0.0,0.0,0.0,0.0,0.0,0.0,0.0,0.0,0.0,0.0,-3.5288,0.0,0.0,0.0,0.0,0.0,0.0,0.0,0.0,0.0,0.0,-3.9713,-4.1127,-4.314,-4.5593,0.0,0.0,0.0,0.0,-4.5491,-4.3821,-4.2844,-4.274,-4.3637,-4.5103,-4.6143,-4.6199,0.0,0.0,-4.8994,-4.8937,-4.8801,-4.7882,-4.9114,-5.0347,-5.0957,-4.7694,-4.5662,-4.7006,-4.4756,-4.2972,-4.3551,-4.3783,-4.3764,-4.729,0.0,0.0,0.0,0.0,-4.3732,-4.3644,-4.3701,-4.3965,-4.3717,-4.3105,-4.3536,0.0,0.0,0.0,0.0,0.0,0.0,-4.2442,-4.3662,-4.5631,-4.611,-4.5263,-4.5263,-4.482,-4.3954,-4.3132,-4.2194,-4.115,-4.0333,-3.8913,-3.6958,0.0,0.0,0.0,0.0,-3.7859,-3.8867,-4.0177,-4.1293,-4.2183,-4.217,-4.2399,-4.2905,-4.1816,-4.082,-3.9956,-3.8127,-3.7011,-3.6761,-3.5382,0.0,0.0,0.0,0.0,0.0,0.0,0.0,0.0,0.0,0.0,0.0,0.0,0.0,0.0,0.0,0.0,0.0,0.0,0.0,-3.5266,-3.5616,-3.5771,0.0,0.0,0.0,0.0,0.0,0.0,0.0,0.0,0.0,-4.131,-4.1816,-4.2393,0.0,0.0,-4.2618,-4.2334,-4.3389,-4.4232,-4.4392,-4.472,0.0,-4.6225,-4.5747,-4.5474,-4.6033,-4.78,-4.9022,-4.8788,-4.9806,-5.0403,-4.9525,-4.9759,-5.0033,-4.9607,-4.8711,-4.7773,-4.7538,-4.6266,-4.5283,-4.5492,-4.5548,-4.5527,-4.9196,-4.7668,-4.6424,-4.5851,-4.5696,-4.5453,-4.5509,-4.5825,-4.6224,-4.6018,-4.5428,-4.5731,-4.4441,-4.2063,-4.1694,0.0,0.0,0.0,-4.3855,-4.4883,-4.624,-4.6451,-4.5633,-4.5594,-4.5152,-4.4278,-4.347,-4.2667,-4.1828,-4.0653,-3.9345,-3.7849,0.0,0.0,-3.6873,-3.7253,-3.7783,-3.8443,-3.8986,-3.968,-4.0539,-4.0893,-4.1052,-4.1071,-4.0553,-3.9869,-3.9024,-3.8373,-3.7726,-3.7044,-3.6366,-3.5057,0.0,0.0,0.0,0.0,0.0,0.0,0.0,0.0,0.0,0.0,0.0,-3.1471,0.0,0.0,0.0,0.0,-3.4,-3.5041,-3.5602,-3.5713,0.0,0.0,0.0,0.0,0.0,0.0,0.0,-3.7419,-3.9127,-4.0657,-4.1466,-4.1854,-4.2446,-4.3513,-4.2887,-4.2349,-4.2306,0.0,-4.4111,-4.4651,-4.5156,-4.5813,-4.6674,-4.6262,-4.6111,-4.6995,-4.797,-4.8689,-4.8762,-4.9682,-5.0161,-4.9733,-4.9577,-4.9342,-4.8521,-4.8392,-4.824,-4.7695,-4.6914,-4.6326,-4.6304,-4.6301,-4.6217,-5.0548,-5.1116,-4.8206,-4.7364,-4.7921,-4.7338,-4.7462,-4.8135,-4.8923,-4.8443,-4.706,-4.7751,-4.6676,-4.4248,-4.3436,0.0,-4.4355,-4.5201,-4.5566,-4.5652,-4.649,-4.6432,-4.5614,-4.546,-4.4979,-4.4201,-4.3316,-4.2489,-4.1635,-4.0142,-3.9323,-3.9188,-3.8457,-3.7628,-3.6803,-3.7423,-3.7494,-3.6909,-3.6903,-3.7332,-3.8179,-3.8963,-3.9379,-3.9392,-3.9321,-3.8934,-3.8251,-3.8811,-3.8468,-3.7025,-3.7547,-3.679,-3.442,0.0,0.0,0.0,0.0,0.0,0.0,0.0,0.0,0.0,0.0,0.0,0.0,0.0,0.0,0.0,-3.5037,0.0,-3.5684,-3.5764,0.0,0.0,0.0,-3.7303,-3.8115,-3.827,-3.829,-3.8315,0.0,0.0,-4.0797,-4.1545,-4.2957,-4.5528,-4.5132,-4.4568,-4.4511,-4.4614,-4.4754,-4.4641,-4.4763,-4.5079,-4.5867,-4.649,-4.7165,-4.7988,-4.8484,-4.8418,-4.8447,-4.8515,-4.8576,-4.8378,-4.8478,-4.8166,-4.7405,-4.7157,-4.7267,-4.714,-4.6735,-4.6268,-4.6152,-4.6131,-4.5873,-5.103,-5.1142,-4.9835,-4.9137,-4.8879,-4.8718,-4.8422,-4.8068,-4.8241,-4.8442,-4.8593,-4.822,-4.6935,-4.5036,-4.3587,-4.3432,-4.4322,-4.5148,-4.5559,-4.5671,-4.6509,-4.6432,-4.5556,-4.4306,-4.3566,-4.3297,-4.1835,-4.1027,-4.0796,-4.0419,-3.9554,-3.8354,-3.8099,-3.7579,-3.6699,-3.5662,-3.5663,-3.6735,-3.6754,-3.7185,-3.8015,-3.8245,-3.8353,-3.8353,-3.7718,-3.7583,-3.8007,-3.7057,-3.6618,-3.6813,-3.643,-3.5314,-3.3442,-3.2851,0.0,0.0,0.0,0.0,0.0,0.0,0.0,0.0,0.0,-3.2058,-3.082,0.0,-3.4648,0.0,-3.4667,-3.5867,-3.6528,-3.6596,0.0,0.0,-3.7883,-3.7967,-3.8193,-3.8779,-3.9191,-3.921,-3.9965,-4.079,-4.1628,-4.1874,-4.2712,-4.4634,-4.4195,-4.3641,-4.3634,-4.4833,-4.5448,-4.4954,-4.5756,-4.6489,-4.6109,-4.6192,-4.643,-4.6679,-4.6746,-4.673,-4.6746,-4.6746,-4.6551,-4.5912,-4.5756,-4.5406,-4.4708,-4.4478,-4.4504,-4.4578,-4.5416,-4.6089,-4.5467,-4.5312,-4.5058,-5.0846,-5.113,-5.0339,-4.9866,-4.9606,-4.9663,-4.945,-4.9043,-4.864,-4.8745,-4.9097,-4.8322,-4.7,-4.539,-4.4844,-4.4662,-4.4843,-4.5659,-4.5649,-4.5024,-4.5868,-4.5636,-4.4434,-4.3519,-4.2893,-4.2489,-4.1527,-4.0873,-4.0496,-4.0131,-3.9477,-3.8565,-3.7815,-3.7007,-3.6135,-3.4468,-3.4276,-3.5565,-3.5584,-3.618,-3.7353,-3.7058,-3.7046,-3.7373,-3.6238,-3.5815,-3.6302,-3.5451,-3.5136,-3.5498,-3.5449,-3.478,-3.3355,-3.2485,-3.145,0.0,0.0,0.0,0.0,0.0,0.0,0.0,0.0,0.0,0.0,0.0,-3.4529,-3.405,-3.4957,-3.5759,-3.6278,-3.6302,-3.6661,-3.748,-3.7601,-3.7916,-3.864,-3.9192,-3.9481,-3.9501,-4.0243,-4.0771,-4.0868,-4.1525,-4.2324,-4.3296,-4.331,-4.3562,-4.433,-4.5318,-4.5725,-4.5311,-4.6019,-4.6494,-4.6008,-4.5659,-4.5442,-4.5454,-4.5153,-4.4914,-4.4926,-4.493,-4.4755,-4.4327,-4.421,-4.4074,-4.3611,-4.3494,-4.3397,-4.314,-4.374,-4.4372,-4.441,-4.4404,-4.4158,-5.0306,-5.0932,-5.016,-4.9906,-5.0038,-5.0049,-5.0137,-5.016,-4.9425,-4.8966,-4.8717,-4.8039,-4.6853,-4.5475,-4.6185,-4.6109,-4.5467,-4.6081,-4.5582,-4.4269,-4.4757,-4.4285,-4.2998,-4.2829,-4.2385,-4.1646,-4.1511,-4.1019,-4.0173,-3.9462,-3.9,-3.8731,-3.7262,-3.6012,-3.4974,-3.35,-3.3122,-3.3878,-3.409,-3.4949,-3.6481,-3.5635,-3.5558,-3.6269,-3.4853,-3.4052,-3.4032,-3.4013,-3.3925,-3.3784,-3.4448,-3.4461,-3.3618,-3.2096,-3.13,0.0,-2.9929,0.0,0.0,0.0,0.0,0.0,0.0,0.0,0.0,-3.3762,-3.4265,-3.5288,-3.5449,-3.5547,-3.5714,-3.5745,-3.6079,-3.6845,-3.6999,-3.7629,-3.9032,-3.9271,-3.9302,-3.9328,-3.9928,-4.0043,-3.9432,-4.0648,-4.1619,-4.1837,-4.2495,-4.3412,-4.4858,-4.5232,-4.5336,-4.5464,-4.5464,-4.5343,-4.5284,-4.4826,-4.4447,-4.4412,-4.3984,-4.3416,-4.3535,-4.3529,-4.3456,-4.3315,-4.3272,-4.3242,-4.3173,-4.2998,-4.2652,-4.1928,-4.1774,-4.1979,-4.2746,-4.2986,-4.2897,-4.983,-4.9962,-4.9627,-4.9596,-4.9722,-4.905,-4.8941,-4.9243,-4.9102,-4.8261,-4.6989,-4.6817,-4.6235,-4.5356,-4.5481,-4.5512,-4.5361,-4.4834,-4.4461,-4.4154,-4.2974,-4.26,-4.2839,-4.1588,-4.0866,-4.0641,-4.001,-3.9242,-3.8396,-3.8223,-3.7437,-3.6086,-3.5789,-3.4536,-3.2436,0.0,0.0,0.0,-3.3506,-3.4699,-3.5615,-3.4199,-3.3795,-3.4603,-3.368,0.0,-3.3135,-3.3034,-3.2962,-3.2924,-3.2939,0.0,0.0,0.0,0.0,0.0,0.0,0.0,0.0,0.0,0.0,0.0,-3.3894,-3.3289,-3.3046,-3.363,-3.4411,-3.522,-3.5386,-3.5703,-3.6416,-3.6489,-3.6837,-3.7658,-3.7781,-3.7942,-3.8236,-3.8289,-3.8296,-3.8276,-3.8423,-3.8469,-3.8355,-3.9171,-4.0072,-4.0677,-4.1586,-4.221,-4.2565,-4.3279,-4.3704,-4.3685,-4.3827,-4.3723,-4.3704,-4.355,-4.339,-4.3443,-4.3385,-4.3155,-4.3085,-4.3124,-4.2905,-4.2331,-4.2241,-4.2015,-4.1357,-4.0717,-4.0306,-4.0029,-3.9519,-3.9313,-4.0236,-4.0455,-4.0209,-4.9555,0.0,-4.9446,-4.9235,0.0,-4.8579,-4.781,-4.6859,-4.746,-4.7037,-4.5908,-4.5908,-4.566,-4.5297,-4.5277,-4.5088,-4.4688,-4.4238,-4.3608,-4.2824,-4.2038,-4.1645,-4.1596,-4.0394,-3.9808,-3.9734,-3.8933,-3.8339,-3.7901,-3.7452,-3.6811,-3.5929,-3.5165,-3.4117,-3.287,-3.2448,-3.2263,-3.2295,-3.3551,-3.4622,-3.5404,-3.4635,-3.4404,-3.4795,-3.4007,0.0,0.0,0.0,0.0,0.0,0.0,0.0,0.0,-3.2826,0.0,-3.2654,-3.2206,-3.2398,-3.3371,-3.3456,-3.3825,-3.4678,-3.4385,-3.3857,-3.32,-3.4079,-3.4791,-3.503,-3.5207,-3.5461,-3.5812,-3.5883,-3.6113,-3.655,-3.6646,-3.681,-3.7221,-3.7346,-3.7368,-3.7406,-3.7712,-3.7666,-3.6834,-3.7861,-3.8515,-3.8676,-3.9364,-3.9969,-4.0154,-4.1824,-4.3199,-4.3219,-4.3219,-4.3045,-4.2601,-4.2158,-4.1752,-4.1424,-4.0981,-4.073,-4.0672,-4.0672,-4.0518,-4.0112,-4.0049,-3.9901,-3.9541,-3.9071,-3.8698,-3.8201,-3.7533,-3.7103,-3.7647,-3.8392,-3.8955,-4.9337,-4.9349,-4.9168,-4.8718,-4.8179,-4.8037,-4.6698,-4.4717,0.0,0.0,0.0,-4.501,-4.4991,-4.4876,-4.502,-4.4609,-4.3777,-4.3472,-4.2593,-4.1294,-4.1036,-4.0538,-3.982,-3.9174,-3.8788,-3.8608,-3.7992,-3.752,-3.7206,-3.6623,-3.6201,-3.5818,-3.4675,-3.3993,-3.3827,-3.3022,-3.2685,-3.291,-3.3609,-3.4378,-3.5198,-3.5081,-3.5067,-3.5201,-3.4323,-3.3846,-3.3781,-3.2966,-3.2743,-3.3221,-3.3116,-3.3022,-3.2994,-3.299,-3.2767,-3.2277,-3.224,-3.2568,-3.3384,-3.347,-3.3789,-3.4624,-3.4703,-3.4411,-3.377,-3.4609,-3.5081,-3.4803,-3.4991,-3.507,-3.499,-3.5008,-3.507,-3.5141,-3.5198,-3.556,-3.6232,-3.6381,-3.6411,-3.651,-3.696,-3.6926,-3.571,-3.6742,-3.7444,-3.6903,-3.7567,-3.7894,-3.825,-4.0292,-4.1928,-4.1928,-4.1793,-4.1839,-4.1306,-4.0624,-3.9899,-3.9371,-3.8658,-3.8125,-3.8086,-3.8086,-3.8086,-3.8311,-3.8093,-3.8176,-3.8138,-3.8009,-3.7585,-3.6736,-3.5944,-3.5305,-3.5303,-3.6343,-3.7335,-4.9079,-4.9174,-4.8282,-4.7961,-4.7935,-4.651,-4.551,-4.4763,-4.3574,-4.3099,-4.3195,-4.3883,-4.3806,-4.3176,-4.3883,-4.3749,-4.2889,-4.1485,-4.0692,-4.0387,-3.8925,-3.8179,-3.8054,-3.8012,-3.7592,-3.6889,-3.6796,-3.6001,-3.4745,-3.513,-3.469,-3.3486,-3.3754,-3.3657,-3.2983,-3.2178,-3.2127,-3.2812,-3.2921,-3.3432,-3.4263,-3.3444,-3.3344,-3.3947,-3.3116,-3.2572,-3.2546,-3.2336,-3.2201,-3.2292,-3.2104,-3.2311,-3.2946,-3.2971,-3.3262,-3.3807,-3.3844,-3.3912,-3.4059,-3.4078,-3.4197,-3.4498,-3.463,-3.4656,-3.4562,-3.4688,-3.4773,-3.4704,-3.4744,-3.4774,-3.4822,-3.4822,-3.487,-3.4926,-3.4964,-3.5058,-3.5346,-3.5372,-3.5414,-3.5479,-3.549,-3.5613,-3.5492,-3.617,-3.6714,-3.6719,-3.7075,-3.7797,-3.7789,-3.8285,-3.8631,-3.8658,-3.87,-3.8657,-3.8645,-3.8503,-3.8214,-3.8234,-3.7914,-3.7606,-3.7567,-3.7586,-3.7586,-3.7887,-3.7691,-3.7808,-3.7854,-3.7469,-3.6607,-3.5746,-3.4961,-3.4253,-3.3674,-3.3875,-3.4207,-4.8543,-4.8186,-4.785,-4.725,-4.6363,-4.4277,-4.3175,-4.2678,-4.1503,-4.1917,-4.3395,-4.3376,-4.3157,-4.2851,-4.3195,-4.266,-4.1428,-4.0977,-4.0289,-3.9394,-3.8545,-3.8125,-3.803,-3.7243,-3.6416,-3.569,-3.5221,-3.4435,-3.3425,-3.3681,-3.3463,-3.273,-3.2565,-3.2081,-3.1314,-3.0853,-3.0822,-3.1191,-3.2254,-3.2955,-3.3268,-3.3268,-3.3386,-3.3679,-3.3665,-3.3677,-3.3592,-3.3058,-3.2731,-3.2687,-3.2143,-3.2165,-3.2927,-3.2581,-3.2723,-3.3466,-3.3138,-3.2908,-3.2878,-3.2908,-3.2943,-3.3015,-3.3093,-3.3117,-3.3117,-3.4093,-3.4622,-3.445,-3.4545,-3.4618,-3.4534,-3.4575,-3.4639,-3.48,-3.4781,-3.4879,-3.5057,-3.5092,-3.5127,-3.5185,-3.5168,-3.5162,-3.5187,-3.5469,-3.568,-3.5717,-3.6096,-3.6306,-3.6306,-3.6322,-3.6722,-3.7643,-3.794,-3.7506,-3.6795,-3.6584,-3.6207,-3.54,-3.5189,-3.5189,-3.5189,-3.5235,-3.5306,-3.5229,-3.5302,-3.5284,-3.5329,-3.4989,-3.4539,-3.4231,-3.3459,-3.2868,-3.2854,-3.2362,-3.2048,-4.8034,-4.7404,-4.7342,-4.6409,-4.4843,-4.276,-4.1703,-4.1368,-4.0388,-4.1204,-4.3094,-4.2755,-4.2412,-4.2259,-4.2431,-4.1571,-4.0167,-4.0229,-3.9539,-3.8169,-3.777,-3.764,-3.7527,-3.6289,-3.535,-3.4661,-3.3969,-3.3187,-3.2422,-3.253,-3.2546,-3.2302,-3.1561,-3.0736,-2.9986,-3.0048,-2.9988,-2.992,-3.1329,-3.2271,-3.254,-3.3107,-3.3418,-3.3582,-3.3941,-3.4156,-3.4007,-3.336,-3.2938,-3.287,-3.2203,-3.2091,-3.2667,-3.2147,-3.2091,-3.2581,-3.2165,-3.1801,-3.1801,-3.1801,-3.1801,-3.1801,-3.1801,-3.1812,-3.1927,-3.3165,-3.3939,-3.3722,-3.3769,-3.3863,-3.3735,-3.3754,-3.3919,-3.4078,-3.4081,-3.4192,-3.4633,-3.4736,-3.4867,-3.5041,-3.5082,-3.5057,-3.5029,-3.4974,-3.4965,-3.4984,-3.4908,-3.4851,-3.4709,-3.468,-3.5387,-3.6222,-3.6966,-3.6629,-3.5335,-3.527,-3.4753,-3.3228,-3.3374,-3.363,-3.3511,-3.3252,-3.3062,-3.3229,-3.3044,-3.3199,-3.2994,-3.2994,-3.2962,-3.2782,-3.2281,-3.1875,-3.1829,-3.1086,-3.0452,-4.7791,-4.7296,-4.6504,-4.5337,-4.3968,-4.3027,-4.2682,-4.2575,-4.1207,-4.0822,-4.145,-4.1589,-4.1218,-4.0683,-4.1304,-4.0644,-3.8955,-3.8184,-3.7325,-3.6302,-3.5421,-3.5052,-3.5212,-3.491,-3.4402,-3.3714,-3.3488,-3.26,-3.1274,-3.203,-3.2102,-3.1393,-3.1105,-3.0628,-2.9986,-3.0544,-3.0544,-2.9827,-2.9975,-3.0823,-3.2231,-3.223,-3.2526,-3.3293,-3.2526,-3.2073,-3.2177,-3.1976,-3.1939,-3.1916,-3.1823,-3.1812,-3.1886,-3.1812,-3.1812,-3.1905,-3.1812,-3.1801,-3.1764,-3.1801,-3.1727,-3.1801,-3.1719,-3.1708,-3.1708,-3.192,-3.2061,-3.2035,-3.2058,-3.2203,-3.2124,-3.221,-3.2336,-3.2478,-3.2422,-3.2608,-3.3466,-3.3637,-3.3969,-3.4851,-3.4832,-3.4898,-3.4813,-3.4775,-3.4851,-3.4841,-3.485,-3.4585,-3.3989,-3.3866,-3.3601,-3.354,-3.421,-3.4795,-3.4145,-3.4594,-3.4202,-3.3658,-3.4175,-3.3914,-3.3398,-3.3314,-3.3586,-3.2386,-3.2581,-3.253,-3.2665,-3.2865,-3.25,-3.1693,-3.1347,-3.1191,-3.004,-2.9401,-2.9345,-4.6942,-4.6324,-4.5677,-4.4574,-4.3237,-4.2429,-4.1853,-4.1395,-4.036,-3.9996,-4.0137,-4.0333,-4.0382,-4.0311,-4.0538,-3.9669,-3.805,-3.7948,-3.7164,-3.5871,-3.5375,-3.5179,-3.5086,-3.4113,-3.3307,-3.2603,-3.2143,-3.1346,-3.0534,-3.0727,-3.0715,-3.0463,-3.0697,-3.0715,-3.0462,-3.1095,-3.1073,-3.0317,-3.0261,-3.0616,-3.1198,-3.1283,-3.142,-3.1672,-3.1734,-3.1801,-3.1756,-3.1348,-3.1087,-3.105,-3.0652,-3.0615,-3.1069,-3.0641,-3.0604,-3.0995,-3.0641,-3.0381,-3.0381,-3.0381,-3.0381,-3.0381,-3.0349,-3.0327,-3.0327,-3.0327,-3.0309,-3.042,-3.1195,-3.1805,-3.1808,-3.1827,-3.1879,-3.1933,-3.1926,-3.2131,-3.2596,-3.2662,-3.3042,-3.3904,-3.4035,-3.4014,-3.4014,-3.3994,-3.416,-3.4448,-3.4588,-3.4239,-3.3444,-3.328,-3.2916,-3.2356,-3.2716,-3.2798,-3.2453,-3.2503,-3.2391,-3.184,-3.1746,-3.177,-3.1817,-3.158,-3.144,-3.123,-3.1264,-3.1259,-3.1083,-3.1135,-3.0951,-3.031,-2.9602,-2.9217,-2.9113,-2.834,-2.7821,-4.6168,-4.537,-4.4884,-4.4085,-4.3027,-4.2017,-4.1256,-4.062,-3.973,-3.9356,-3.9401,-3.9544,-3.9664,-3.9764,-3.9644,-3.8746,-3.7518,-3.7502,-3.6737,-3.5388,-3.5181,-3.5138,-3.499,-3.3707,-3.2631,-3.1918,-3.1155,-3.0441,-2.9841,-2.9964,-3.0039,-3.0199,-3.0974,-3.1285,-3.1163,-3.1764,-3.1626,-3.0689,-3.0615,-3.0493,-3.0328,-3.0356,-3.0478,-3.0615,-3.0939,-3.1143,-3.1125,-3.0586,-3.027,-3.0233,-2.9694,-2.9657,-3.0177,-2.9704,-2.9667,-3.014,-2.9712,-2.9388,-2.9388,-2.9388,-2.9396,-2.9357,-2.9323,-2.9302,-2.9291,-2.9262,-2.9262,-2.9402,-3.0379,-3.1025,-3.111,-3.1121,-3.1132,-3.1147,-3.1157,-3.1289,-3.1609,-3.1667,-3.2016,-3.2849,-3.2985,-3.2962,-3.2951,-3.2919,-3.3074,-3.3489,-3.381,-3.3552,-3.2708,-3.2437,-3.2288,-3.1321,-3.1128,-3.1125,-3.1017,-3.1468,-3.0921,-3.0497,-3.0508,-3.0771,-3.0204,-3.02,-3.0015,-3.0516,-3.0056,-2.9972,-3.0277,-3.0087,-2.9741,-2.896,-2.8279,-2.7816,-2.8005,-2.7176,-2.6592,-4.5741,-4.4565,-4.4122,-4.3881,-4.3728,-4.2247,-4.1553,-4.1256,-3.9816,-3.9219,-3.9363,-3.942,-3.9125,-3.872,-3.8641,-3.7996,-3.7,-3.6328,-3.5444,-3.4413,-3.4284,-3.4253,-3.4197,-3.338,-3.2555,-3.1704,-3.0897,-3.0244,-2.971,-3.0244,-3.0626,-3.0823,-3.2106,-3.2455,-3.1983,-3.2548,-3.2165,-3.0864,-3.0697,-3.027,-2.9582,-2.9481,-2.9882,-3.0418,-2.9917,-2.963,-2.9582,-2.9508,-2.9481,-2.9481,-2.9434,-2.9444,-2.9463,-2.9434,-2.9434,-2.9471,-2.9434,-2.9378,-2.9396,-2.9396,-2.9376,-2.9323,-2.9283,-2.9262,-2.92,-2.9218,-2.92,-2.9218,-2.9385,-2.951,-2.955,-2.9701,-2.9587,-2.9528,-2.9476,-2.9853,-3.0487,-3.0612,-3.0984,-3.1682,-3.1897,-3.1953,-3.1924,-3.1875,-3.1931,-3.218,-3.2623,-3.2544,-3.137,-3.1437,-3.1091,-3.0071,-2.9625,-2.9694,-3.0461,-3.0845,-3.1001,-3.0646,-3.0465,-3.1169,-3.0939,-3.0606,-3.0179,-2.9852,-2.9701,-2.968,-2.9767,-2.9637,-2.9309,-2.8647,-2.7756,-2.7343,-2.7084,-2.6613,-2.6073,-4.4486,-4.376,-4.3726,-4.3472,-4.2945,-4.2009,-4.1245,-4.0626,-3.9574,-3.9142,-3.921,-3.9205,-3.9394,-3.9642,-3.8047,-3.6943,-3.623,-3.5793,-3.5088,-3.4209,-3.3677,-3.3417,-3.3287,-3.2109,-3.1329,-3.0957,-3.0243,-2.9986,-3.0251,-3.0496,-3.0905,-3.1525,-3.2467,-3.2834,-3.276,-3.3354,-3.2983,-3.1552,-3.1366,-3.0753,-2.9518,-2.9388,-2.9545,-2.9787,-2.9556,-2.9388,-2.9388,-2.9388,-2.9388,-2.9388,-2.9388,-2.9388,-2.9378,-2.9347,-2.9315,-2.9334,-2.9294,-2.9283,-2.9334,-2.9334,-2.9323,-2.9283,-2.9262,-2.9218,-2.9163,-2.9123,-2.9123,-2.9152,-2.9134,-2.9152,-2.9175,-2.9218,-2.9229,-2.92,-2.9218,-2.9333,-2.9573,-2.9695,-2.9984,-3.0691,-3.0924,-3.1102,-3.1403,-3.1277,-3.1173,-3.161,-3.1932,-3.1515,-3.0743,-3.0628,-3.0399,-2.9455,-2.9104,-2.9197,-2.9466,-2.986,-3.0057,-2.9946,-2.9919,-2.9967,-2.9857,-2.9884,-2.9544,-2.9544,-2.9405,-2.9416,-2.9486,-2.8585,-2.8385,-2.8322,-2.7425,-2.6384,-2.6182,-2.5865,-2.5493,-4.3596,-4.3358,-4.3495,-4.3188,-4.2562,-4.1804,-4.0985,-4.0111,-3.9373,-3.9045,-3.9059,-3.9059,-3.9407,-3.9602,-3.7931,-3.6875,-3.6366,-3.5572,-3.4748,-3.4179,-3.3621,-3.3398,-3.315,-3.1756,-3.0976,-3.0809,-2.988,-2.9824,-3.0567,-3.0864,-3.1403,-3.2202,-3.299,-3.3392,-3.3473,-3.3937,-3.341,-3.2109,-3.1801,-3.1013,-2.9619,-2.9388,-2.9388,-2.9388,-2.9388,-2.9388,-2.9388,-2.9388,-2.9388,-2.9388,-2.9388,-2.9378,-2.9365,-2.9334,-2.9302,-2.9262,-2.9211,-2.9229,-2.9251,-2.9291,-2.9291,-2.9248,-2.9218,-2.9156,-2.9085,-2.9074,-2.9074,-2.9074,-2.9074,-2.9074,-2.9074,-2.91,-2.9134,-2.9152,-2.9145,-2.9145,-2.9134,-2.916,-2.9381,-2.9816,-2.9945,-3.0245,-3.063,-3.0309,-3.0305,-3.072,-3.0941,-3.0765,-3.005,-3.0044,-2.9916,-2.9189,-2.9017,-2.901,-2.915,-2.9403,-2.9496,-2.9403,-2.9388,-2.9272,-2.9209,-2.9209,-2.9209,-2.9198,-2.9198,-2.9238,-2.874,-2.7787,-2.7549,-2.7699,-2.6536,-2.5286,-2.5205,-2.5222,-2.501,-4.3178,-4.323,-4.3444,-4.3048,-4.2292,-4.1622,-4.0846,-3.9963,-3.9224,-3.9005,-3.9141,-3.903,-3.9235,-3.9143,-3.8339,-3.7833,-3.7567,-3.5665,-3.4513,-3.4327,-3.4179,-3.4067,-3.3881,-3.2295,-3.1459,-3.1366,-3.0113,-2.9861,-3.0716,-3.1366,-3.2109,-3.3008,-3.3714,-3.4018,-3.4141,-3.4092,-3.3417,-3.224,-3.1886,-3.1032,-2.963,-2.9415,-2.9388,-2.9388,-2.9396,-2.9396,-2.9378,-2.9378,-2.9388,-2.9388,-2.9388,-2.9376,-2.9323,-2.9302,-2.9262,-2.92,-2.9207,-2.9207,-2.9218,-2.9251,-2.9218,-2.9163,-2.9175,-2.9152,-2.904,-2.9017,-2.9017,-2.9017,-2.9017,-2.8987,-2.8998,-2.8998,-2.9017,-2.8998,-2.9055,-2.9085,-2.904,-2.9017,-2.9005,-2.909,-2.9138,-2.9023,-2.9053,-2.9187,-2.9297,-2.9425,-2.9811,-3.0001,-2.939,-2.9666,-2.9714,-2.9244,-2.8987,-2.8987,-2.8987,-2.9005,-2.9017,-2.9028,-2.9069,-2.9048,-2.9071,-2.9071,-2.9082,-2.9082,-2.9082,-2.9104,-2.8993,-2.8065,-2.7264,-2.699,-2.5512,-2.4627,-2.4617,-2.4754,-2.4759,-4.2741,-4.2502,-4.3101,-4.2324,-4.0912,-4.1117,-4.052,-3.9242,-3.8955,-3.922,-3.9601,-3.9223,-3.9915,-4.0681,-3.9092,-3.8539,-3.9342,-3.706,-3.5595,-3.507,-3.4494,-3.3937,-3.3213,-3.1756,-3.0679,-3.0177,-2.9675,-3.0113,-3.1236,-3.1682,-3.2439,-3.3592,-3.3988,-3.4136,-3.4136,-3.4099,-3.3573,-3.2692,-3.2072,-3.1255,-3.0251,-2.9675,-2.9407,-2.9378,-2.9365,-2.9315,-2.9334,-2.9376,-2.9378,-2.9378,-2.9388,-2.9357,-2.9312,-2.9251,-2.9207,-2.9134,-2.9078,-2.9078,-2.9123,-2.9134,-2.9134,-2.91,-2.913,-2.9078,-2.9017,-2.8994,-2.8994,-2.9005,-2.8987,-2.8987,-2.8987,-2.8987,-2.8987,-2.8987,-2.8998,-2.9028,-2.9017,-2.8987,-2.8987,-2.8987,-2.8987,-2.8987,-2.8987,-2.8987,-2.8987,-2.8987,-2.9262,-2.9244,-2.9152,-2.9225,-2.9317,-2.9023,-2.8987,-2.8975,-2.8952,-2.894,-2.8959,-2.8959,-2.8952,-2.8987,-2.8987,-2.8987,-2.8987,-2.8987,-2.8987,-2.8955,-2.8835,-2.8327,-2.7495,-2.6693,-2.5781,-2.5107,-2.4569,-2.4418,-2.4486,-4.2268,-4.2013,-4.2247,-4.1418,-3.9978,-4.0544,-4.0022,-3.8872,-3.8825,-3.9113,-3.9434,-3.9132,-4.0119,-4.1295,-3.9415,-3.9258,-4.0389,-3.8423,-3.6887,-3.5884,-3.502,-3.4377,-3.3658,-3.1882,-3.059,-2.9866,-2.9495,-3.0044,-3.131,-3.1667,-3.2393,-3.3463,-3.3907,-3.4074,-3.4099,-3.4062,-3.3728,-3.3027,-3.2518,-3.1719,-3.0734,-3.0103,-2.9683,-2.9421,-2.9304,-2.9302,-2.9272,-2.9323,-2.9336,-2.9365,-2.9386,-2.9365,-2.9302,-2.924,-2.9186,-2.9089,-2.9033,-2.9028,-2.9074,-2.9096,-2.9078,-2.9055,-2.9067,-2.9033,-2.8952,-2.8935,-2.8935,-2.8935,-2.8935,-2.8959,-2.8994,-2.8987,-2.8987,-2.8987,-2.8987,-2.8987,-2.8987,-2.8987,-2.8987,-2.8987,-2.8987,-2.8987,-2.8987,-2.8987,-2.8987,-2.8987,-2.8987,-2.8987,-2.8987,-2.9005,-2.8975,-2.8975,-2.8987,-2.8964,-2.8917,-2.8893,-2.89,-2.8912,-2.8905,-2.8952,-2.8987,-2.8987,-2.8987,-2.8987,-2.8987,-2.8987,-2.8886,-2.8279,-2.7529,-2.6765,-2.5974,-2.5252,-2.4607,-2.4385,-2.4392,-4.1724,-4.1669,-4.1084,-4.0439,-3.9751,-3.9884,-3.9512,-3.8781,-3.8707,-3.8823,-3.8958,-3.8877,-3.9755,-4.0705,-3.9553,-3.9623,-4.0683,-3.9483,-3.7987,-3.6837,-3.5954,-3.5395,-3.4513,-3.2641,-3.1302,-3.0394,-2.9746,-2.9945,-3.0906,-3.1436,-3.2154,-3.3111,-3.3746,-3.4023,-3.4061,-3.4086,-3.3759,-3.3233,-3.2997,-3.2191,-3.0928,-3.0575,-3.0219,-2.9461,-2.9328,-2.924,-2.9189,-2.9218,-2.9222,-2.9302,-2.9336,-2.9336,-2.9272,-2.924,-2.9186,-2.9078,-2.904,-2.8998,-2.9017,-2.9062,-2.9062,-2.8975,-2.901,-2.8998,-2.8822,-2.8804,-2.8785,-2.8785,-2.8785,-2.884,-2.8935,-2.8952,-2.8964,-2.8987,-2.8987,-2.9005,-2.8994,-2.8994,-2.8994,-2.8964,-2.8975,-2.8987,-2.8987,-2.8987,-2.8987,-2.8987,-2.8987,-2.8994,-2.894,-2.8929,-2.8952,-2.8929,-2.8881,-2.8846,-2.8773,-2.8785,-2.8779,-2.8773,-2.8798,-2.8858,-2.894,-2.8964,-2.8952,-2.8952,-2.8952,-2.8964,-2.8812,-2.8265,-2.7515,-2.6644,-2.5881,-2.5156,-2.4716,-2.445,-2.434,-4.1071,-4.0197,-4.0592,-4.0039,-3.904,-3.9575,-3.9441,-3.8744,-3.8707,-3.9016,-3.9378,-3.9016,-3.9728,-4.0941,-3.9637,-3.9464,-3.9966,-3.9331,-3.8737,-3.8213,-3.7409,-3.5573,-3.3901,-3.289,-3.1843,-3.0685,-3.0445,-3.0542,-3.1293,-3.1688,-3.241,-3.3596,-3.391,-3.3989,-3.3947,-3.4015,-3.3893,-3.3679,-3.3166,-3.2789,-3.2196,-3.1084,-3.0454,-3.0191,-2.9529,-2.9189,-2.9141,-2.9141,-2.9156,-2.9229,-2.9302,-2.9262,-2.9167,-2.9178,-2.9145,-2.9044,-2.8998,-2.9005,-2.9005,-2.9017,-2.8982,-2.887,-2.887,-2.881,-2.8681,-2.865,-2.865,-2.865,-2.865,-2.8681,-2.873,-2.8798,-2.8881,-2.8975,-2.8964,-2.8947,-2.89,-2.8947,-2.897,-2.8881,-2.8947,-2.8964,-2.8964,-2.8964,-2.8964,-2.8964,-2.894,-2.8923,-2.8791,-2.8743,-2.8688,-2.8675,-2.8637,-2.8625,-2.8625,-2.8637,-2.865,-2.8637,-2.8662,-2.87,-2.881,-2.8905,-2.8912,-2.8888,-2.8846,-2.8846,-2.8761,-2.8451,-2.7537,-2.6722,-2.6267,-2.5746,-2.4845,-2.4363,-2.4373,-4.0709,-3.9873,-3.9795,-3.9241,-3.8588,-3.9088,-3.908,-3.8762,-3.8726,-3.9148,-3.9677,-3.9485,-3.996,-4.0953,-3.9896,-3.9562,-3.9857,-3.913,-3.8611,-3.8144,-3.736,-3.6012,-3.4579,-3.402,-3.3301,-3.2459,-3.1998,-3.2158,-3.2625,-3.2908,-3.3589,-3.4336,-3.4738,-3.4751,-3.4502,-3.4447,-3.4271,-3.3998,-3.3537,-3.3229,-3.2785,-3.1954,-3.1025,-3.051,-2.9773,-2.9414,-2.9113,-2.9051,-2.9096,-2.9145,-2.92,-2.9211,-2.9145,-2.9145,-2.9112,-2.9051,-2.8998,-2.8964,-2.8935,-2.8923,-2.8864,-2.8767,-2.8712,-2.8637,-2.8549,-2.851,-2.851,-2.851,-2.8528,-2.8536,-2.8618,-2.8675,-2.8749,-2.8798,-2.8822,-2.884,-2.8804,-2.8828,-2.8785,-2.8761,-2.8822,-2.8881,-2.8846,-2.8834,-2.8791,-2.8713,-2.8614,-2.8563,-2.8482,-2.8443,-2.8417,-2.8427,-2.8414,-2.8414,-2.8388,-2.8388,-2.8291,-2.8291,-2.8344,-2.8409,-2.8594,-2.8731,-2.8749,-2.8724,-2.8712,-2.8675,-2.8569,-2.844,-2.7973,-2.7308,-2.6892,-2.6174,-2.5219,-2.4657,-2.4614,-4.0438,-4.0274,-3.8891,-3.8338,-3.8417,-3.8606,-3.885,-3.8857,-3.9074,-3.9386,-3.9774,-3.9882,-4.0052,-4.0785,-3.974,-3.9682,-3.9664,-3.8951,-3.8331,-3.7711,-3.7091,-3.6468,-3.6304,-3.5459,-3.4972,-3.4554,-3.4241,-3.3992,-3.4037,-3.4618,-3.5046,-3.5289,-3.5872,-3.5776,-3.5161,-3.5064,-3.4718,-3.4081,-3.3886,-3.3554,-3.3067,-3.2587,-3.1838,-3.0883,-3.0167,-2.96,-2.9106,-2.8917,-2.8964,-2.9033,-2.9115,-2.9167,-2.9156,-2.9119,-2.9044,-2.901,-2.8929,-2.8846,-2.8785,-2.8761,-2.8724,-2.8612,-2.8574,-2.8523,-2.8406,-2.8367,-2.8367,-2.8384,-2.8384,-2.845,-2.8536,-2.8592,-2.86,-2.8625,-2.8612,-2.8637,-2.87,-2.8662,-2.8587,-2.8562,-2.8675,-2.8675,-2.8594,-2.8543,-2.8513,-2.8456,-2.8347,-2.8295,-2.8215,-2.8134,-2.8165,-2.8224,-2.8228,-2.8228,-2.8187,-2.8146,-2.8003,-2.7901,-2.7971,-2.8055,-2.8273,-2.8422,-2.8492,-2.8523,-2.8435,-2.8396,-2.837,-2.8185,-2.7967,-2.7545,-2.6874,-2.6207,-2.5533,-2.5246,-2.512,-4.0184,-3.9568,-3.8692,-3.8338,-3.8526,-3.9191,-3.9546,-3.9662,-4.027,-4.0166,-3.9914,-3.9825,-3.9554,-3.9083,-3.8992,-3.872,-3.8809,-3.8556,-3.8255,-3.8018,-3.7855,-3.7611,-3.7317,-3.6514,-3.5752,-3.5247,-3.4912,-3.4816,-3.4926,-3.5174,-3.5404,-3.6064,-3.627,-3.5881,-3.522,-3.5128,-3.4637,-3.3927,-3.382,-3.3747,-3.3413,-3.2892,-3.2376,-3.1751,-3.0671,-2.9643,-2.898,-2.8737,-2.8682,-2.8773,-2.894,-2.9044,-2.8998,-2.8929,-2.8839,-2.8779,-2.8682,-2.8612,-2.8569,-2.86,-2.8605,-2.8445,-2.8419,-2.8367,-2.8264,-2.825,-2.825,-2.8237,-2.8237,-2.8318,-2.8406,-2.845,-2.8471,-2.851,-2.8471,-2.8432,-2.8471,-2.8549,-2.8484,-2.8375,-2.8401,-2.8409,-2.8242,-2.8215,-2.8188,-2.8143,-2.8088,-2.8047,-2.7954,-2.7858,-2.7886,-2.7947,-2.7918,-2.7908,-2.7922,-2.7864,-2.7763,-2.7642,-2.7672,-2.7716,-2.7915,-2.8055,-2.8128,-2.8156,-2.8124,-2.811,-2.8128,-2.7992,-2.7796,-2.7307,-2.6894,-2.6351,-2.5897,-2.5707,-2.513,-4.0075,-3.9332,-3.8569,-3.8289,-3.8409,-3.8911,-3.9343,-3.9772,-4.0209,-4.0361,-4.0291,-4.0273,-3.9765,-3.9,-3.8948,-3.8836,-3.8421,-3.8302,-3.8201,-3.8083,-3.7981,-3.7878,-3.779,-3.7326,-3.6726,-3.6311,-3.6347,-3.6311,-3.6326,-3.6385,-3.6781,-3.7119,-3.7199,-3.6629,-3.5637,-3.5436,-3.4818,-3.389,-3.3684,-3.3684,-3.3533,-3.3236,-3.2611,-3.2046,-3.073,-2.9562,-2.9163,-2.8711,-2.8559,-2.8562,-2.8669,-2.8755,-2.8718,-2.8657,-2.8589,-2.8538,-2.8505,-2.8414,-2.8406,-2.8375,-2.8353,-2.8219,-2.8205,-2.8196,-2.8154,-2.8154,-2.8186,-2.82,-2.8196,-2.8223,-2.8273,-2.8286,-2.8327,-2.8286,-2.8259,-2.8178,-2.8119,-2.8214,-2.8286,-2.8132,-2.8142,-2.8069,-2.7982,-2.7926,-2.7855,-2.7815,-2.7719,-2.7659,-2.763,-2.7557,-2.76,-2.7615,-2.7585,-2.7569,-2.76,-2.7569,-2.7526,-2.7465,-2.7465,-2.7481,-2.7572,-2.7657,-2.7728,-2.7786,-2.789,-2.7858,-2.7844,-2.7725,-2.7678,-2.7521,-2.7141,-2.6608,-2.61,-2.5706,-2.4905,-3.9896,-3.9298,-3.861,-3.839,-3.8475,-3.8799,-3.9304,-3.9718,-3.9914,-4.0352,-4.0482,-4.0574,-3.9849,-3.9395,-3.9144,-3.8832,-3.8383,-3.8103,-3.7948,-3.7862,-3.7774,-3.765,-3.7578,-3.7471,-3.7435,-3.7667,-3.7557,-3.7593,-3.7662,-3.7948,-3.7652,-3.7993,-3.8196,-3.7374,-3.6355,-3.5927,-3.522,-3.4007,-3.3625,-3.353,-3.3516,-3.3368,-3.2792,-3.1546,-3.0901,-2.9755,-2.9223,-2.8743,-2.8501,-2.8367,-2.8322,-2.8309,-2.8304,-2.8331,-2.8362,-2.8362,-2.8309,-2.8246,-2.8178,-2.8146,-2.8119,-2.7996,-2.7996,-2.8025,-2.8053,-2.8085,-2.8116,-2.8126,-2.8154,-2.8154,-2.8168,-2.8168,-2.8095,-2.8025,-2.7982,-2.7879,-2.7774,-2.785,-2.7896,-2.7911,-2.7864,-2.7803,-2.7701,-2.7627,-2.7554,-2.7481,-2.7376,-2.7299,-2.7299,-2.733,-2.739,-2.7436,-2.7436,-2.7421,-2.7452,-2.7434,-2.7374,-2.7343,-2.7312,-2.7329,-2.7329,-2.7421,-2.7524,-2.7615,-2.7659,-2.7659,-2.7659,-2.7615,-2.7597,-2.7642,-2.7496,-2.7037,-2.6398,-2.5706,-2.483,-3.9102,-3.9139,-3.9013,-3.8977,-3.9282,-4.0599,-4.078,-4.0545,-4.1085,-4.0828,-3.9761,-3.955,-3.9047,-3.84,-3.8008,-3.7847,-3.7792,-3.7739,-3.7613,-3.7522,-3.7411,-3.7354,-3.7242,-3.7242,-3.7203,-3.7261,-3.7504,-3.7721,-3.7756,-3.7844,-3.7827,-3.7879,-3.8034,-3.7489,-3.6627,-3.6043,-3.5421,-3.4313,-3.3735,-3.3457,-3.3472,-3.3112,-3.2346,-3.1073,-3.0805,-3.0112,-2.8927,-2.877,-2.8695,-2.8127,-2.7922,-2.7844,-2.7904,-2.8049,-2.8136,-2.8122,-2.8053,-2.8,-2.7971,-2.8014,-2.8011,-2.7996,-2.7968,-2.7982,-2.7996,-2.8011,-2.8028,-2.8042,-2.8039,-2.8025,-2.8025,-2.8025,-2.7968,-2.7879,-2.7821,-2.7792,-2.7686,-2.7644,-2.7617,-2.7617,-2.7587,-2.7572,-2.7496,-2.7434,-2.7388,-2.7357,-2.7296,-2.725,-2.7251,-2.7267,-2.7282,-2.7313,-2.733,-2.733,-2.7346,-2.7329,-2.7282,-2.7282,-2.7266,-2.725,-2.7283,-2.7315,-2.7376,-2.7404,-2.7467,-2.7467,-2.7467,-2.7452,-2.7388,-2.7355,-2.738,-2.7404,-2.6512,-2.5634,-2.5199,-3.8755,-3.8903,-3.8903,-3.9154,-3.9676,-4.0563,-4.0708,-4.0309,-4.0818,-4.0366,-3.9428,-3.8995,-3.8528,-3.7882,-3.7667,-3.7595,-3.7576,-3.7484,-3.7391,-3.7314,-3.7201,-3.7124,-3.7007,-3.6989,-3.6989,-3.7068,-3.7261,-3.7394,-3.7394,-3.7485,-3.7541,-3.7577,-3.7739,-3.7397,-3.6681,-3.6231,-3.5636,-3.4817,-3.4064,-3.3613,-3.3535,-3.2937,-3.163,-3.0846,-3.0323,-2.9707,-2.8945,-2.8282,-2.8223,-2.7892,-2.7745,-2.7716,-2.7745,-2.7789,-2.7911,-2.7896,-2.7839,-2.7795,-2.7795,-2.7839,-2.7836,-2.7836,-2.785,-2.7882,-2.7929,-2.7943,-2.7975,-2.7986,-2.7982,-2.7968,-2.7893,-2.7893,-2.7824,-2.7689,-2.7644,-2.76,-2.7526,-2.7452,-2.7421,-2.7405,-2.7405,-2.739,-2.7376,-2.7313,-2.7282,-2.7233,-2.7184,-2.7185,-2.717,-2.717,-2.7203,-2.7187,-2.7203,-2.7203,-2.7203,-2.7186,-2.7186,-2.7186,-2.7186,-2.717,-2.7154,-2.7154,-2.7154,-2.7169,-2.7218,-2.7234,-2.7264,-2.723,-2.7152,-2.7056,-2.7037,-2.6865,-2.6236,-2.5619,-2.5168,-3.8386,-3.8623,-3.8642,-3.9122,-3.9802,-4.0068,-3.9959,-3.97,-3.989,-3.9461,-3.8631,-3.8468,-3.8128,-3.7664,-3.7485,-3.7466,-3.7484,-3.7297,-3.7239,-3.7201,-3.7085,-3.7007,-3.6989,-3.6989,-3.6989,-3.6989,-3.7029,-3.6989,-3.7087,-3.7184,-3.7239,-3.7298,-3.7448,-3.7254,-3.6648,-3.6364,-3.5901,-3.5367,-3.4619,-3.4139,-3.3443,-3.2359,-3.1069,-3.0152,-2.9536,-2.9195,-2.8506,-2.8315,-2.7997,-2.7804,-2.7716,-2.7716,-2.7716,-2.7716,-2.7716,-2.7716,-2.7716,-2.7716,-2.7716,-2.7716,-2.773,-2.7745,-2.7716,-2.7763,-2.781,-2.7839,-2.7885,-2.7925,-2.7925,-2.7864,-2.7792,-2.7745,-2.7659,-2.7559,-2.7498,-2.7452,-2.7376,-2.7297,-2.7263,-2.7249,-2.725,-2.7234,-2.7234,-2.7234,-2.7185,-2.7137,-2.7087,-2.7088,-2.7089,-2.7073,-2.7057,-2.7041,-2.7041,-2.7041,-2.7057,-2.7057,-2.7073,-2.7073,-2.7073,-2.7073,-2.7041,-2.6991,-2.6975,-2.6925,-2.6908,-2.6941,-2.6973,-2.6989,-2.6908,-2.6792,-2.6674,-2.6489,-2.6184,-2.561,-2.5048,-3.7534,-3.8347,-3.8483,-3.8947,-3.9623,-3.9893,-3.9464,-3.8685,-3.8913,-3.8507,-3.779,-3.7606,-3.7476,-3.7314,-3.7163,-3.7105,-3.7066,-3.7066,-3.7027,-3.7027,-3.6987,-3.6968,-3.697,-3.6989,-3.6968,-3.6948,-3.695,-3.6989,-3.697,-3.7027,-3.7066,-3.7087,-3.7203,-3.7189,-3.6864,-3.6499,-3.6094,-3.5863,-3.519,-3.4092,-3.28,-3.1778,-3.0518,-2.9581,-2.9239,-2.8998,-2.8124,-2.8104,-2.8187,-2.7721,-2.7701,-2.7701,-2.7716,-2.7716,-2.7716,-2.7716,-2.7716,-2.7716,-2.7716,-2.7716,-2.7716,-2.7716,-2.7716,-2.7716,-2.7748,-2.7748,-2.7748,-2.773,-2.773,-2.7686,-2.7615,-2.76,-2.7526,-2.7452,-2.7376,-2.7345,-2.7282,-2.7186,-2.7153,-2.7137,-2.7137,-2.7137,-2.712,-2.712,-2.7104,-2.7039,-2.7007,-2.6991,-2.6975,-2.6942,-2.6942,-2.6925,-2.6925,-2.6925,-2.6876,-2.6892,-2.6876,-2.6909,-2.6876,-2.6876,-2.6809,-2.6725,-2.6725,-2.6708,-2.6657,-2.6607,-2.6624,-2.6624,-2.6607,-2.6521,-2.6418,-2.6401,-2.6385,-2.5715,-2.4913,-3.7205,-3.8181,-3.874,-3.9133,-3.9453,-3.9676,-3.9195,-3.8437,-3.8506,-3.8118,-3.7366,-3.7182,-3.7105,-3.7007,-3.6886,-3.6864,-3.6826,-3.6846,-3.6826,-3.6846,-3.6846,-3.6826,-3.6826,-3.6826,-3.6826,-3.6846,-3.6826,-3.6806,-3.6849,-3.6948,-3.6989,-3.7007,-3.7068,-3.7087,-3.6987,-3.6733,-3.6631,-3.6242,-3.5307,-3.3635,-3.1985,-3.0847,-2.9889,-2.8743,-2.8624,-2.8154,-2.7873,-2.7783,-2.7938,-2.7585,-2.7585,-2.7615,-2.763,-2.7644,-2.7659,-2.7716,-2.7716,-2.7716,-2.7716,-2.7716,-2.7716,-2.7716,-2.7716,-2.7716,-2.7716,-2.7701,-2.7674,-2.76,-2.76,-2.7524,-2.7386,-2.7324,-2.7263,-2.7217,-2.7218,-2.7202,-2.7154,-2.7105,-2.7056,-2.704,-2.7024,-2.699,-2.6974,-2.6974,-2.6974,-2.6975,-2.6909,-2.6875,-2.6842,-2.6792,-2.6792,-2.6792,-2.6792,-2.6808,-2.6742,-2.6691,-2.659,-2.6572,-2.6452,-2.6469,-2.6486,-2.6452,-2.6435,-2.6435,-2.6383,-2.6348,-2.6313,-2.6348,-2.6366,-2.626,-2.6134,-2.6118,-2.605,-2.5416,-2.4573,-3.7127,-3.7676,-3.8377,-3.8789,-3.8968,-3.8962,-3.8501,-3.7905,-3.8009,-3.7672,-3.711,-3.6928,-3.6869,-3.6788,-3.6742,-3.674,-3.6719,-3.6719,-3.6719,-3.6719,-3.6719,-3.674,-3.6722,-3.6722,-3.6722,-3.6719,-3.6742,-3.6722,-3.6745,-3.6809,-3.6888,-3.6928,-3.6926,-3.6926,-3.6946,-3.6821,-3.6716,-3.6295,-3.5152,-3.3436,-3.1586,-3.035,-2.9481,-2.8614,-2.7936,-2.7467,-2.7483,-2.75,-2.75,-2.7511,-2.7511,-2.7542,-2.7554,-2.7569,-2.7602,-2.7644,-2.7659,-2.7657,-2.7672,-2.7686,-2.7701,-2.7716,-2.7716,-2.7716,-2.7683,-2.7686,-2.763,-2.7509,-2.7432,-2.7308,-2.7182,-2.7135,-2.7086,-2.7072,-2.7041,-2.7008,-2.7008,-2.6992,-2.6975,-2.6975,-2.6909,-2.6809,-2.6809,-2.6809,-2.6842,-2.6842,-2.6826,-2.6759,-2.6691,-2.6624,-2.6573,-2.6572,-2.6555,-2.6539,-2.6504,-2.6452,-2.6349,-2.6243,-2.6137,-2.6136,-2.6189,-2.6136,-2.6064,-2.6064,-2.6081,-2.6026,-2.5937,-2.6046,-2.6152,-2.599,-2.586,-2.5787,-2.555,-2.5003,-2.4403,-3.7217,-3.6631,-3.6905,-3.744,-3.8058,-3.7444,-3.7185,-3.7143,-3.7148,-3.7053,-3.6846,-3.6766,-3.6742,-3.6702,-3.6664,-3.6661,-3.6681,-3.6719,-3.6681,-3.6681,-3.6719,-3.664,-3.664,-3.662,-3.664,-3.6623,-3.646,-3.6481,-3.6594,-3.6293,-3.6528,-3.6722,-3.671,-3.6708,-3.6658,-3.6539,-3.617,-3.5682,-3.4737,-3.3623,-3.1898,-3.0543,-2.9347,-2.8586,-2.7829,-2.7345,-2.7392,-2.7407,-2.7438,-2.7465,-2.7483,-2.7465,-2.7463,-2.7463,-2.7478,-2.7494,-2.7539,-2.7554,-2.7569,-2.7627,-2.7669,-2.7701,-2.7701,-2.7672,-2.7657,-2.7569,-2.7526,-2.7432,-2.7293,-2.7182,-2.7119,-2.7086,-2.6989,-2.6974,-2.6925,-2.6925,-2.6909,-2.6909,-2.6909,-2.6893,-2.6809,-2.6691,-2.659,-2.6572,-2.6606,-2.6606,-2.6623,-2.6555,-2.6469,-2.64,-2.633,-2.6278,-2.6278,-2.626,-2.6225,-2.6154,-2.6048,-2.5921,-2.5811,-2.5901,-2.601,-2.5901,-2.568,-2.5698,-2.5715,-2.564,-2.5619,-2.5677,-2.5715,-2.5656,-2.5616,-2.5635,-2.5635,-2.5357,-2.4661,-3.6526,-3.6335,-3.6444,-3.6762,-3.7202,-3.6908,-3.6826,-3.6826,-3.6826,-3.6786,-3.6745,-3.6623,-3.6564,-3.6544,-3.6464,-3.6444,-3.6444,-3.6444,-3.6464,-3.644,-3.6419,-3.6395,-3.6374,-3.6335,-3.6255,-3.6155,-3.5897,-3.5893,-3.6165,-3.558,-3.5407,-3.5604,-3.6214,-3.6264,-3.618,-3.5968,-3.5494,-3.4899,-3.4343,-3.3491,-3.1945,-3.0456,-2.9419,-2.9109,-2.7831,-2.7384,-2.7346,-2.7346,-2.736,-2.7376,-2.7376,-2.7359,-2.7324,-2.7324,-2.7324,-2.7324,-2.7355,-2.7371,-2.7384,-2.7476,-2.7569,-2.7567,-2.7569,-2.7569,-2.7552,-2.7509,-2.7373,-2.7247,-2.7119,-2.7022,-2.6874,-2.6858,-2.6842,-2.6825,-2.6808,-2.6809,-2.6792,-2.6759,-2.6742,-2.6708,-2.6607,-2.6504,-2.6401,-2.6348,-2.6348,-2.6365,-2.6383,-2.6365,-2.6278,-2.6189,-2.6134,-2.6099,-2.6081,-2.6064,-2.6046,-2.5901,-2.5719,-2.5589,-2.5492,-2.553,-2.5586,-2.5416,-2.5243,-2.5298,-2.5355,-2.5317,-2.5298,-2.5298,-2.5371,-2.5502,-2.5559,-2.5616,-2.5597,-2.5578,-2.4878,-3.6058,-3.6144,-3.6191,-3.636,-3.6582,-3.6664,-3.6719,-3.6719,-3.6719,-3.6681,-3.6623,-3.6502,-3.6444,-3.6385,-3.6343,-3.6305,-3.6305,-3.6305,-3.6305,-3.628,-3.6272,-3.6208,-3.6144,-3.6049,-3.5908,-3.5621,-3.5279,-3.5232,-3.5151,-3.4319,-3.436,-3.4819,-3.5356,-3.5302,-3.5298,-3.528,-3.498,-3.433,-3.4036,-3.3379,-3.1836,-3.0351,-2.9489,-2.9196,-2.7991,-2.7287,-2.7202,-2.7186,-2.7202,-2.7202,-2.7185,-2.7185,-2.7152,-2.7135,-2.7135,-2.7151,-2.7149,-2.7165,-2.7197,-2.7276,-2.7402,-2.7402,-2.7402,-2.7402,-2.7402,-2.7388,-2.7217,-2.7072,-2.6957,-2.6859,-2.6691,-2.6674,-2.6641,-2.6624,-2.6538,-2.6521,-2.6521,-2.6487,-2.6504,-2.6504,-2.6401,-2.633,-2.6154,-2.6081,-2.6118,-2.6152,-2.617,-2.6152,-2.6099,-2.6008,-2.5952,-2.5934,-2.5934,-2.5917,-2.5917,-2.5624,-2.5359,-2.5246,-2.5146,-2.5029,-2.5025,-2.4906,-2.4966,-2.5103,-2.5123,-2.5025,-2.5045,-2.5123,-2.5275,-2.5445,-2.5483,-2.5483,-2.5429,-2.5343,-2.4935,-3.5997,-3.6014,-3.5997,-3.611,-3.6339,-3.6564,-3.6681,-3.6661,-3.6661,-3.6585,-3.6485,-3.6381,-3.6322,-3.6301,-3.6297,-3.6259,-3.6259,-3.628,-3.628,-3.6237,-3.6208,-3.6187,-3.6071,-3.5899,-3.5471,-3.5036,-3.4588,-3.4209,-3.4007,-3.355,-3.3638,-3.3775,-3.4028,-3.4197,-3.4217,-3.4872,-3.4726,-3.4063,-3.4074,-3.3195,-3.1954,-3.0385,-2.9575,-2.9059,-2.7909,-2.7122,-2.7072,-2.7073,-2.7073,-2.7073,-2.7057,-2.7057,-2.7024,-2.7024,-2.7007,-2.6975,-2.7022,-2.7053,-2.7086,-2.7149,-2.7149,-2.7214,-2.723,-2.723,-2.7182,-2.712,-2.704,-2.6925,-2.6825,-2.6725,-2.6624,-2.6522,-2.647,-2.6418,-2.633,-2.6313,-2.6313,-2.6313,-2.6348,-2.6348,-2.6259,-2.6117,-2.5934,-2.5805,-2.5879,-2.5899,-2.5936,-2.5934,-2.5897,-2.586,-2.5803,-2.5749,-2.5749,-2.5675,-2.5584,-2.524,-2.5005,-2.4906,-2.4806,-2.4726,-2.4706,-2.469,-2.4771,-2.4926,-2.4886,-2.4786,-2.4866,-2.4966,-2.4985,-2.4989,-2.5256,-2.5294,-2.524,-2.5118,-2.4738,-3.5795,-3.5861,-3.5883,-3.5927,-3.6014,-3.6268,-3.6395,-3.6423,-3.6423,-3.6402,-3.6364,-3.6322,-3.6259,-3.6233,-3.6212,-3.6191,-3.611,-3.6212,-3.6212,-3.6105,-3.6062,-3.5993,-3.5825,-3.5419,-3.4929,-3.4415,-3.3888,-3.3552,-3.3579,-3.2828,-3.2647,-3.2767,-3.3151,-3.3368,-3.3942,-3.4528,-3.4631,-3.4037,-3.3871,-3.3427,-3.2343,-3.0607,-2.9403,-2.9229,-2.7826,-2.7041,-2.6991,-2.6975,-2.6992,-2.6975,-2.6975,-2.6958,-2.6925,-2.6909,-2.6826,-2.6691,-2.6624,-2.6573,-2.6521,-2.6539,-2.6725,-2.6908,-2.7039,-2.7023,-2.7039,-2.704,-2.6925,-2.6808,-2.6708,-2.659,-2.6487,-2.6453,-2.64,-2.6312,-2.6241,-2.6225,-2.6225,-2.6225,-2.6225,-2.6188,-2.6117,-2.5826,-2.5581,-2.5486,-2.5527,-2.5584,-2.5621,-2.5694,-2.571,-2.571,-2.5654,-2.5597,-2.5543,-2.5429,-2.5256,-2.4985,-2.4806,-2.4706,-2.4569,-2.4446,-2.4426,-2.4487,-2.4508,-2.4589,-2.4584,-2.4544,-2.4544,-2.4528,-2.4431,-2.4472,-2.4731,-2.4946,-2.4966,-2.4855,-2.4701,-3.5661,-3.5728,-3.5728,-3.5773,-3.5839,-3.6079,-3.6229,-3.6255,-3.6255,-3.6276,-3.6255,-3.6216,-3.6212,-3.6187,-3.6144,-3.6101,-3.6019,-3.6062,-3.6122,-3.6014,-3.5932,-3.5866,-3.5591,-3.5147,-3.4684,-3.4049,-3.3322,-3.2869,-3.2513,-3.171,-3.1644,-3.2072,-3.257,-3.2798,-3.3264,-3.3594,-3.4425,-3.4069,-3.4021,-3.3462,-3.2331,-3.0978,-2.9589,-2.8886,-2.7913,-2.6959,-2.6908,-2.6892,-2.6892,-2.6892,-2.6892,-2.6875,-2.6842,-2.6725,-2.6624,-2.6453,-2.6348,-2.6295,-2.6259,-2.6225,-2.6435,-2.664,-2.6725,-2.6742,-2.6708,-2.6657,-2.6623,-2.6555,-2.6539,-2.6453,-2.6349,-2.633,-2.6207,-2.6133,-2.6043,-2.6026,-2.599,-2.5972,-2.5972,-2.5936,-2.5789,-2.5489,-2.5275,-2.5182,-2.5162,-2.522,-2.5294,-2.5371,-2.5483,-2.5502,-2.5483,-2.5391,-2.5294,-2.5178,-2.5005,-2.4811,-2.463,-2.4528,-2.4405,-2.4302,-2.4302,-2.4364,-2.4323,-2.4261,-2.4276,-2.4255,-2.4114,-2.4015,-2.3958,-2.4,-2.4168,-2.439,-2.4589,-2.4513,-2.4338,-3.5515,-3.5532,-3.5532,-3.5565,-3.5749,-3.5985,-3.6148,-3.6152,-3.617,-3.6187,-3.6204,-3.6079,-3.6058,-3.6122,-3.6041,-3.5975,-3.5954,-3.5975,-3.5954,-3.5949,-3.5861,-3.58,-3.5683,-3.5413,-3.4556,-3.3795,-3.3085,-3.2357,-3.1393,-3.1261,-3.1278,-3.1582,-3.25,-3.2469,-3.253,-3.3005,-3.3921,-3.4061,-3.3714,-3.3208,-3.2337,-3.0952,-2.9669,-2.8713,-2.7641,-2.6944,-2.6775,-2.6758,-2.6742,-2.6725,-2.6691,-2.6691,-2.6624,-2.6504,-2.6435,-2.6331,-2.6241,-2.6152,-2.6099,-2.6081,-2.61,-2.6224,-2.6222,-2.6188,-2.6277,-2.6347,-2.633,-2.6313,-2.6295,-2.6242,-2.6171,-2.6063,-2.5952,-2.5842,-2.5747,-2.5728,-2.5691,-2.5672,-2.5656,-2.5562,-2.5394,-2.5162,-2.5025,-2.4926,-2.4846,-2.4946,-2.5005,-2.5064,-2.5158,-2.5275,-2.522,-2.5123,-2.5025,-2.4906,-2.4746,-2.463,-2.4528,-2.4421,-2.4364,-2.4281,-2.4281,-2.4261,-2.4219,-2.4156,-2.4046,-2.3903,-2.3674,-2.3588,-2.3551,-2.3616,-2.3616,-2.3852,-2.4057,-2.3915,-2.3773,-3.4032,-3.4032,-3.4011,-3.4358,-3.4943,-3.564,-3.5698,-3.5356,-3.5784,-3.6062,-3.6041,-3.6036,-3.5971,-3.5905,-3.5861,-3.58,-3.5778,-3.5778,-3.5756,-3.5773,-3.5773,-3.5728,-3.5497,-3.5098,-3.4269,-3.3525,-3.2831,-3.2205,-3.1444,-3.119,-3.1171,-3.141,-3.2219,-3.2154,-3.2296,-3.2744,-3.3322,-3.3541,-3.3128,-3.2777,-3.1964,-3.0551,-2.9356,-2.8199,-2.73,-2.6776,-2.6691,-2.6674,-2.6674,-2.6691,-2.6539,-2.6487,-2.647,-2.6348,-2.6207,-2.6028,-2.5881,-2.5768,-2.5768,-2.5787,-2.5805,-2.5807,-2.5805,-2.5972,-2.6081,-2.6136,-2.6136,-2.61,-2.6099,-2.6063,-2.6008,-2.5915,-2.5805,-2.5712,-2.5635,-2.5597,-2.5578,-2.554,-2.5521,-2.5275,-2.5084,-2.489,-2.4746,-2.4625,-2.4584,-2.4666,-2.4746,-2.4786,-2.4866,-2.4985,-2.4985,-2.4871,-2.4791,-2.467,-2.4625,-2.4503,-2.4421,-2.4338,-2.4276,-2.4219,-2.4219,-2.4177,-2.4135,-2.3967,-2.3732,-2.3436,-2.3157,-2.3135,-2.3194,-2.2971,-2.2971,-2.326,-2.3443,-2.3355,-2.3326,-3.3389,-3.3389,-3.3389,-3.3677,-3.4121,-3.4621,-3.4776,-3.4857,-3.5581,-3.591,-3.5927,-3.5866,-3.5839,-3.5817,-3.5751,-3.5706,-3.5639,-3.5667,-3.5639,-3.5549,-3.5639,-3.5594,-3.5279,-3.4778,-3.4069,-3.3309,-3.2604,-3.1928,-3.1317,-3.1092,-3.1072,-3.1139,-3.1834,-3.1819,-3.1858,-3.2102,-3.2362,-3.2412,-3.2259,-3.2138,-3.123,-3.0012,-2.8787,-2.7772,-2.696,-2.6623,-2.6573,-2.6572,-2.6521,-2.6521,-2.6348,-2.633,-2.6295,-2.6188,-2.599,-2.5807,-2.5694,-2.5654,-2.5654,-2.5635,-2.5616,-2.5597,-2.5597,-2.5712,-2.5824,-2.5881,-2.5899,-2.5899,-2.5899,-2.5915,-2.5842,-2.5768,-2.5694,-2.56,-2.5581,-2.5543,-2.5521,-2.5483,-2.5294,-2.5025,-2.4826,-2.463,-2.4467,-2.4343,-2.4302,-2.4426,-2.4487,-2.4508,-2.4589,-2.471,-2.469,-2.4609,-2.4549,-2.4467,-2.4405,-2.4323,-2.4276,-2.4193,-2.4109,-2.4073,-2.4094,-2.3909,-2.3696,-2.348,-2.3282,-2.3038,-2.2814,-2.2791,-2.2806,-2.2615,-2.2523,-2.2806,-2.3016,-2.2994,-2.2986,-3.3152,-3.3169,-3.3288,-3.3271,-3.3322,-3.3457,-3.3829,-3.446,-3.5157,-3.5642,-3.5603,-3.5447,-3.5401,-3.5423,-3.5413,-3.5504,-3.5526,-3.5577,-3.5346,-3.5241,-3.5373,-3.5322,-3.4964,-3.465,-3.3839,-3.3139,-3.2458,-3.1796,-3.1153,-3.0932,-3.0932,-3.0905,-3.142,-3.1425,-3.1021,-3.1624,-3.1662,-3.0983,-3.1124,-3.1136,-3.0508,-2.9431,-2.8282,-2.7564,-2.6819,-2.6277,-2.633,-2.6295,-2.6189,-2.6206,-2.6188,-2.617,-2.6063,-2.5972,-2.5787,-2.5694,-2.5616,-2.5597,-2.5597,-2.5597,-2.5597,-2.5597,-2.5597,-2.5635,-2.5694,-2.5712,-2.5731,-2.5731,-2.5749,-2.5749,-2.571,-2.5691,-2.5635,-2.5616,-2.5597,-2.5505,-2.541,-2.5294,-2.5041,-2.4806,-2.4645,-2.4467,-2.4385,-2.4281,-2.4281,-2.4302,-2.4323,-2.4343,-2.4323,-2.4446,-2.4385,-2.4323,-2.4261,-2.4183,-2.4078,-2.4036,-2.4094,-2.403,-2.3882,-2.3818,-2.3754,-2.3501,-2.3172,-2.3061,-2.2926,-2.2723,-2.254,-2.2532,-2.2463,-2.2301,-2.2278,-2.2454,-2.2532,-2.2578,-2.2692,-3.1224,-3.1765,-3.2344,-3.2581,-3.2628,-3.3169,-3.3453,-3.3677,-3.3867,-3.4273,-3.4651,-3.4269,-3.4286,-3.4747,-3.4776,-3.4935,-3.538,-3.5211,-3.4974,-3.4854,-3.4954,-3.4885,-3.4303,-3.4078,-3.3506,-3.2878,-3.2247,-3.1566,-3.0922,-3.0767,-3.074,-3.0559,-3.0792,-3.0481,-3.0294,-3.0964,-3.0674,-2.9654,-2.963,-2.9558,-2.894,-2.8246,-2.7309,-2.6795,-2.6206,-2.6188,-2.6224,-2.6189,-2.6171,-2.6171,-2.6026,-2.5915,-2.5749,-2.571,-2.5654,-2.5616,-2.5597,-2.5597,-2.5597,-2.5597,-2.5597,-2.5597,-2.5597,-2.5597,-2.5597,-2.5597,-2.5597,-2.5597,-2.5597,-2.5597,-2.5597,-2.5597,-2.5578,-2.5597,-2.5578,-2.5429,-2.5294,-2.5057,-2.4778,-2.4605,-2.4482,-2.4431,-2.4348,-2.4281,-2.4281,-2.4281,-2.4302,-2.4261,-2.412,-2.412,-2.4009,-2.3967,-2.3931,-2.3867,-2.376,-2.3717,-2.3775,-2.3674,-2.3501,-2.3451,-2.3407,-2.3105,-2.2799,-2.2723,-2.2586,-2.2379,-2.224,-2.2231,-2.2137,-2.1996,-2.1973,-2.2091,-2.21,-2.2123,-2.2324,-3.0531,-3.1224,-3.1633,-3.2005,-3.2273,-3.2326,-3.2635,-3.3073,-3.2588,-3.2702,-3.3402,-3.3394,-3.3601,-3.3874,-3.3886,-3.4202,-3.4723,-3.4664,-3.4585,-3.4525,-3.4532,-3.457,-3.4183,-3.3555,-3.3092,-3.2503,-3.1548,-3.0838,-3.0362,-3.0078,-2.9869,-2.9572,-2.949,-2.9482,-2.9453,-2.9615,-2.9473,-2.8296,-2.8188,-2.7807,-2.7356,-2.6815,-2.6596,-2.6184,-2.6063,-2.6026,-2.6008,-2.599,-2.5917,-2.5917,-2.5805,-2.5749,-2.5654,-2.5635,-2.5616,-2.5597,-2.5597,-2.5597,-2.5597,-2.5597,-2.5597,-2.5597,-2.5597,-2.5597,-2.5597,-2.5597,-2.5597,-2.5597,-2.5597,-2.5597,-2.5597,-2.5597,-2.5521,-2.5483,-2.541,-2.5294,-2.5179,-2.5014,-2.473,-2.4462,-2.4488,-2.4683,-2.4543,-2.4281,-2.424,-2.403,-2.4073,-2.3946,-2.3846,-2.3745,-2.3653,-2.356,-2.3523,-2.3545,-2.3501,-2.3436,-2.3414,-2.3282,-2.3105,-2.2949,-2.2814,-2.2655,-2.2457,-2.2459,-2.2357,-2.2053,-2.1959,-2.1953,-2.1807,-2.1626,-2.1626,-2.1674,-2.1674,-2.1777,-2.2116,-3.0429,-3.114,-3.1207,-3.1565,-3.1982,-3.1295,-3.1633,-3.2437,-3.1457,-3.1236,-3.1888,-3.2627,-3.2908,-3.3,-3.2942,-3.3273,-3.3526,-3.3663,-3.3841,-3.4091,-3.4378,-3.4167,-3.3733,-3.3172,-3.2393,-3.1539,-3.0586,-2.9918,-2.933,-2.9144,-2.8796,-2.819,-2.8065,-2.809,-2.7891,-2.796,-2.8045,-2.7358,-2.6935,-2.6445,-2.6032,-2.5749,-2.595,-2.595,-2.5826,-2.5712,-2.5749,-2.5731,-2.56,-2.5616,-2.5654,-2.5635,-2.5616,-2.5597,-2.5597,-2.5597,-2.5597,-2.5597,-2.5597,-2.5597,-2.5597,-2.5597,-2.5597,-2.5597,-2.5578,-2.5578,-2.5559,-2.554,-2.554,-2.554,-2.554,-2.5502,-2.5391,-2.5275,-2.5182,-2.5211,-2.5122,-2.5039,-2.4775,-2.4466,-2.465,-2.4875,-2.4535,-2.4275,-2.4088,-2.3876,-2.3704,-2.3523,-2.3392,-2.3312,-2.3201,-2.3105,-2.3024,-2.3068,-2.3127,-2.3105,-2.3029,-2.2859,-2.2678,-2.2449,-2.2263,-2.2217,-2.224,-2.2348,-2.2192,-2.189,-2.1732,-2.1715,-2.1515,-2.1264,-2.1337,-2.1375,-2.1467,-2.1621,-2.2065,-3.0008,-3.119,-3.119,-3.1275,-3.1357,-3.1022,-3.1079,-3.1223,-3.0854,-3.0688,-3.0854,-3.0975,-3.1391,-3.2194,-3.1953,-3.2199,-3.2722,-3.2724,-3.2695,-3.2823,-3.3246,-3.3331,-3.3079,-3.235,-3.1159,-3.0255,-2.9513,-2.8997,-2.8451,-2.8276,-2.811,-2.7692,-2.8338,-2.8236,-2.781,-2.7847,-2.7818,-2.6976,-2.6571,-2.6345,-2.5807,-2.5654,-2.5654,-2.5656,-2.5637,-2.5619,-2.5619,-2.5619,-2.5616,-2.5597,-2.5597,-2.5597,-2.5597,-2.5597,-2.5597,-2.5597,-2.5597,-2.5597,-2.5597,-2.5578,-2.5578,-2.5559,-2.5524,-2.5505,-2.5486,-2.5413,-2.5375,-2.5243,-2.5259,-2.5314,-2.5314,-2.5217,-2.5103,-2.4985,-2.4871,-2.5143,-2.5243,-2.5222,-2.513,-2.4995,-2.5004,-2.4737,-2.4139,-2.396,-2.3853,-2.3672,-2.3563,-2.3407,-2.3352,-2.3093,-2.2826,-2.2712,-2.2589,-2.2518,-2.2532,-2.2623,-2.2544,-2.2404,-2.2268,-2.2137,-2.2019,-2.1902,-2.1951,-2.2156,-2.2028,-2.1759,-2.1613,-2.1372,-2.1099,-2.0885,-2.1008,-2.1109,-2.124,-2.1534,-2.1973]},{"header":{"parameterUnit":"m.s-1","parameterCategory":1,"la1":31.0,"la2":29.5877,"lo1":-88.7671,"lo2":-86.6584,"dy":0.0162,"dx":0.0185,"nx":115,"ny":88,"refTime":"2024-02-20T06:00:00:Z","depth":0,"parameterNumber":3,"parameterNumberName":"V-component_of_WINDS"},"data":[0.0,0.0,0.0,0.0,0.0,0.0,0.0,0.0,0.0,0.0,0.0,0.0,0.0,0.0,0.0,0.0,0.0,0.0,0.0,0.0,0.0,0.0,0.0,0.0,0.0,0.0,0.0,0.0,0.0,0.0,0.0,0.0,0.0,0.0,0.0,0.0,0.0,0.0,0.0,0.0,0.0,0.0,0.0,0.0,0.0,0.0,0.0,0.0,0.0,0.0,0.0,0.0,0.0,0.0,0.0,0.0,0.0,0.0,0.0,0.0,0.0,0.0,0.0,0.0,0.0,0.0,0.0,0.0,0.0,0.0,0.0,0.0,0.0,0.0,0.0,0.0,0.0,0.0,0.0,0.0,0.0,0.0,0.0,0.0,0.0,0.0,0.0,0.0,0.0,0.0,0.0,0.0,0.0,0.0,0.0,0.0,0.0,0.0,0.0,0.0,0.0,0.0,0.0,0.0,0.0,0.0,0.0,0.0,0.0,0.0,0.0,0.0,0.0,0.0,0.0,0.0,0.0,0.0,0.0,0.0,0.0,0.0,0.0,0.0,0.0,0.0,0.0,0.0,0.0,0.0,0.0,0.0,0.0,0.0,0.0,0.0,0.0,0.0,0.0,0.0,0.0,0.0,0.0,0.0,0.0,0.0,0.0,0.0,0.0,0.0,0.0,0.0,0.0,0.0,0.0,0.0,0.0,0.0,0.0,0.0,0.0,0.0,0.0,0.0,0.0,0.0,0.0,0.0,0.0,0.0,0.0,0.0,0.0,0.0,0.0,0.0,0.0,0.0,0.0,0.0,0.0,0.0,0.0,0.0,0.0,0.0,0.0,0.0,0.0,0.0,0.0,0.0,0.0,0.0,0.0,0.0,0.0,0.0,0.0,0.0,0.0,0.0,0.0,0.0,0.0,0.0,0.0,0.0,0.0,0.0,0.0,0.0,0.0,0.0,0.0,0.0,0.0,0.0,0.0,0.0,0.0,0.0,0.0,0.0,0.0,0.0,0.0,0.0,0.0,0.0,0.0,0.0,0.0,0.0,0.0,0.0,0.0,0.0,0.0,0.0,0.0,0.0,0.0,0.0,0.0,0.0,0.0,0.0,0.0,0.0,0.0,0.0,0.0,0.0,0.0,0.0,0.0,0.0,0.0,0.0,0.0,0.0,0.0,0.0,0.0,0.0,0.0,0.0,0.0,0.0,0.0,0.0,0.0,0.0,0.0,0.0,0.0,0.0,0.0,0.0,0.0,0.0,0.0,0.0,0.0,0.0,0.0,0.0,0.0,0.0,0.0,0.0,0.0,0.0,0.0,0.0,0.0,0.0,0.0,0.0,0.0,0.0,0.0,0.0,0.0,0.0,0.0,0.0,0.0,0.0,0.0,0.0,0.0,0.0,0.0,0.0,0.0,0.0,0.0,0.0,0.0,0.0,0.0,0.0,0.0,0.0,0.0,0.0,0.0,0.0,0.0,0.0,0.0,0.0,0.0,0.0,0.0,0.0,0.0,0.0,0.0,0.0,0.0,0.0,0.0,0.0,0.0,0.0,0.0,0.0,0.0,0.0,0.0,0.0,0.0,0.0,0.0,0.0,0.0,0.0,0.0,0.0,0.0,0.0,0.0,0.0,0.0,0.0,0.0,0.0,0.0,0.0,0.0,0.0,0.0,0.0,0.0,0.0,0.0,0.0,0.0,0.0,0.0,0.0,0.0,0.0,0.0,0.0,0.0,0.0,0.0,0.0,0.0,0.0,0.0,0.0,0.0,0.0,0.0,0.0,0.0,0.0,0.0,0.0,0.0,0.0,0.0,0.0,0.0,0.0,0.0,0.0,0.0,0.0,0.0,0.0,0.0,0.0,0.0,0.0,0.0,0.0,0.0,0.0,0.0,0.0,0.0,0.0,0.0,0.0,0.0,0.0,0.0,0.0,0.0,0.0,0.0,0.0,0.0,0.0,0.0,0.0,0.0,0.0,0.0,0.0,0.0,0.0,0.0,0.0,0.0,0.0,0.0,0.0,0.0,0.0,0.0,0.0,0.0,0.0,0.0,0.0,0.0,0.0,0.0,0.0,0.0,0.0,0.0,0.0,0.0,0.0,0.0,0.0,0.0,0.0,0.0,0.0,0.0,0.0,0.0,0.0,0.0,0.0,0.0,0.0,0.0,0.0,0.0,0.0,0.0,0.0,0.0,0.0,0.0,0.0,0.0,0.0,0.0,0.0,0.0,0.0,0.0,0.0,0.0,0.0,0.0,0.0,0.0,0.0,0.0,0.0,0.0,0.0,0.0,0.0,0.0,0.0,0.0,0.0,0.0,0.0,0.0,0.0,0.0,0.0,0.0,0.0,0.0,0.0,0.0,0.0,0.0,0.0,0.0,0.0,0.0,0.0,0.0,0.0,0.0,0.0,0.0,0.0,0.0,0.0,0.0,0.0,0.0,0.0,0.0,0.0,0.0,0.0,0.0,0.0,0.0,0.0,0.0,0.0,0.0,0.0,0.0,0.0,0.0,0.0,0.0,0.0,0.0,0.0,0.0,0.0,0.0,0.0,0.0,0.0,0.0,0.0,0.0,0.0,0.0,0.0,0.0,0.0,0.0,0.0,0.0,0.0,0.0,0.0,0.0,0.0,0.0,0.0,0.0,0.0,0.0,0.0,0.0,0.0,0.0,0.0,0.0,0.0,0.0,0.0,0.0,0.0,0.0,0.0,0.0,0.0,0.0,0.0,0.0,0.0,0.0,0.0,0.0,0.0,0.0,0.0,0.0,0.0,0.0,0.0,0.0,0.0,0.0,0.0,0.0,0.0,0.0,0.0,0.0,0.0,0.0,0.0,0.0,0.0,0.0,0.0,0.0,0.0,0.0,0.0,0.0,0.0,0.0,0.0,0.0,0.0,0.0,0.0,0.0,0.0,0.0,0.0,0.0,0.0,0.0,0.0,0.0,0.0,0.0,0.0,0.0,0.0,0.0,0.0,0.0,0.0,0.0,0.0,0.0,0.0,0.0,0.0,0.0,0.0,0.0,0.0,0.0,0.0,0.0,0.0,0.0,0.0,0.0,0.0,0.0,0.0,0.0,0.0,0.0,0.0,0.0,0.0,0.0,0.0,0.0,0.0,0.0,0.0,0.0,0.0,0.0,0.0,0.0,0.0,0.0,0.0,0.0,0.0,0.0,0.0,0.0,0.0,0.0,0.0,0.0,0.0,0.0,0.0,0.0,0.0,0.0,0.0,0.0,0.0,0.0,0.0,0.0,0.0,0.0,0.0,0.0,0.0,0.0,0.0,0.0,0.0,0.0,0.0,0.0,0.0,0.0,0.0,0.0,0.0,0.0,0.0,0.0,0.0,0.0,0.0,0.0,0.0,0.0,0.0,0.0,0.0,0.0,0.0,0.0,0.0,0.0,0.0,0.0,0.0,0.0,0.0,0.0,0.0,0.0,0.0,0.0,0.0,0.0,0.0,0.0,0.0,0.0,0.0,0.0,0.0,0.0,0.0,0.0,0.0,0.0,0.0,0.0,0.0,0.0,0.0,0.0,0.0,0.0,0.0,0.0,0.0,0.0,0.0,0.0,0.0,0.0,0.0,0.0,0.0,0.0,0.0,0.0,0.0,0.0,0.0,0.0,0.0,0.0,0.0,0.0,0.0,0.0,0.0,0.0,0.0,0.0,0.0,0.0,0.0,0.0,0.0,0.0,0.0,0.0,0.0,0.0,0.0,0.0,0.0,0.0,0.0,0.0,0.0,0.0,0.0,0.0,0.0,0.0,0.0,0.0,0.0,0.0,0.0,0.0,0.0,0.0,0.0,0.0,0.0,0.0,0.0,0.0,0.0,0.0,0.0,0.0,0.0,0.0,0.0,0.0,0.0,0.0,0.0,0.0,0.0,0.0,0.0,0.0,0.0,0.0,0.0,0.0,0.0,0.0,0.0,0.0,0.0,0.0,0.0,0.0,0.0,0.0,0.0,0.0,0.0,0.0,0.0,0.0,0.0,0.0,0.0,0.0,0.0,0.0,0.0,0.0,0.0,0.0,0.0,0.0,0.0,0.0,0.0,0.0,0.0,0.0,0.0,0.0,0.0,0.0,0.0,0.0,0.0,0.0,0.0,0.0,0.0,0.0,0.0,0.0,0.0,0.0,0.0,0.0,0.0,0.0,0.0,0.0,0.0,0.0,0.0,0.0,0.0,0.0,0.0,0.0,0.0,0.0,0.0,0.0,0.0,0.0,0.0,0.0,0.0,0.0,0.0,0.0,0.0,0.0,0.0,0.0,0.0,0.0,0.0,-0.7928,0.0,0.0,0.0,0.0,0.0,0.0,0.0,0.0,0.0,0.0,0.0,0.0,0.0,0.0,0.0,0.0,0.0,0.0,0.0,0.0,0.0,0.0,0.0,0.0,0.0,0.0,0.0,0.0,0.0,0.0,0.0,0.0,0.0,0.0,0.0,0.0,0.0,0.0,0.0,0.0,0.0,0.0,0.0,0.0,0.0,0.0,0.0,0.0,0.0,0.0,0.0,0.0,0.0,0.0,0.0,0.0,0.0,0.0,0.0,0.0,0.0,0.0,0.0,0.0,0.0,0.0,0.0,0.0,0.0,0.0,0.0,0.0,0.0,0.0,0.0,0.0,0.0,0.0,0.0,0.0,0.0,0.0,0.0,0.0,0.0,0.0,0.0,0.0,0.0,0.0,0.0,0.0,0.0,0.0,0.0,0.0,0.0,0.0,0.0,0.0,0.0,0.0,0.0,0.0,0.0,0.0,0.0,0.0,0.0,0.0,-0.1729,-0.4676,-0.4776,-0.5782,-0.7932,0.0,0.0,0.0,0.0,0.0,0.0,0.0,0.0,0.0,0.0,0.0,0.0,0.0,0.0,0.0,0.0,0.0,0.0,0.0,0.0,0.0,0.0,0.0,0.0,0.0,0.0,0.0,0.0,0.0,0.0,0.0,0.0,0.0,0.0,0.0,0.0,0.0,0.0,0.0,0.0,0.0,0.0,0.0,0.0,0.0,0.0,0.0,0.0,0.0,0.0,0.0,0.0,0.0,0.0,0.0,0.0,0.0,0.0,0.0,0.0,0.0,0.0,0.0,0.0,0.0,0.0,0.0,0.0,0.0,0.0,0.0,0.0,0.0,0.0,0.0,0.0,0.0,0.0,0.0,0.0,0.0,0.0,0.0,0.0,0.0,0.0,0.0,0.0,0.0,0.0,0.0,0.0,0.0,0.0,0.0,0.0,0.0,0.0,0.0,0.0,0.0,0.0,0.0,0.0,0.0,0.0,0.0,0.0,0.0,0.0,0.0,0.0,-0.4739,-0.6032,-0.852,0.0,0.0,0.0,0.0,0.0,0.0,0.0,0.0,0.0,0.0,0.0,0.0,0.0,0.0,0.0,0.0,0.0,0.0,0.0,0.0,0.0,0.0,0.0,0.0,0.0,0.0,0.0,0.0,0.0,0.0,0.0,0.0,0.0,0.0,0.0,0.0,0.0,0.0,0.0,0.0,0.0,0.0,0.0,0.0,0.0,0.0,0.0,0.0,0.0,0.0,0.0,0.0,0.0,0.0,0.0,0.0,0.0,0.0,0.0,0.0,0.0,0.0,0.0,0.0,0.0,0.0,0.0,0.0,0.0,0.0,0.0,0.0,0.0,0.0,0.0,0.0,0.0,0.0,0.0,0.0,0.0,0.0,0.0,0.0,0.0,0.0,0.0,0.0,0.0,0.0,0.0,0.0,0.0,0.0,0.0,0.0,0.0,0.0,0.0,0.0,0.0,0.0,0.0,0.0,0.0,0.0,0.0,0.0,0.0,0.0,-0.1025,-0.3962,-0.4861,0.0,-1.0252,0.0,0.0,0.0,0.0,0.0,0.0,0.0,0.0,0.0,0.0,0.0,0.0,0.0,0.0,0.0,0.0,0.0,0.0,0.0,0.0,0.0,0.0,0.0,0.0,0.0,0.0,0.0,0.0,0.0,0.0,0.0,0.0,0.0,0.0,0.0,0.0,0.0,0.0,0.0,0.0,0.0,0.0,0.0,0.0,0.0,0.0,0.0,0.0,0.0,0.0,0.0,0.0,0.0,0.0,0.0,0.0,0.0,0.0,0.0,0.0,0.0,0.0,0.0,0.0,0.0,0.0,0.0,0.0,0.0,0.0,0.0,0.0,0.0,0.0,0.0,0.0,0.0,0.0,0.0,0.0,0.0,0.0,0.0,0.0,0.0,0.0,0.0,0.0,0.0,0.0,0.0,0.0,0.0,0.0,0.0,0.0,0.0,0.0,0.0,0.0,0.0,0.0,0.0,0.0,0.0,0.0,0.0,0.0,0.0,0.0,-0.0507,-0.4141,-0.5884,-0.8129,0.0,0.0,0.0,0.0,0.0,0.0,0.0,0.0,0.0,0.0,0.0,0.0,0.0,0.0,0.0,0.0,0.0,0.0,0.0,0.0,0.0,0.0,0.0,0.0,0.0,0.0,0.0,0.0,0.0,0.0,0.0,0.0,0.0,0.0,0.0,0.0,0.0,0.0,0.0,0.0,0.0,0.0,0.0,0.0,0.0,0.0,0.0,0.0,0.0,0.0,0.0,0.0,0.0,0.0,0.0,0.0,0.0,0.0,0.0,0.0,0.0,0.0,0.0,0.0,0.0,0.0,0.0,0.0,0.0,0.0,0.0,0.0,0.0,0.0,0.0,0.0,0.0,0.0,0.0,0.0,0.0,0.0,0.0,0.0,0.0,0.0,0.0,0.0,0.0,0.0,0.0,0.0,0.0,0.0,0.0,0.0,0.0,0.0,0.0,0.0,0.0,0.0,0.0,0.0,0.0,0.0,0.0,0.0,0.0,0.0,0.2081,-0.0051,-0.4236,-0.652,-0.8636,-1.0832,0.0,0.0,0.0,0.0,0.0,0.0,0.0,0.0,0.0,0.0,0.0,0.0,0.0,0.0,0.0,0.0,0.0,0.0,0.0,0.0,0.0,0.0,0.0,0.0,0.0,0.0,0.0,0.0,0.0,0.0,0.0,0.0,0.0,0.0,0.0,0.0,0.0,0.0,0.0,0.0,0.0,0.0,0.0,0.0,0.0,0.0,0.0,0.0,0.0,0.0,0.0,0.0,0.0,0.0,0.0,0.0,0.0,0.0,0.0,0.0,0.0,0.0,0.0,0.0,0.0,0.0,0.0,0.0,0.0,0.0,0.0,0.0,0.0,0.0,0.0,0.0,0.0,0.0,0.0,0.0,0.0,0.0,0.0,0.0,0.0,0.0,0.0,0.0,0.0,0.0,0.0,0.0,0.0,0.0,0.0,0.0,0.0,0.0,0.0,0.0,0.0,0.0,0.0,0.0,0.0,0.0,0.0,0.0,0.2841,0.2341,0.0053,-0.4327,-0.6264,-0.8134,0.0,0.0,0.0,0.0,0.0,0.0,0.0,0.0,0.0,0.0,0.0,0.0,0.0,0.0,0.0,0.0,0.0,0.0,0.0,0.0,0.0,0.0,0.0,0.0,0.0,0.0,0.0,0.0,0.0,0.0,0.0,0.0,0.0,0.0,0.0,0.0,0.0,0.0,0.0,0.0,0.0,0.0,0.0,0.0,0.0,0.0,0.0,0.0,0.0,0.0,0.0,0.0,0.0,0.0,0.0,0.0,0.0,0.0,0.0,0.0,0.0,0.0,0.0,0.0,0.0,0.0,0.0,0.0,0.0,0.0,0.0,0.0,0.0,0.0,0.0,0.0,0.0,0.0,0.0,0.0,0.0,0.0,0.0,0.0,0.0,0.0,0.0,0.0,0.0,0.0,0.0,0.0,0.0,0.0,0.0,0.0,0.0,0.0,0.0,0.0,0.0,0.0,0.0,0.0,0.0,0.0,0.0,0.0,0.0,0.1883,-0.0309,-0.232,-0.4039,-0.595,-0.7975,0.0,0.0,0.0,0.0,0.0,0.0,0.0,0.0,0.0,0.0,0.0,0.0,0.0,0.0,0.0,0.0,0.0,0.0,0.0,0.0,0.0,0.0,0.0,0.0,0.0,0.0,0.0,0.0,0.0,0.0,0.0,0.0,0.0,0.0,0.0,0.0,0.0,0.0,0.0,0.0,0.0,0.0,0.0,0.0,0.0,0.0,0.0,0.0,0.0,0.0,0.0,0.0,0.0,0.0,0.0,0.0,0.0,0.0,0.0,0.0,0.0,0.0,0.0,0.0,0.0,0.0,0.0,0.0,0.0,0.0,0.0,0.0,0.0,0.0,0.0,0.0,0.0,0.0,0.0,0.0,0.0,0.0,0.0,0.0,0.0,0.0,0.0,0.0,0.0,0.0,0.0,0.0,0.0,0.0,0.0,0.0,0.0,0.0,0.0,0.0,0.0,0.0,0.0,0.0,0.0,0.0,0.0,0.0,0.0,0.1334,0.0,-0.3162,-0.3631,-0.5313,-0.7335,0.0,0.0,0.0,0.0,0.0,0.0,0.0,0.0,0.0,0.0,0.0,0.0,0.0,0.0,0.0,0.0,0.0,0.0,0.0,0.0,0.0,0.0,0.0,0.0,0.0,0.0,0.0,0.0,0.0,0.0,0.0,0.0,0.0,0.0,0.0,0.0,0.0,0.0,0.0,0.0,0.0,0.0,0.0,0.0,0.0,0.0,0.0,0.0,0.0,0.0,0.0,0.0,0.0,0.0,0.0,0.0,0.0,0.0,0.0,0.0,0.0,0.0,0.0,0.0,0.0,0.0,0.0,0.0,0.0,0.0,0.0,0.0,0.0,0.0,0.0,0.0,0.0,0.0,0.0,0.0,0.0,0.0,0.0,0.0,0.0,0.0,0.0,0.0,0.0,0.0,0.0,0.0,0.0,0.0,0.0,0.0,0.0,0.0,0.0,0.0,0.0,0.0,0.0,0.0,0.0,0.0,0.0,0.0,0.1356,0.1324,-0.0659,-0.2269,-0.3214,-0.4499,-0.6363,0.0,0.0,0.0,0.0,0.0,0.0,0.0,0.0,0.0,0.0,0.0,0.0,0.0,0.0,0.0,0.0,0.0,0.0,0.0,0.0,0.0,0.0,0.0,0.0,0.0,0.0,0.0,0.0,0.0,0.0,0.0,0.0,0.0,0.0,0.0,0.0,0.0,0.0,0.0,0.0,0.0,0.0,0.0,0.0,0.0,0.0,0.0,0.0,0.0,0.0,0.0,0.0,0.0,0.0,0.0,0.0,0.0,0.0,0.0,0.0,0.0,0.0,0.0,0.0,0.0,0.0,0.0,0.0,0.0,0.0,0.0,0.0,0.0,0.0,0.0,0.0,0.0,0.0,0.0,0.0,0.0,0.0,0.0,0.0,0.0,0.0,0.0,0.0,0.0,0.0,0.0,0.0,0.0,0.0,0.0,0.0,0.0,0.0,0.0,0.0,0.0,0.0,0.0,0.0,0.0,0.0,0.0,0.0,0.0,0.0359,-0.1826,-0.318,-0.3648,-0.5175,-0.703,0.0,0.0,0.0,0.0,0.0,0.0,0.0,0.0,0.0,0.0,0.0,0.0,0.0,0.0,0.0,0.0,0.0,0.0,0.0,0.0,0.0,0.0,0.0,0.0,0.0,0.0,0.0,0.0,0.0,0.0,0.0,0.0,0.0,0.0,0.0,0.0,0.0,0.0,0.0,0.0,0.0,0.0,0.0,0.0,0.0,0.0,0.0,0.0,0.0,0.0,0.0,0.0,0.0,0.0,0.0,0.0,0.0,0.0,0.0,0.0,0.0,0.0,0.0,0.0,0.0,0.0,0.0,0.0,0.0,0.0,0.0,0.0,0.0,0.0,0.0,0.0,0.0,0.0,0.0,0.0,0.0,0.0,0.0,0.0,0.0,0.0,0.0,0.0,0.0,0.0,0.0,0.0,0.0,0.0,0.0,0.0,0.0,0.0,0.0,0.0,0.0,0.0,0.0,0.0,0.0,0.0,0.0,0.0,0.0,0.0,-0.2011,-0.3214,-0.3578,-0.5053,-0.6914,-0.9068,0.0,0.0,0.0,0.0,0.0,0.0,0.0,0.0,0.0,0.0,0.0,0.0,0.0,0.0,0.0,0.0,0.0,0.0,0.0,0.0,0.0,0.0,0.0,0.0,0.0,0.0,0.0,0.0,0.0,0.0,0.0,0.0,0.0,0.0,0.0,0.0,0.0,0.0,0.0,0.0,0.0,0.0,0.0,0.0,0.0,0.0,0.0,0.0,0.0,0.0,0.0,0.0,0.0,0.0,0.0,0.0,0.0,0.0,0.0,0.0,0.0,0.0,0.0,0.0,0.0,0.0,0.0,0.0,0.0,0.0,0.0,0.0,0.0,0.0,0.0,0.0,0.0,0.0,0.0,0.0,0.0,0.0,0.0,0.0,0.0,0.0,0.0,0.0,0.0,0.0,0.0,0.0,0.0,0.0,0.0,0.0,0.0,0.0,0.0,0.0,0.0,0.0,0.0,0.0,0.0,0.0,0.0,0.0,0.0,-0.1421,-0.252,-0.3255,-0.4498,-0.6315,0.0,0.0,0.0,0.0,0.0,0.0,0.0,0.0,0.0,0.0,0.0,0.0,0.0,0.0,0.0,0.0,0.0,0.0,0.0,0.0,0.0,0.0,0.0,0.0,0.0,0.0,0.0,0.0,0.0,0.0,0.0,0.0,0.0,0.0,0.0,0.0,0.0,0.0,0.0,0.0,0.0,0.0,0.0,0.0,0.0,0.0,0.0,0.0,0.0,0.0,0.0,0.0,0.0,0.0,0.0,0.0,0.0,0.0,0.0,0.0,0.0,0.0,0.0,0.0,0.0,0.0,0.0,0.0,0.0,0.0,0.0,0.0,0.0,0.0,0.0,0.0,0.0,0.0,0.0,0.0,0.0,0.0,0.0,0.0,0.0,0.0,0.0,0.0,0.0,0.0,0.0,0.0,0.0,0.0,0.0,0.0,0.0,0.0,0.0,0.0,0.0,0.0,0.0,0.0,0.0,0.0,0.0,0.0,0.0,0.0,-0.1889,-0.3178,-0.3663,-0.5496,-0.736,0.0,0.0,0.0,0.0,0.0,0.0,0.0,0.0,0.0,0.0,0.0,0.0,0.0,0.0,0.0,0.0,0.0,0.0,0.0,0.0,0.0,0.0,0.0,0.0,0.0,0.0,0.0,0.0,0.0,0.0,0.0,0.0,0.0,0.0,0.0,0.0,0.0,0.0,0.0,0.0,0.0,0.0,0.0,0.0,0.0,0.0,0.0,0.0,0.0,0.0,0.0,0.0,0.0,0.0,0.0,0.0,0.0,0.0,0.0,0.0,0.0,0.0,0.0,0.0,0.0,0.0,0.0,0.0,0.0,0.0,0.0,0.0,0.0,0.0,0.0,0.0,0.0,0.0,0.0,0.0,0.0,0.0,0.0,0.0,0.0,0.0,0.0,0.0,0.0,0.0,0.0,0.0,0.0,0.0,0.0,0.0,0.0,0.0,0.0,0.0,0.0,0.0,0.0,0.0,0.0,0.0,0.0,0.0,0.0,0.0,-0.2062,-0.3348,-0.3755,-0.576,-0.7641,0.0,0.0,0.0,0.0,0.0,0.0,0.0,0.0,0.0,0.0,0.0,0.0,0.0,0.0,0.0,0.0,0.0,0.0,0.0,0.0,0.0,0.0,0.0,0.0,0.0,0.0,0.0,0.0,0.0,0.0,0.0,0.0,0.0,0.0,0.0,0.0,0.0,0.0,0.0,0.0,0.0,0.0,0.0,0.0,0.0,0.0,0.0,0.0,0.0,0.0,0.0,0.0,0.0,0.0,0.0,0.0,0.0,0.0,0.0,0.0,0.0,0.0,0.0,0.0,0.0,0.0,0.0,0.0,0.0,0.0,0.0,0.0,0.0,0.0,0.0,0.0,0.0,0.0,0.0,0.0,0.0,0.0,0.0,0.0,0.0,0.0,0.0,0.0,0.0,0.0,0.0,0.0,0.0,0.0,0.0,0.0,0.0,0.0,0.0,0.0,0.0,0.0,0.0,0.0,0.0,0.0,0.0,0.0,0.0,0.0,-0.1878,-0.3202,-0.3838,-0.5596,-0.7432,0.0,0.0,0.0,0.0,0.0,0.0,0.0,0.0,0.0,0.0,0.0,0.0,0.0,0.0,0.0,0.0,0.0,0.0,0.0,0.0,0.0,0.0,0.0,0.0,0.0,0.0,0.0,0.0,0.0,0.0,0.0,0.0,0.0,0.0,0.0,0.0,0.0,0.0,0.0,0.0,0.0,0.0,0.0,0.0,0.0,0.0,0.0,0.0,0.0,0.0,0.0,0.0,0.0,0.0,0.0,0.0,0.0,0.0,0.0,0.0,0.0,0.0,0.0,0.0,0.0,0.0,0.0,0.0,0.0,0.0,0.0,0.0,0.0,0.0,0.0,0.0,0.0,0.0,0.0,0.0,0.0,0.0,0.0,0.0,0.0,0.0,0.0,0.0,0.0,0.0,0.0,0.0,0.0,0.0,0.0,0.0,0.0,0.0,0.0,0.0,0.0,0.0,0.0,0.0,0.0,0.0,0.0,0.0,0.0,0.0,-0.1012,-0.2266,-0.3841,-0.5422,-0.7261,0.0,0.0,0.0,0.0,0.0,0.0,0.0,0.0,0.0,0.0,0.0,0.0,0.0,0.0,0.0,0.0,0.0,0.0,0.0,0.0,0.0,0.0,0.0,0.0,0.0,0.0,0.0,0.0,0.0,0.0,0.0,0.0,0.0,0.0,0.0,0.0,0.0,0.0,0.0,0.0,0.0,0.0,0.0,0.0,0.0,0.0,0.0,0.0,-0.3789,0.0,0.0,0.0,0.0,0.0,0.0,0.0,0.0,0.0,0.0,0.0,0.0,0.0,0.0,0.0,0.0,0.0,0.0,0.0,0.0,0.0,0.0,0.0,0.0,0.0,0.0,0.0,0.0,0.0,0.0,0.0,0.0,0.0,0.0,0.0,0.0,0.0,0.0,0.0,0.0,0.0,0.0,0.0,0.0,0.0,0.0,0.0,0.0,0.0,0.0,0.0,0.0,0.0,0.0,0.0,0.0,0.0,0.0,0.0,0.0,0.0,-0.0677,-0.1944,-0.3752,-0.4772,-0.6403,0.0,0.0,0.0,0.0,0.0,0.0,0.0,0.0,0.0,0.0,0.0,0.0,0.0,0.0,0.0,0.0,0.0,0.0,0.0,0.0,0.0,0.0,0.0,0.0,0.0,0.0,0.0,0.0,0.0,0.0,0.0,0.0,0.0,0.0,0.0,0.0,0.0,0.0,0.0,0.0,0.0,0.0,0.0,0.0,0.0,0.0,0.0,0.0,0.0,0.0,0.0,0.0,0.0,0.0,0.0,0.0,0.0,0.0,0.0,0.0,0.0,0.0,0.0,0.0,0.0,0.0,0.0,0.0,0.0,0.0,0.0,0.0,0.0,0.0,0.0,0.0,0.0,0.0,0.0,0.0,0.0,0.0,0.0,0.0,0.0,0.0,0.0,0.0,0.0,0.0,0.0,0.0,0.0,0.0,0.0,0.0,0.0,0.0,0.0,0.0,0.0,0.0,0.0,0.0,0.0,0.0,0.0,0.0105,0.0,0.0,-0.0533,-0.1741,-0.3591,-0.3893,-0.5235,-0.7706,0.0,0.0,0.0,0.0,0.0,0.0,0.0,0.0,0.0,0.0,0.0,0.0,0.0,0.0,0.0,0.0,0.0,0.0,0.0,0.0,0.0,0.0,0.0,0.0,0.0,0.0,0.0,0.0,0.0,0.0,0.0,0.0,0.0,0.0,0.0,0.0,0.0,0.0,0.662,0.4558,0.0,0.0,0.0,0.0,0.0,0.0,0.0,0.0,-0.4146,0.0,0.0,0.0,0.0,0.0,0.0,0.0,0.0,0.0,0.0,0.0,0.0,0.0,0.0,0.0,0.0,0.0,0.0,0.0,0.0,0.0,0.0,0.0,0.0,0.0,0.0,0.0,0.0,0.0,0.0,0.0,0.0,0.0,0.0,0.0,0.0,0.0,0.0,0.0,0.0,0.0,0.0,0.0,0.0,0.0,0.0,0.0,0.0,0.0,0.0,0.0,0.0,0.0,0.0,0.0,0.0,0.1303,0.0458,0.0,0.0,-0.0117,-0.1063,-0.2945,-0.3253,-0.4241,-0.6073,0.0,0.0,0.0,0.0,0.0,0.0,0.0,0.0,0.0,0.0,0.0,0.0,0.0,0.0,0.0,0.0,0.0,0.0,0.0,0.0,0.0,0.0,0.0,0.0,0.0,0.0,0.0,0.0,0.0,0.0,0.0,0.0,0.0,0.0,0.0,0.0,0.0,0.0,0.0,0.4477,0.2939,0.0,0.0,0.0,0.0,0.0,0.0,0.0,0.0,-0.4606,0.0,0.0,0.0,0.0,0.0,0.0,0.0,0.0,0.0,0.0,0.0,0.0,0.0,0.0,0.0,0.0,0.0,0.0,0.0,0.0,0.0,0.0,0.0,0.0,0.0,0.0,0.0,0.0,0.0,0.0,0.0,0.0,0.0,0.0,0.0,0.0,0.0,0.0,0.0,0.0,0.0,0.0,0.0,0.0,0.0,0.0,0.0,0.0,0.0,0.0,0.0,0.0,0.0,0.0,0.0,0.0694,0.0256,0.0,0.0,0.0,-0.0911,-0.2689,-0.2521,-0.3379,0.0,0.0,0.0,0.0,0.0,0.0,0.0,0.0,0.0,0.0,0.0,0.0,0.0,0.0,0.0,0.0,0.0,0.0,0.0,0.0,0.0,0.0,0.0,0.0,0.0,0.0,0.0,0.0,0.0,0.0,0.0,0.0,0.0,0.0,0.0,0.0,0.0,0.0,0.0,0.0,0.4214,0.2986,0.2381,0.0,0.0,0.0,0.0,0.0,0.0,-0.3381,-0.4204,0.0,0.0,0.0,0.0,0.0,0.0,0.0,0.0,0.0,0.0,0.0,0.0,0.0,0.0,0.0,0.0,0.0,0.0,0.0,0.0,0.0,0.0,0.0,0.0,0.0,0.0,0.0,0.0,0.0,0.0,0.0,0.0,0.0,0.0,0.0,0.0,0.0,0.0,0.0,0.0,0.0,0.0,0.0,0.0,0.0,0.0,0.0,0.0,0.0,0.0,0.0,0.0,0.0,0.0,0.0,0.0,0.0,0.0,0.0,0.0,-0.0771,-0.2281,-0.1856,-0.2705,0.0,0.0,0.0,0.0,0.0,0.0,0.0,0.0,0.0,0.0,0.0,0.0,0.0,0.0,0.0,0.0,0.0,0.0,0.0,0.0,0.0,0.0,0.0,0.0,0.0,0.0,0.0,0.0,0.0,0.0,0.0,0.0,0.0,0.0,0.0,0.0,0.0,0.0,0.0,0.0,0.0,0.2932,0.2344,0.0953,0.0,0.0,0.0,0.0,-0.2109,-0.3084,0.0,0.0,0.0,0.0,0.0,0.0,0.0,0.0,0.0,0.0,0.0,0.0,0.0,0.0,0.0,0.0,0.0,0.0,0.0,0.0,0.0,0.0,0.0,0.0,0.0,0.0,0.0,0.0,0.0,0.0,0.0,0.0,0.0,0.0,0.0,0.0,0.0,0.0,0.0,0.0,0.0,0.0,0.0,0.0,0.0,0.0,0.0,0.0,0.0,0.0,0.0,0.0,0.0,0.0,0.0,0.0,0.0,0.0,0.0,0.0,0.0,-0.0383,-0.1095,-0.1452,-0.2293,0.0,0.0,0.0,0.0,0.0,0.0,0.0,0.0,0.0,0.0,0.0,0.0,0.0,0.0,0.0,0.0,0.0,0.0,0.0,0.0,0.0,0.0,0.0,0.0,0.0,0.0,0.0,0.0,0.0,0.0,0.0,0.0,0.0,0.0,0.0,0.0,0.0,0.0,0.0,0.0,0.0,0.2899,0.2142,0.0851,0.0,0.0,0.0,-0.1412,-0.2762,-0.3507,0.0,0.0,0.0,0.0,0.0,0.0,0.0,0.0,0.0,0.0,0.0,0.0,0.0,0.0,0.0,0.0,0.0,0.0,0.0,0.0,0.0,0.0,0.0,0.0,0.0,0.0,0.0,0.0,0.0,0.0,0.0,0.0,0.0,0.0,0.0,0.0,0.0,0.0,0.0,0.0,0.0,0.0,0.0,0.0,0.0,0.0,0.0,0.0,0.0,0.0,0.0,0.0,0.0,0.0,0.0,0.0396,0.0416,0.0294,0.0206,0.0213,0.0053,-0.0267,-0.0861,-0.0751,-0.1291,0.0,0.0,0.0,0.0,0.0,0.0,0.0,0.0,0.0,0.0,0.0,0.0,0.0,0.0,0.0,0.0,0.0,0.0,0.0,0.0,0.0,0.0,0.0,0.0,0.0,0.0,0.0,0.0,0.0,0.0,0.0,0.0,0.0,0.0,0.0,0.0,0.0,0.0,0.0,0.0,0.0,0.0,0.1904,0.0812,0.0,0.0,0.0,-0.1053,-0.1272,0.0,0.0,0.0,0.0,0.0,0.0,0.0,0.0,0.0,0.0,0.0,0.0,0.0,0.0,0.0,0.0,0.0,0.0,0.0,0.0,0.0,0.0,0.0,0.0,0.0,0.0,0.0,0.0,0.0,0.0,0.0,0.0,0.0,0.0,0.0,0.0,0.0,0.0,0.0,0.0,0.0,0.0,0.0,0.0,0.0,0.0,0.0,0.0,0.0,0.0,0.0,0.0,0.0,0.0,0.0,0.0,0.0,0.0688,0.0587,0.0512,0.0473,0.0313,0.0,-0.0472,-0.0049,0.0,0.0,0.0,0.0,0.0,0.0,0.0,0.0,0.0,0.0,0.0,0.0,0.0,0.0,0.0,0.0,0.0,0.0,0.0,0.0,0.0,0.0,0.0,0.0,0.0,0.0,0.0,0.0,0.0,0.0,0.0,0.0,0.0,0.0,0.0,0.0,0.0,0.0,0.0,0.0,0.0,0.0,0.1579,0.1695,0.0709,0.0,0.0,0.0,-0.0623,-0.0281,-0.2081,-0.3049,0.0,0.0,0.0,0.0,0.0,0.0,0.0,0.0,0.0,0.0,0.0,0.0,0.0,0.0,0.0,0.0,0.0,0.0,0.0,0.0,0.0,0.0,0.0,0.0,0.0,0.0,0.0,0.0,0.0,0.0,0.0,0.0,0.0,0.0,0.0,0.0,0.0,0.0,0.0,0.0,0.0,0.0,0.0,0.0,0.0,0.0,0.0,0.0,0.0,0.0,0.0,0.0,0.0,0.0,0.0,0.072,0.0729,0.0758,0.0761,0.0773,0.0721,0.071,0.073,0.028,0.0,0.0,0.0,0.0,0.0,0.0,0.0,0.0,0.0,0.0,0.0,0.0,0.0,0.0,0.0,0.0,0.0,0.0,0.0,0.0,0.0,0.0,0.0,0.0,0.0,0.0,0.0,0.0,0.0,0.0,0.0,0.0,0.0,0.0,0.0,0.0,0.0,0.0,0.0,0.0,0.0,0.1437,0.1437,0.0598,0.0,0.0,0.0,-0.0236,-0.0837,-0.1926,-0.2582,-0.2387,0.0,0.0,0.0,0.0,0.0,0.0,0.0,0.0,0.0,0.0,0.0,0.0,0.0,0.0,0.0,0.0,0.0,0.0,0.0,0.0,0.0,0.0,0.0,0.0,0.0,0.0,0.0,0.0,0.0,0.0,0.0,0.0,0.0,0.0,0.0,0.0,0.0,0.0,0.0,0.0,0.0,0.0,0.0,0.0,0.0,0.0,0.0,0.0,0.0,0.0,0.0,0.0,0.0,0.1222,0.1143,0.1225,0.1177,0.1043,0.091,0.0814,0.0808,0.0779,0.0651,0.0,0.0,0.0,0.0,0.0,0.0,0.0,0.0,0.0,0.0,0.0,0.0,0.0,0.0,0.0,0.0,0.0,0.0,0.0,0.0,0.0,0.0,0.0,0.0,0.0,0.0,0.0,0.0,0.0,0.0228,0.0746,0.0,0.0,0.0,0.0,0.0,0.0,0.0,0.0,0.0,0.0,0.0566,0.053,0.0241,0.0,0.0,0.0,-0.006,-0.0362,-0.1204,-0.1582,-0.1026,-0.1837,0.0,0.0,0.0,0.0,0.0,0.0,0.0,0.0,0.0,0.0,0.0,0.0,0.0,0.0,0.0,0.0,0.0,0.0,0.0,0.0,0.0,0.0,0.0,0.0,0.0,0.0,0.0,0.0,0.0,0.0,0.0,0.0,0.0,0.0,0.0,0.0,0.0,0.0,0.0,0.0,0.0,0.0,0.0,0.0,0.0,0.0,0.0,0.0,0.0,0.0,0.0,0.0,0.1664,0.139,0.1618,0.1589,0.1325,0.115,0.1058,0.1051,0.1025,0.1074,0.0,0.0,0.0,0.0,0.0,0.0,0.0,0.0,0.0,0.0,0.0,0.0,0.0,0.0,0.0,0.0,0.0,0.0,0.0,0.0,0.0,0.0,0.0,0.0,0.0,0.0,0.0,0.0,0.0232,0.074,0.1568,0.0,0.0,0.0,0.0,0.0,0.0,0.0,0.0,0.0,0.0,0.0336,0.0469,0.0296,0.0239,0.0423,0.0236,0.0,0.0,-0.069,-0.0947,-0.0106,0.0,0.0,0.0,0.0,0.0,0.0,0.0,0.0,0.0,0.0,0.0,0.0,0.0,0.0,0.0,0.0,0.0,0.0,0.0,0.0,0.0,0.0,0.0,0.0,0.0,0.0,0.0,0.0,0.0,0.0,0.2427,0.0,0.0,0.0,0.0,0.0,0.0,0.0,0.0,0.0,0.0,0.0,0.0,0.0,0.0,0.0,0.0,0.0,0.0,0.0,0.0,0.0,0.0,0.1787,0.1389,0.1895,0.1973,0.1619,0.1551,0.1552,0.1575,0.157,0.1513,0.1393,0.0,0.0,0.0,0.0,0.0,0.0,0.0,0.0,0.0,0.0,0.0,0.0,0.0,0.0,0.0,0.0,0.0,0.0,0.0,0.0,0.0,0.0,0.0,0.0,0.0,0.0,0.0,0.0773,0.1566,0.0,0.0,0.0,0.0,0.0,0.0,0.0,0.0,0.0,0.0,0.1101,0.1064,0.1514,0.0967,0.0805,0.1438,0.0709,0.0,0.0,-0.0548,-0.0753,0.0,0.0,0.0,0.0,0.0,0.0,0.0,0.0,0.0,0.0,0.0,0.0,0.0,0.0,0.0,0.0,0.0,0.0,0.0,0.0,0.0,0.0,0.0,0.0,0.0,0.0,0.0,0.2683,0.2465,0.0,0.0,0.0,0.0,0.0,0.0,0.0,0.0,0.0,0.0,0.0,0.5923,0.6053,0.0,0.0,0.0,0.0,0.0,0.0,0.0,0.0,0.0,0.0,0.0,0.0,0.1652,0.1364,0.1723,0.1794,0.1541,0.157,0.1591,0.1601,0.1562,0.1475,0.1337,0.0,0.0,0.0,0.0,0.0,0.0,0.0,0.0,0.0,0.0,0.0,0.0,0.0,0.0,0.0,0.0,0.0,0.0,0.0,0.0,0.0,0.0,0.0,0.0,0.0,0.0865,0.0,0.0,0.0,0.0,0.0,0.0,0.0,0.0,0.0,0.0,0.0,0.2722,0.1782,0.2005,0.2287,0.2477,0.223,0.2036,0.0,0.0,0.0,0.0,0.0,0.0,0.0,0.0,0.0,0.0,0.0,0.0,0.0,0.0,-0.061,-0.0739,-0.0881,-0.0993,-0.0964,0.0,0.0,0.0,0.0,0.0,0.0,0.0,0.0,0.0,0.0,0.0,0.0,0.0,0.0,0.3818,0.0,0.3796,0.0,0.0,0.0,0.0,0.0,0.0,0.0,0.0,0.7109,0.7099,0.7054,0.7197,0.7168,0.0,0.6616,0.5884,0.0,0.0,0.0,0.0,0.0,0.0,0.0,0.0,0.2229,0.171,0.2174,0.2173,0.1793,0.1912,0.2046,0.2097,0.2072,0.1961,0.1858,0.16,0.1535,0.0,0.0,0.0,0.0,0.0,0.0,0.0,0.0,0.0,0.0,0.0,0.0,0.0,0.0,0.0,0.0,0.0,0.0,0.0,0.0,0.0,0.0,0.0,0.1723,0.0,0.0,0.0,0.0,0.0,0.0,0.0,0.0,0.0,0.3438,0.3307,0.3011,0.2406,0.2637,0.298,0.3483,0.0,0.0,0.0,0.0,0.0,0.0,0.0,0.2016,0.2722,0.2037,0.134,0.133,0.0641,0.0055,0.0054,0.0,0.0,-0.0446,-0.0664,-0.0791,-0.0897,-0.1144,-0.1341,-0.1415,-0.1421,-0.1421,0.0,0.0,0.0,0.0,0.0,0.0,0.0,0.0,0.4942,0.4826,0.0,0.4856,0.0,0.0,0.0,0.0,0.0,0.7227,0.0,0.0,0.7294,0.7168,0.704,0.7033,0.6969,0.6844,0.7217,0.7183,0.6767,0.4709,0.0,0.0,0.0,0.0,0.0,0.0,0.3487,0.2493,0.3131,0.3127,0.2313,0.2636,0.2921,0.3124,0.3063,0.3015,0.2949,0.2353,0.221,0.2592,0.2529,0.0,0.0,0.0,0.0,0.0,0.0,0.0,0.0,0.0,0.0,0.0,0.0,0.0,0.0,0.0,0.0,0.0,0.0,0.0,0.0,0.2932,0.0,0.0,0.0,0.0,0.0,0.0,0.0,0.0,0.0,0.0,0.4262,0.387,0.349,0.3438,0.0,0.0,0.0,0.0,0.2932,0.4413,0.3748,0.3082,0.3147,0.2561,0.2116,0.2169,0.0,0.0,0.0962,0.0908,0.0852,0.0888,0.0857,0.0659,-0.0167,-0.0312,-0.0398,-0.0718,-0.0928,-0.1172,-0.1426,-0.1481,-0.148,0.8818,0.0,0.0,0.0,0.0,0.7171,0.7108,0.6873,0.6571,0.6241,0.5962,0.6264,0.0,0.0,0.0,0.0,0.0,0.0,0.7531,0.7699,0.7892,0.7871,0.7727,0.7727,0.7651,0.7503,0.7557,0.725,0.6748,0.6028,0.5339,0.462,0.0,0.0,0.0,0.0,0.3771,0.37,0.3957,0.3976,0.369,0.3829,0.3896,0.3942,0.3842,0.3796,0.3803,0.321,0.2953,0.3135,0.2746,0.0,0.0,0.0,0.0,0.0,0.0,0.0,0.0,0.0,0.0,0.0,0.0,0.0,0.0,0.0,0.0,0.0,0.0,0.0,0.3784,0.2999,0.2776,0.0,0.0,0.0,0.0,0.0,0.0,0.0,0.0,0.0,0.457,0.4441,0.4362,0.0,0.0,0.4997,0.5386,0.4608,0.4016,0.3981,0.3814,0.0,0.308,0.2598,0.2582,0.332,0.261,0.198,0.197,0.1359,0.0825,0.081,0.0814,0.0764,0.0487,0.0159,-0.0104,-0.0259,-0.0555,-0.0939,-0.1191,-0.1292,-0.1341,1.0907,1.0024,0.9287,0.8757,0.8418,0.8117,0.8024,0.8029,0.7787,0.7598,0.7449,0.7653,0.7437,0.685,0.7164,0.0,0.0,0.0,0.7733,0.7864,0.8153,0.8191,0.7995,0.7988,0.7911,0.7807,0.7665,0.7379,0.6953,0.6757,0.6408,0.5868,0.0,0.0,0.4977,0.478,0.4639,0.455,0.4614,0.4565,0.444,0.4614,0.4768,0.477,0.4665,0.4631,0.4619,0.4118,0.3924,0.4057,0.3782,0.353,0.0,0.0,0.0,0.0,0.0,0.0,0.0,0.0,0.0,0.0,0.0,0.5302,0.0,0.0,0.0,0.0,0.5195,0.4964,0.445,0.3832,0.0,0.0,0.0,0.0,0.0,0.0,0.0,0.5301,0.5064,0.4947,0.5091,0.5139,0.5118,0.491,0.5218,0.5575,0.5899,0.0,0.4831,0.4742,0.4796,0.4714,0.434,0.3895,0.3578,0.3544,0.3039,0.2445,0.2129,0.1572,0.1204,0.1139,0.1136,0.1131,0.1165,0.0792,0.0421,0.0208,-0.0102,-0.0404,-0.0657,-0.0859,-0.1109,1.2252,1.1801,1.0027,0.9368,0.9369,0.8667,0.8422,0.8542,0.8681,0.8705,0.8775,0.8904,0.8704,0.8301,0.7855,0.0,0.7821,0.797,0.8035,0.7998,0.8197,0.8187,0.7992,0.7965,0.788,0.7794,0.7638,0.7492,0.7388,0.7078,0.6889,0.6866,0.6392,0.6255,0.6448,0.6179,0.5729,0.5146,0.5186,0.5081,0.4772,0.5259,0.5534,0.558,0.5526,0.5472,0.5418,0.5067,0.4979,0.5162,0.5235,0.5007,0.4455,0.0,0.0,0.0,0.0,0.0,0.0,0.0,0.0,0.0,0.0,0.0,0.0,0.0,0.0,0.0,0.5393,0.0,0.5293,0.5146,0.0,0.0,0.0,0.5284,0.5399,0.5421,0.5424,0.5385,0.0,0.0,0.5688,0.5839,0.5751,0.5338,0.5192,0.5472,0.6206,0.5577,0.5396,0.5976,0.6092,0.6085,0.5784,0.5348,0.4541,0.3356,0.2965,0.2749,0.2168,0.1959,0.1909,0.1954,0.1905,0.1892,0.1863,0.1698,0.1289,0.0874,0.0561,0.0353,0.005,-0.0352,-0.0701,1.2664,1.2455,1.1448,1.0444,0.9556,0.936,0.9139,0.88,0.8832,0.9033,0.9391,0.9264,0.9017,0.8652,0.8325,0.8197,0.8115,0.8266,0.8187,0.8002,0.8201,0.8187,0.7982,0.7762,0.7682,0.7634,0.7377,0.7234,0.7193,0.7082,0.693,0.6763,0.6632,0.6542,0.6471,0.6168,0.6048,0.6147,0.6151,0.6181,0.6191,0.6357,0.6418,0.6418,0.6312,0.6289,0.636,0.5745,0.5514,0.5666,0.5323,0.512,0.5222,0.5571,0.0,0.0,0.0,0.0,0.0,0.0,0.0,0.0,0.0,0.5689,0.54,0.0,0.607,0.0,0.5607,0.552,0.5459,0.5265,0.0,0.0,0.5366,0.5336,0.541,0.545,0.5464,0.5467,0.5572,0.5733,0.5804,0.5885,0.5955,0.6025,0.5917,0.5939,0.6132,0.5554,0.5178,0.537,0.5062,0.463,0.4694,0.4448,0.4215,0.3827,0.373,0.3678,0.3474,0.3474,0.3459,0.3362,0.335,0.3324,0.3224,0.3159,0.3063,0.2824,0.1735,0.0654,0.0347,0.0198,0.0,1.2677,1.2748,1.2202,1.1398,1.0488,1.0217,0.9892,0.9533,0.9455,0.953,0.9766,0.9557,0.9296,0.8977,0.8818,0.8631,0.8514,0.8617,0.8564,0.8294,0.8346,0.8201,0.7935,0.7723,0.7563,0.7492,0.7322,0.7207,0.7095,0.7031,0.6916,0.68,0.6668,0.6525,0.6412,0.6078,0.6044,0.6271,0.6274,0.638,0.6586,0.6576,0.6532,0.659,0.639,0.6315,0.636,0.6012,0.5998,0.6419,0.6251,0.6329,0.671,0.6868,0.6757,0.0,0.0,0.0,0.0,0.0,0.0,0.0,0.0,0.0,0.0,0.0,0.6712,0.6196,0.5889,0.5704,0.5543,0.5385,0.5356,0.556,0.541,0.5413,0.5732,0.5595,0.5505,0.5508,0.5701,0.5866,0.588,0.5975,0.6184,0.6422,0.6328,0.6219,0.623,0.5916,0.5665,0.5664,0.5345,0.5143,0.509,0.5051,0.4876,0.4577,0.4447,0.4275,0.3931,0.3882,0.3866,0.3829,0.3819,0.3808,0.372,0.371,0.3701,0.349,0.2771,0.1937,0.1454,0.092,0.0434,1.2659,1.2817,1.2681,1.2327,1.1782,1.121,1.0714,1.0319,1.0112,1.0018,0.9967,0.9774,0.9532,0.9252,0.9187,0.9067,0.8889,0.9009,0.8912,0.8605,0.8447,0.8208,0.7969,0.7697,0.7521,0.7437,0.7413,0.7279,0.7129,0.7003,0.6921,0.6873,0.6654,0.6431,0.6246,0.5945,0.584,0.5936,0.5973,0.6162,0.6474,0.6323,0.631,0.6436,0.6146,0.5966,0.5963,0.6074,0.6441,0.7143,0.7401,0.7798,0.8304,0.8114,0.7913,0.0,0.7601,0.0,0.0,0.0,0.0,0.0,0.0,0.0,0.0,0.7523,0.7322,0.67,0.6251,0.5909,0.5736,0.5542,0.5553,0.5836,0.5612,0.5624,0.6138,0.5869,0.5655,0.5615,0.5967,0.6118,0.5981,0.6166,0.6406,0.6533,0.6493,0.644,0.6404,0.6407,0.6372,0.644,0.644,0.6322,0.6314,0.635,0.6098,0.5453,0.5255,0.4899,0.4336,0.4191,0.4136,0.4171,0.4214,0.4116,0.4015,0.3998,0.3919,0.3899,0.3655,0.3304,0.2708,0.1877,0.1076,1.3177,1.3212,1.3704,1.3521,1.2975,1.2685,1.175,1.0411,1.0325,1.0148,0.9934,0.9898,0.9722,0.9537,0.9512,0.9363,0.9126,0.9071,0.8844,0.8583,0.8305,0.8184,0.8182,0.7755,0.7574,0.7716,0.737,0.7229,0.729,0.7257,0.7108,0.6892,0.6674,0.6362,0.6012,0.0,0.0,0.0,0.5908,0.6118,0.632,0.603,0.5959,0.6101,0.5939,0.0,0.588,0.6421,0.6781,0.6961,0.7529,0.0,0.0,0.0,0.0,0.0,0.0,0.0,0.0,0.0,0.0,0.0,0.8411,0.7838,0.6761,0.6728,0.6806,0.6846,0.6598,0.6496,0.6503,0.6311,0.6247,0.6429,0.6407,0.6392,0.6527,0.645,0.6408,0.6405,0.6473,0.6437,0.6289,0.6379,0.6436,0.6488,0.6494,0.6544,0.6551,0.6661,0.6727,0.6724,0.6697,0.673,0.6727,0.6703,0.6582,0.6493,0.6484,0.6305,0.6103,0.6109,0.6125,0.5996,0.5937,0.5718,0.5628,0.5406,0.5083,0.5092,0.459,0.3959,0.3299,0.3006,0.2591,1.3743,0.0,1.4062,1.3944,0.0,1.3017,1.2253,1.1304,1.0794,1.0266,0.9758,0.9758,0.9705,0.9628,0.9624,0.9481,0.9295,0.9252,0.9021,0.8664,0.841,0.8284,0.8227,0.776,0.7603,0.7678,0.7392,0.7279,0.7281,0.7237,0.7155,0.6984,0.6716,0.6477,0.6241,0.6051,0.587,0.5694,0.5878,0.6105,0.6282,0.6146,0.6105,0.6135,0.5996,0.0,0.0,0.0,0.0,0.0,0.0,0.0,0.0,0.9801,0.0,0.9556,0.9693,0.9597,0.9176,0.916,0.9143,0.913,0.9013,0.8559,0.7703,0.7166,0.7197,0.7846,0.7403,0.7134,0.7368,0.7219,0.7061,0.7063,0.6875,0.6739,0.6773,0.6627,0.6505,0.6512,0.6692,0.6726,0.6495,0.6633,0.6748,0.6733,0.6764,0.6823,0.69,0.6858,0.6794,0.6797,0.6797,0.677,0.67,0.663,0.6566,0.6515,0.6445,0.6405,0.6396,0.6396,0.6372,0.6308,0.6209,0.6141,0.6042,0.5883,0.574,0.5624,0.5191,0.472,0.4289,0.3739,0.3151,1.4439,1.4326,1.4389,1.4258,1.3872,1.3153,1.2567,1.2034,0.0,0.0,0.0,0.9567,0.9563,0.9539,0.9518,0.9482,0.9355,0.929,0.9102,0.873,0.8535,0.834,0.8147,0.7792,0.7628,0.7636,0.7428,0.7293,0.7274,0.7202,0.7119,0.7043,0.6779,0.6607,0.6537,0.6381,0.6168,0.5914,0.6002,0.6139,0.6325,0.6423,0.6499,0.6524,0.6439,0.6541,0.6873,0.7233,0.7937,0.9057,0.9574,1.0096,1.0641,1.0719,1.0647,1.0448,1.0436,1.0308,1.0047,1.0033,0.9849,0.948,0.9339,0.922,0.897,0.811,0.7978,0.896,0.828,0.7936,0.8199,0.8122,0.7936,0.771,0.7442,0.7235,0.7166,0.6907,0.6748,0.6643,0.6892,0.6969,0.678,0.6893,0.7067,0.709,0.7047,0.7109,0.7219,0.7014,0.6828,0.6828,0.6806,0.6767,0.6635,0.6571,0.6409,0.6368,0.6253,0.6124,0.6117,0.6117,0.6117,0.6196,0.6076,0.6047,0.604,0.5978,0.5911,0.5777,0.5532,0.5316,0.5197,0.4342,0.3513,1.5357,1.4917,1.5223,1.5007,1.4427,1.3943,1.2835,1.1317,1.0512,0.9802,0.9181,0.9328,0.9311,0.9177,0.9328,0.9299,0.9116,0.8865,0.8649,0.8584,0.8229,0.8072,0.8002,0.782,0.7734,0.7757,0.7528,0.7324,0.7227,0.7387,0.7295,0.7041,0.6906,0.6695,0.6374,0.6218,0.6172,0.623,0.6287,0.6423,0.6544,0.6956,0.724,0.7409,0.7721,0.7895,0.8002,0.8589,0.9082,0.926,0.9892,1.0343,1.0665,1.0713,1.0767,1.0985,1.0997,1.0978,1.0902,1.0908,1.0659,1.0137,0.9604,0.9286,0.9261,0.9092,0.9074,0.9258,0.9107,0.8993,0.8884,0.8884,0.8775,0.8546,0.8475,0.8336,0.7957,0.7842,0.7649,0.7339,0.7382,0.7367,0.7181,0.7277,0.7344,0.7221,0.7333,0.7304,0.7345,0.7139,0.6986,0.6947,0.6824,0.6729,0.6684,0.6703,0.6652,0.6656,0.6557,0.6504,0.6497,0.6501,0.6501,0.6595,0.635,0.6242,0.6207,0.6018,0.5839,0.5662,0.5498,0.5349,0.5258,0.4836,0.4428,1.6066,1.5715,1.5547,1.5182,1.4618,1.396,1.2686,1.1037,1.0588,0.9967,0.9273,0.9269,0.9173,0.9108,0.9181,0.9068,0.8853,0.9178,0.9209,0.9004,0.9121,0.9197,0.9174,0.8855,0.8533,0.8117,0.7889,0.7555,0.7143,0.7159,0.7151,0.7032,0.7145,0.7075,0.6835,0.7017,0.7151,0.7201,0.6635,0.6518,0.6844,0.7223,0.7593,0.7969,0.8277,0.8553,0.8805,0.9207,0.9501,0.9721,1.0096,1.0412,1.0659,1.0586,1.0593,1.0833,1.0767,1.0653,1.0683,1.0653,1.0545,1.0252,0.9999,0.9849,0.9849,0.9495,0.9561,1.0164,0.9906,0.9722,0.9943,0.9873,0.9647,0.9203,0.9198,0.8899,0.8255,0.8102,0.7949,0.7599,0.7676,0.7795,0.768,0.7944,0.8074,0.8,0.8002,0.8049,0.8049,0.7886,0.7596,0.7275,0.7075,0.6951,0.682,0.678,0.667,0.6521,0.6482,0.6482,0.6482,0.6451,0.6384,0.6371,0.6185,0.6063,0.6031,0.5934,0.578,0.5728,0.5487,0.5353,0.5314,0.5053,0.4647,1.6774,1.6265,1.584,1.5303,1.4625,1.3894,1.27,1.1327,1.1058,1.0417,0.9554,0.9185,0.9015,0.8982,0.9019,0.8931,0.8859,0.938,0.9584,0.9428,0.9812,0.9998,0.9968,0.9681,0.9183,0.8562,0.8351,0.7929,0.7336,0.7212,0.7141,0.7161,0.7504,0.7592,0.7372,0.7841,0.807,0.7947,0.7125,0.6933,0.7438,0.7758,0.8139,0.8607,0.8936,0.9192,0.9511,0.9645,0.9835,1.0128,1.0231,1.0388,1.0575,1.0406,1.0388,1.0586,1.0412,1.0333,1.0333,1.0333,1.0333,1.0333,1.0333,1.0298,1.0258,0.9824,0.9892,1.0673,1.0324,1.0151,1.0435,1.0441,1.0168,0.9691,0.9612,0.9282,0.8515,0.8339,0.821,0.7889,0.8059,0.8255,0.8289,0.8518,0.8637,0.8641,0.8703,0.8689,0.8614,0.8486,0.8129,0.7699,0.7479,0.7369,0.7069,0.7096,0.6992,0.6647,0.6714,0.6728,0.6628,0.6426,0.6277,0.6234,0.605,0.5966,0.5892,0.5892,0.5849,0.5743,0.5547,0.537,0.5291,0.4993,0.4619,1.7454,1.6401,1.624,1.5611,1.4658,1.4084,1.3304,1.251,1.2108,1.1177,0.9904,0.9125,0.8808,0.8694,0.8779,0.8964,0.9083,0.9035,0.9263,0.9557,0.945,0.9392,0.9476,0.9395,0.9178,0.8876,0.8817,0.8507,0.8015,0.7727,0.7596,0.7537,0.8044,0.8171,0.8,0.8256,0.8256,0.7992,0.7892,0.8043,0.8448,0.8976,0.9365,0.9665,0.9983,1.0189,1.0184,1.0236,1.0224,1.0293,1.0263,1.0298,1.0322,1.0298,1.0298,1.0328,1.0298,1.0333,1.0321,1.0333,1.0309,1.0333,1.0268,1.0303,1.0303,1.0218,1.0224,1.037,1.03,1.0231,1.009,1.0079,1.0002,0.9736,0.9719,0.9504,0.9124,0.9092,0.8983,0.8609,0.8604,0.8661,0.868,0.8751,0.877,0.8889,0.8932,0.8864,0.8751,0.868,0.8534,0.813,0.8016,0.7913,0.7687,0.7828,0.77,0.7539,0.7733,0.7557,0.7175,0.7005,0.6948,0.6479,0.6296,0.625,0.6165,0.6054,0.5987,0.5838,0.5668,0.543,0.5094,0.4887,0.4746,1.7609,1.6803,1.6119,1.5185,1.4257,1.3837,1.3397,1.2903,1.2147,1.1516,1.0942,1.0196,0.9416,0.866,0.908,0.9204,0.9091,0.9902,1.0263,1.0243,1.0479,1.0588,1.056,1.0267,0.9827,0.931,0.9141,0.873,0.8146,0.7947,0.7836,0.7878,0.8513,0.8807,0.8771,0.9248,0.9389,0.9124,0.9107,0.9214,0.9315,0.9303,0.9456,0.9835,1.0158,1.0333,1.028,1.0148,1.0063,1.0051,0.9886,0.9874,1.0057,0.9919,0.9907,1.0033,0.9919,0.9835,0.9835,0.9835,0.9835,0.9835,0.9934,1.0,1.0,1.0,0.9994,1.0031,1.0174,1.0257,1.0182,1.0188,1.009,0.9916,0.9875,0.967,0.9193,0.9173,0.9047,0.8847,0.904,0.9194,0.9194,0.9268,0.9473,0.9675,0.9755,0.9697,0.9708,0.9779,0.9633,0.9393,0.9342,0.8827,0.8054,0.7766,0.7814,0.7681,0.7658,0.7554,0.7528,0.7254,0.7078,0.6852,0.6788,0.6716,0.6607,0.6547,0.6473,0.6201,0.5754,0.5481,0.5068,0.4838,0.4625,1.7722,1.6907,1.5784,1.4804,1.4084,1.3652,1.3405,1.3149,1.2337,1.1892,1.1671,1.1106,1.0212,0.9226,0.9563,0.9616,0.9615,1.0577,1.0969,1.0777,1.1177,1.1375,1.1327,1.0912,1.0367,0.9834,0.9525,0.8981,0.8311,0.8451,0.8472,0.8481,0.9175,0.9565,0.9565,1.0129,1.0238,0.9898,0.9874,0.9871,0.9745,0.9462,0.9464,0.9874,1.0015,1.0081,1.0075,0.9901,0.9799,0.9787,0.9612,0.96,0.9769,0.958,0.9568,0.9757,0.9618,0.9478,0.9478,0.9478,0.9516,0.9574,0.974,0.9804,0.9836,0.9862,0.9862,0.9873,1.0091,1.0193,1.0183,1.0149,1.0115,1.0008,0.9974,0.9753,0.9438,0.938,0.937,0.9303,0.9536,0.9686,0.9722,0.9829,0.9993,1.0239,1.0458,1.0498,1.0509,1.0461,1.0413,1.0101,1.0002,0.9553,0.8529,0.8506,0.8285,0.8207,0.8317,0.8389,0.8093,0.788,0.7658,0.775,0.7494,0.7265,0.7164,0.7119,0.6969,0.6619,0.6172,0.5722,0.5475,0.5129,0.4959,1.796,1.6607,1.53,1.4736,1.4578,1.3829,1.3501,1.3405,1.2841,1.2272,1.18,1.1677,1.1081,1.0194,1.0263,1.0403,1.0697,1.0632,1.0794,1.1016,1.1098,1.1129,1.1111,1.0846,1.0539,1.0187,0.989,0.9427,0.8836,0.9427,0.9583,0.9203,1.0084,1.0467,1.0276,1.0497,1.0412,0.9991,0.9937,0.9799,0.9576,0.9508,0.9601,0.9847,0.9684,0.9556,0.9576,0.9552,0.9508,0.9508,0.9528,0.9496,0.9502,0.9528,0.9528,0.954,0.9528,0.951,0.9516,0.9516,0.958,0.974,0.9798,0.9862,0.9983,0.9989,0.9983,0.9989,1.0046,0.9981,0.9923,0.9902,0.9936,0.9988,0.9898,0.988,1.0016,0.9946,1.0067,1.0065,1.0095,1.0113,1.0142,1.0165,1.0183,1.0301,1.0521,1.0574,1.0268,1.0252,1.0177,0.9843,0.9697,0.9612,0.9714,0.9467,0.9626,0.9516,0.9241,0.9678,0.9496,0.9248,0.8904,0.863,0.8447,0.8161,0.7837,0.7561,0.7342,0.701,0.6536,0.6156,0.588,0.593,0.575,1.7468,1.6307,1.5484,1.4968,1.4578,1.3802,1.3501,1.3446,1.2954,1.2577,1.2363,1.2314,1.2232,1.2025,1.1496,1.1031,1.0689,1.0986,1.1147,1.1074,1.0942,1.0858,1.0816,1.0394,1.0142,1.0021,0.9754,0.9598,0.9538,0.9798,0.993,0.9978,1.0432,1.0629,1.0605,1.0797,1.0677,1.0214,1.0154,0.9955,0.952,0.9478,0.9564,0.9642,0.9532,0.9478,0.9478,0.9478,0.9478,0.9478,0.9478,0.9478,0.951,0.9606,0.9702,0.9708,0.9766,0.9798,0.9708,0.9708,0.974,0.9798,0.9862,0.9989,1.0149,1.0206,1.0206,1.018,1.0174,1.018,1.0117,0.9989,0.9958,0.9983,0.9989,0.9957,1.0039,1.0044,1.0105,1.0269,1.031,1.0331,1.0355,1.0238,1.0242,1.0538,1.0684,1.0698,1.0661,1.0696,1.0579,1.0322,1.0199,1.0232,1.029,0.9919,0.9694,0.9658,0.9613,0.9592,0.9486,0.953,0.9245,0.9245,0.9166,0.9064,0.8699,0.8298,0.8005,0.7721,0.722,0.664,0.6316,0.6299,0.6091,1.7008,1.6211,1.5724,1.5188,1.4551,1.3987,1.3664,1.3567,1.3126,1.2875,1.2833,1.2833,1.2899,1.2868,1.2324,1.1715,1.1118,1.1301,1.1248,1.1105,1.0924,1.0852,1.0731,1.028,1.0027,0.9973,0.9672,0.9654,0.9895,0.9991,1.0166,1.0424,1.0719,1.0809,1.0876,1.1027,1.0815,1.0394,1.0333,1.0039,0.9588,0.9478,0.9478,0.9478,0.9478,0.9478,0.9478,0.9478,0.9478,0.9478,0.9478,0.951,0.9612,0.9708,0.9804,0.9862,0.9951,0.9958,0.9894,0.9836,0.9836,0.9964,0.9989,1.011,1.0371,1.0403,1.0403,1.0403,1.0403,1.0403,1.0403,1.0269,1.0174,1.018,1.0142,1.0142,1.0174,1.0219,1.0296,1.0412,1.0457,1.0488,1.0509,1.0362,1.0435,1.0728,1.0805,1.0894,1.0863,1.0935,1.0889,1.066,1.0561,1.0523,1.0538,1.0232,1.0084,1.0053,0.9976,0.983,0.9773,0.9773,0.9773,0.9805,0.9805,0.9748,0.9512,0.9096,0.8752,0.8468,0.786,0.7191,0.6901,0.6611,0.6497,1.6683,1.6217,1.592,1.535,1.4614,1.4281,1.4015,1.376,1.3506,1.3241,1.3144,1.3107,1.2985,1.2765,1.2457,1.2247,1.2116,1.1588,1.1214,1.1154,1.1105,1.1069,1.1009,1.0454,1.0184,1.0154,0.9712,0.9666,0.9943,1.0154,1.0394,1.0725,1.0954,1.1094,1.1093,1.1118,1.0858,1.0436,1.0322,1.0045,0.9556,0.9522,0.9478,0.9478,0.9516,0.9516,0.951,0.951,0.9478,0.9478,0.9478,0.958,0.974,0.9804,0.9862,0.9983,1.0021,1.0021,0.9989,0.9894,0.9989,1.0149,1.0117,1.018,1.0498,1.0561,1.0561,1.0561,1.0561,1.0586,1.0555,1.0555,1.0561,1.0555,1.0396,1.0371,1.0498,1.0561,1.0593,1.0588,1.0569,1.06,1.0575,1.0551,1.0591,1.0637,1.0777,1.0883,1.0734,1.0834,1.0815,1.068,1.0586,1.0586,1.0586,1.0593,1.0561,1.053,1.0473,1.0358,1.0295,1.0295,1.0263,1.0263,1.0263,1.0199,0.9983,0.9561,0.9122,0.877,0.8197,0.7824,0.7526,0.7274,0.7187,1.6836,1.6209,1.6115,1.5457,1.4538,1.4308,1.4002,1.3752,1.3508,1.3457,1.3491,1.3267,1.3355,1.3464,1.2796,1.2476,1.2783,1.2221,1.1737,1.1395,1.1208,1.1027,1.0791,1.028,0.9931,0.9769,0.9606,0.9712,1.0112,1.0256,1.0579,1.1077,1.1249,1.1298,1.1298,1.1285,1.1071,1.0622,1.0382,1.0118,0.9793,0.9606,0.9484,0.951,0.9612,0.9702,0.9708,0.958,0.951,0.951,0.9478,0.9574,0.9772,0.9894,1.0021,1.0174,1.0333,1.0333,1.0206,1.0174,1.0174,1.0269,1.0244,1.0333,1.0561,1.0624,1.0624,1.0593,1.0586,1.0586,1.0586,1.0586,1.0586,1.0586,1.0555,1.053,1.0561,1.0586,1.0586,1.0586,1.0586,1.0586,1.0586,1.0586,1.0586,1.0586,1.0687,1.068,1.0646,1.0673,1.0707,1.06,1.0586,1.0618,1.0681,1.0713,1.0719,1.0719,1.0681,1.0586,1.0586,1.0586,1.0586,1.0586,1.0586,1.0503,1.0317,0.9996,0.9535,0.9224,0.8814,0.8492,0.8191,0.7963,0.775,1.681,1.6285,1.6111,1.5486,1.465,1.4407,1.4124,1.3861,1.3701,1.3707,1.3675,1.3474,1.3667,1.3968,1.3188,1.304,1.3416,1.295,1.2432,1.192,1.1548,1.1253,1.0936,1.0398,1.0013,0.9776,0.9655,0.9798,1.0136,1.0366,1.0721,1.1156,1.1428,1.1484,1.1409,1.1397,1.1163,1.0731,1.0527,1.0268,0.9949,0.9745,0.9645,0.963,0.9734,0.9804,0.983,0.974,0.9638,0.9612,0.9548,0.9612,0.9804,0.9926,1.0085,1.0301,1.046,1.053,1.0403,1.0339,1.0333,1.0396,1.0364,1.046,1.0681,1.0782,1.0782,1.0782,1.0782,1.0719,1.0624,1.0586,1.0586,1.0586,1.0586,1.0586,1.0586,1.0586,1.0586,1.0586,1.0586,1.0586,1.0586,1.0586,1.0586,1.0586,1.0586,1.0586,1.0586,1.0593,1.0618,1.0618,1.0586,1.0649,1.0776,1.0839,1.0877,1.0846,1.0807,1.0681,1.0586,1.0586,1.0586,1.0586,1.0586,1.0586,1.0407,1.0188,0.985,0.9609,0.9326,0.8849,0.8443,0.8248,0.8043,1.6699,1.6414,1.5925,1.5371,1.4813,1.4566,1.4332,1.4115,1.4088,1.3939,1.3796,1.3672,1.3883,1.4065,1.3571,1.3547,1.4008,1.3595,1.308,1.2639,1.2205,1.1843,1.1339,1.0842,1.0474,1.017,0.9953,0.9911,1.0117,1.0442,1.0759,1.1159,1.1537,1.1632,1.1521,1.1446,1.1255,1.0918,1.0761,1.0459,1.0049,0.9934,0.9892,0.9822,0.9849,0.9926,1.0015,0.9989,0.9919,0.9804,0.9638,0.9638,0.983,0.9926,1.0085,1.0333,1.0498,1.0555,1.0561,1.0434,1.0434,1.0618,1.0523,1.0555,1.1028,1.1129,1.1122,1.1122,1.1122,1.1035,1.0782,1.0681,1.0649,1.0586,1.0586,1.0593,1.0624,1.0624,1.0624,1.0649,1.0618,1.0586,1.0586,1.0586,1.0586,1.0586,1.0586,1.0624,1.0713,1.0744,1.0681,1.0744,1.087,1.0965,1.1153,1.1122,1.1192,1.1153,1.109,1.0933,1.0713,1.0649,1.0681,1.0681,1.0681,1.0649,1.0665,1.0568,1.0287,0.9995,0.958,0.9063,0.8783,0.8658,0.8559,1.649,1.5834,1.5734,1.5269,1.4597,1.4502,1.4355,1.4102,1.4088,1.4153,1.4187,1.3864,1.402,1.4397,1.3745,1.3589,1.381,1.3735,1.348,1.3204,1.3018,1.2292,1.1508,1.1205,1.0887,1.0528,1.0446,1.0405,1.0623,1.0795,1.116,1.1732,1.1842,1.1911,1.1855,1.1837,1.1712,1.1432,1.1057,1.0892,1.0695,1.0325,1.0116,1.0102,1.0168,1.0193,1.0212,1.0212,1.011,0.9958,0.9804,0.9862,1.0079,1.0047,1.0142,1.0428,1.0555,1.0593,1.0593,1.0561,1.0656,1.0902,1.0902,1.1059,1.1442,1.1466,1.1466,1.1466,1.1466,1.1442,1.1317,1.109,1.087,1.0618,1.0649,1.0751,1.0877,1.0751,1.0688,1.087,1.0751,1.0649,1.0649,1.0649,1.0649,1.0649,1.0713,1.0814,1.1052,1.1178,1.1264,1.1404,1.1498,1.1529,1.1529,1.1498,1.1466,1.1498,1.1435,1.1341,1.1059,1.0807,1.0846,1.0909,1.0965,1.0965,1.1185,1.1279,1.0882,1.0392,1.0215,0.9883,0.9506,0.9291,0.9264,1.6396,1.5908,1.5575,1.5112,1.4523,1.4469,1.4321,1.4108,1.4095,1.4249,1.4392,1.4177,1.4298,1.4653,1.4128,1.3961,1.4065,1.3953,1.372,1.3461,1.3276,1.2752,1.2118,1.188,1.1629,1.1375,1.1213,1.123,1.1313,1.1452,1.1812,1.2159,1.2429,1.2391,1.2218,1.2198,1.2052,1.1706,1.1425,1.1239,1.1089,1.0925,1.0683,1.0617,1.0653,1.0669,1.0524,1.0466,1.0339,1.0142,0.9983,0.9951,1.0142,1.0142,1.0238,1.0466,1.0555,1.0649,1.0782,1.0814,1.0972,1.1223,1.131,1.1498,1.1716,1.1809,1.1809,1.1809,1.1817,1.1747,1.1599,1.1404,1.1216,1.109,1.1028,1.1035,1.1129,1.1066,1.1122,1.1185,1.1028,1.087,1.0965,1.0996,1.1052,1.1202,1.1452,1.1577,1.1725,1.1818,1.188,1.1957,1.1988,1.1988,1.205,1.205,1.2228,1.2228,1.2104,1.195,1.1553,1.1209,1.1216,1.1279,1.131,1.1404,1.1615,1.1671,1.1266,1.0929,1.0865,1.0608,1.0157,0.9931,0.9882,1.6389,1.6272,1.5418,1.4957,1.4699,1.453,1.4381,1.4191,1.4222,1.4335,1.4526,1.4516,1.4677,1.4945,1.4562,1.4492,1.4486,1.4273,1.4094,1.3912,1.373,1.3499,1.3438,1.2731,1.247,1.2364,1.2252,1.2079,1.2011,1.2301,1.2496,1.2627,1.2968,1.2889,1.2581,1.2503,1.2252,1.1943,1.1792,1.1676,1.1588,1.154,1.1431,1.1202,1.1167,1.1067,1.0882,1.0776,1.0649,1.046,1.0168,1.0079,1.011,1.0276,1.0428,1.0523,1.0744,1.0965,1.1122,1.1185,1.1279,1.156,1.1654,1.1778,1.2058,1.2151,1.2151,1.2158,1.2158,1.2003,1.1747,1.1661,1.1591,1.1529,1.156,1.1498,1.1341,1.1435,1.1622,1.1685,1.1404,1.1404,1.1553,1.1677,1.1701,1.1787,1.1996,1.212,1.2305,1.2489,1.2466,1.2382,1.2421,1.2421,1.2513,1.2605,1.2873,1.3047,1.2895,1.2712,1.222,1.1919,1.1802,1.1778,1.1888,1.1981,1.2042,1.1928,1.1692,1.1586,1.1616,1.109,1.0576,1.0554,1.0501,1.6235,1.5936,1.5339,1.4957,1.4741,1.475,1.4638,1.4436,1.4707,1.4818,1.4824,1.484,1.4838,1.4759,1.4724,1.467,1.4655,1.4608,1.4685,1.5024,1.4959,1.5148,1.4935,1.3879,1.3013,1.2916,1.275,1.2672,1.2712,1.2889,1.2886,1.3126,1.3246,1.306,1.2819,1.2786,1.265,1.2432,1.2268,1.2241,1.2244,1.2134,1.2065,1.195,1.1659,1.1342,1.1161,1.1247,1.1334,1.1153,1.0713,1.0428,1.0555,1.0744,1.0926,1.1083,1.1334,1.156,1.1615,1.1591,1.163,1.1965,1.2027,1.2151,1.2436,1.2467,1.2467,1.2498,1.2498,1.2313,1.2058,1.2003,1.1903,1.1809,1.1903,1.1996,1.1903,1.1716,1.1872,1.2081,1.2019,1.195,1.2243,1.2305,1.2366,1.242,1.2543,1.2634,1.2887,1.3139,1.3078,1.2995,1.3056,1.3125,1.3094,1.3216,1.3428,1.3631,1.3571,1.348,1.3017,1.2712,1.2597,1.2536,1.2558,1.2589,1.2597,1.2757,1.2668,1.2517,1.2292,1.1836,1.1462,1.1311,1.0927,1.6191,1.5841,1.5436,1.5082,1.4936,1.4937,1.4955,1.487,1.4984,1.5191,1.5265,1.5258,1.5165,1.4922,1.4951,1.4859,1.4797,1.4943,1.5144,1.5387,1.5587,1.5835,1.5944,1.5175,1.4467,1.4349,1.4363,1.4349,1.4309,1.4104,1.4165,1.4156,1.4001,1.374,1.3324,1.3249,1.3061,1.2755,1.2636,1.2636,1.2705,1.2717,1.2764,1.2704,1.226,1.1869,1.1968,1.1783,1.1793,1.1685,1.1365,1.1146,1.124,1.1397,1.1514,1.1639,1.1771,1.1988,1.2058,1.2081,1.2182,1.249,1.2521,1.259,1.2683,1.2683,1.266,1.2629,1.259,1.2529,1.2367,1.2336,1.2243,1.2336,1.2398,1.2582,1.2666,1.2451,1.2336,1.2636,1.2566,1.2681,1.2826,1.2948,1.31,1.323,1.3519,1.364,1.37,1.389,1.3761,1.3731,1.3791,1.3821,1.3761,1.3821,1.395,1.407,1.407,1.404,1.386,1.3601,1.3411,1.329,1.3117,1.3139,1.3169,1.3373,1.3425,1.3164,1.2873,1.2584,1.224,1.1885,1.1383,1.6322,1.5977,1.5698,1.5462,1.5301,1.5332,1.5383,1.5396,1.5322,1.549,1.5641,1.5727,1.5597,1.5419,1.5469,1.5248,1.5216,1.5443,1.5767,1.5974,1.6229,1.6468,1.6486,1.639,1.6277,1.6378,1.5942,1.5909,1.5793,1.5718,1.5308,1.535,1.4998,1.4581,1.4183,1.3881,1.3652,1.3267,1.3118,1.3039,1.3076,1.3186,1.3415,1.3309,1.3077,1.263,1.2631,1.2461,1.2282,1.2151,1.2205,1.2236,1.2197,1.2135,1.2112,1.2112,1.2236,1.2428,1.2582,1.2605,1.2666,1.2981,1.2981,1.292,1.2858,1.2836,1.2813,1.2744,1.2683,1.2683,1.2652,1.2652,1.2767,1.292,1.3011,1.3186,1.3359,1.3246,1.3194,1.3164,1.3216,1.3299,1.3511,1.3662,1.3851,1.404,1.4327,1.4515,1.4515,1.4455,1.4258,1.4169,1.4169,1.4198,1.4139,1.413,1.4288,1.4348,1.4407,1.4417,1.4417,1.4198,1.3911,1.3731,1.364,1.364,1.364,1.3731,1.3722,1.3631,1.3485,1.3223,1.284,1.2433,1.191,1.685,1.6463,1.641,1.6294,1.6121,1.6197,1.6218,1.6176,1.6029,1.5775,1.5662,1.5979,1.6074,1.6004,1.6329,1.6358,1.6237,1.636,1.6599,1.6853,1.7098,1.7221,1.7416,1.7416,1.7546,1.7375,1.6796,1.6304,1.6221,1.6015,1.6057,1.5884,1.556,1.5242,1.5078,1.47,1.4311,1.4081,1.3844,1.3645,1.3609,1.3715,1.3772,1.3713,1.3595,1.3328,1.2917,1.3074,1.3191,1.293,1.3094,1.3169,1.3086,1.282,1.2674,1.2705,1.2858,1.3019,1.308,1.2989,1.295,1.2981,1.3042,1.3011,1.2981,1.295,1.2958,1.2928,1.2889,1.292,1.292,1.292,1.3042,1.3186,1.3307,1.3368,1.3541,1.367,1.3769,1.3769,1.383,1.386,1.401,1.413,1.4219,1.4279,1.4437,1.4565,1.4604,1.4575,1.4506,1.4446,1.4455,1.4455,1.4426,1.4417,1.4506,1.4506,1.4536,1.4565,1.4545,1.4485,1.4327,1.4189,1.4109,1.4109,1.4109,1.4139,1.4219,1.424,1.4064,1.3888,1.3618,1.3273,1.2667,1.7204,1.6966,1.6966,1.7025,1.7097,1.6906,1.6914,1.7058,1.6751,1.6514,1.6483,1.6603,1.6603,1.6521,1.6574,1.6689,1.6779,1.6984,1.7188,1.74,1.7595,1.7757,1.8,1.7991,1.7991,1.7829,1.7375,1.7041,1.7041,1.6886,1.6763,1.6681,1.6312,1.6019,1.5854,1.5566,1.5219,1.5048,1.4723,1.4485,1.4321,1.4279,1.4,1.3935,1.3859,1.3656,1.3536,1.3339,1.3462,1.3341,1.342,1.348,1.342,1.3329,1.3164,1.3194,1.3316,1.3407,1.3407,1.3316,1.3277,1.3277,1.3246,1.3224,1.3172,1.3141,1.3119,1.305,1.3011,1.3042,1.3155,1.3155,1.3346,1.358,1.367,1.3761,1.395,1.4139,1.4198,1.4228,1.4228,1.4258,1.4327,1.4446,1.4506,1.4556,1.4606,1.4645,1.4714,1.4714,1.4693,1.4723,1.4693,1.4693,1.4693,1.4684,1.4684,1.4684,1.4684,1.4714,1.4743,1.4743,1.4743,1.4675,1.4625,1.4595,1.4497,1.4478,1.4666,1.4882,1.4795,1.4662,1.4468,1.4091,1.3488,1.7595,1.75,1.7458,1.7675,1.7877,1.7422,1.7427,1.7676,1.7241,1.7005,1.7099,1.7177,1.7076,1.6917,1.6935,1.6976,1.6984,1.7392,1.7514,1.7595,1.7838,1.8,1.7991,1.7991,1.7991,1.7991,1.791,1.7991,1.7789,1.7587,1.7514,1.7343,1.7017,1.6782,1.6605,1.6381,1.6219,1.5978,1.564,1.5423,1.5065,1.4619,1.42,1.418,1.393,1.3965,1.3865,1.381,1.3617,1.3523,1.348,1.348,1.348,1.348,1.348,1.348,1.348,1.348,1.348,1.348,1.345,1.342,1.348,1.3428,1.3376,1.3316,1.3263,1.3133,1.3133,1.3216,1.3368,1.342,1.364,1.3929,1.4049,1.4139,1.4327,1.4476,1.4458,1.4526,1.4565,1.4595,1.4595,1.4595,1.4645,1.4734,1.4784,1.4823,1.4862,1.4891,1.4921,1.495,1.495,1.495,1.4921,1.4921,1.4891,1.4891,1.4891,1.4891,1.495,1.5,1.5029,1.5079,1.5108,1.5049,1.4951,1.4883,1.5069,1.5274,1.5439,1.5409,1.5155,1.4861,1.4389,1.8256,1.8188,1.7945,1.8058,1.8319,1.7866,1.7725,1.7834,1.7427,1.6994,1.6924,1.7188,1.7376,1.74,1.7676,1.7797,1.7878,1.7878,1.7959,1.7959,1.804,1.808,1.8031,1.7991,1.808,1.8121,1.8072,1.7991,1.8031,1.7959,1.7878,1.7789,1.7546,1.7391,1.7485,1.7068,1.6735,1.6676,1.6363,1.5852,1.5295,1.4945,1.4638,1.4468,1.4499,1.4458,1.4022,1.3974,1.3939,1.3558,1.3511,1.3511,1.348,1.348,1.348,1.348,1.348,1.348,1.348,1.348,1.348,1.348,1.348,1.348,1.3459,1.3459,1.3459,1.345,1.345,1.3541,1.3731,1.3761,1.395,1.4139,1.4327,1.4387,1.4506,1.4684,1.4704,1.4734,1.4734,1.4734,1.4725,1.4725,1.4754,1.4872,1.497,1.5,1.5029,1.5088,1.5088,1.5117,1.5117,1.5117,1.5205,1.5176,1.5205,1.5147,1.5205,1.5205,1.5323,1.543,1.5391,1.542,1.5507,1.5594,1.5526,1.5526,1.5555,1.57,1.5912,1.5902,1.5815,1.5489,1.5192,1.8702,1.8622,1.8634,1.8718,1.8818,1.8343,1.8173,1.8179,1.7802,1.7522,1.7474,1.7635,1.7797,1.8,1.829,1.8379,1.8411,1.8371,1.8411,1.8371,1.8371,1.8411,1.8411,1.8411,1.8411,1.8371,1.8411,1.8451,1.8322,1.8121,1.7991,1.8,1.7829,1.7789,1.804,1.7669,1.7521,1.7384,1.703,1.6359,1.5687,1.5212,1.4902,1.4488,1.4506,1.4268,1.4087,1.4004,1.4044,1.3791,1.3791,1.3731,1.37,1.367,1.364,1.348,1.348,1.348,1.348,1.348,1.348,1.348,1.348,1.348,1.348,1.3511,1.361,1.3761,1.3761,1.3911,1.4181,1.43,1.4458,1.4586,1.4625,1.4654,1.4743,1.4793,1.4882,1.4911,1.4941,1.4961,1.499,1.499,1.499,1.5029,1.5147,1.5167,1.5225,1.5274,1.5274,1.5274,1.5274,1.5245,1.5362,1.5449,1.5623,1.5652,1.5855,1.5865,1.5836,1.5855,1.5884,1.5884,1.597,1.6028,1.6085,1.6028,1.596,1.6171,1.641,1.64,1.6397,1.6231,1.5844,1.907,1.8939,1.8977,1.9024,1.9059,1.8532,1.8364,1.8385,1.8079,1.7969,1.81,1.8161,1.8282,1.8442,1.862,1.8669,1.8709,1.8709,1.8709,1.8709,1.8709,1.8669,1.866,1.866,1.866,1.8709,1.862,1.866,1.8571,1.8402,1.8241,1.8161,1.821,1.821,1.817,1.8158,1.8106,1.7899,1.7478,1.6762,1.6007,1.5464,1.5062,1.4698,1.435,1.4109,1.4079,1.4088,1.4088,1.398,1.398,1.392,1.3851,1.3821,1.3799,1.367,1.364,1.3601,1.3571,1.3541,1.3511,1.348,1.348,1.348,1.3502,1.3541,1.37,1.3941,1.4091,1.433,1.4567,1.4656,1.4745,1.4852,1.495,1.5009,1.5009,1.5039,1.5029,1.5068,1.5147,1.5284,1.5284,1.5284,1.5264,1.5264,1.5293,1.5371,1.5449,1.5526,1.5613,1.5652,1.5681,1.5671,1.5729,1.5855,1.5989,1.6161,1.6332,1.6371,1.6285,1.6371,1.6485,1.6485,1.6495,1.6581,1.6684,1.6513,1.6381,1.6637,1.6874,1.6987,1.6991,1.6825,1.6421,1.9322,1.8967,1.8602,1.8667,1.8872,1.8263,1.8036,1.8166,1.8068,1.8172,1.8371,1.8531,1.862,1.87,1.8732,1.878,1.874,1.8709,1.874,1.874,1.8709,1.882,1.882,1.886,1.882,1.8812,1.8829,1.8789,1.8696,1.8642,1.8612,1.866,1.8554,1.8603,1.8527,1.8417,1.8281,1.8034,1.7652,1.7085,1.6341,1.573,1.5236,1.4921,1.4641,1.4387,1.4297,1.4267,1.4207,1.407,1.4079,1.407,1.4031,1.4031,1.4001,1.3971,1.3881,1.3851,1.3821,1.3662,1.3532,1.3511,1.3511,1.3571,1.3601,1.3821,1.395,1.4091,1.4359,1.4567,1.4686,1.4745,1.4922,1.499,1.5117,1.5117,1.5147,1.5186,1.5186,1.5215,1.5323,1.5488,1.5623,1.5652,1.5633,1.5633,1.5604,1.5681,1.5826,1.5941,1.6056,1.6142,1.6142,1.6171,1.6228,1.6343,1.6475,1.6673,1.6842,1.674,1.657,1.674,1.7078,1.705,1.706,1.7172,1.7239,1.7117,1.706,1.7183,1.7278,1.725,1.725,1.7103,1.6634,1.9626,1.932,1.9073,1.8883,1.8751,1.8553,1.8411,1.8411,1.8411,1.8491,1.8571,1.8812,1.8882,1.8922,1.9033,1.9073,1.9073,1.9073,1.9033,1.9121,1.9161,1.925,1.9289,1.932,1.9429,1.9325,1.9187,1.9236,1.9432,1.8868,1.8777,1.8782,1.8752,1.8527,1.8434,1.8376,1.8231,1.8022,1.7735,1.7342,1.6674,1.5981,1.5519,1.5396,1.472,1.4522,1.4426,1.4426,1.4357,1.4327,1.4327,1.4318,1.43,1.43,1.43,1.43,1.424,1.421,1.4142,1.3962,1.3821,1.3782,1.3821,1.3821,1.3812,1.3941,1.4249,1.4488,1.4686,1.4863,1.5089,1.5157,1.5186,1.5216,1.5245,1.5284,1.5313,1.541,1.5439,1.5498,1.5594,1.5729,1.5902,1.6028,1.6028,1.5999,1.597,1.5999,1.6142,1.6285,1.641,1.6467,1.6495,1.6485,1.6513,1.674,1.6983,1.7179,1.7357,1.7301,1.7217,1.7468,1.7717,1.7673,1.759,1.7645,1.7673,1.7673,1.7601,1.7445,1.7362,1.7278,1.7306,1.7334,1.6939,1.9833,1.9676,1.9548,1.9231,1.8891,1.8732,1.8709,1.8709,1.8709,1.874,1.8812,1.9002,1.9073,1.9143,1.9222,1.9253,1.9253,1.9253,1.9253,1.9341,1.9439,1.9557,1.9676,1.9726,1.97,1.9694,1.9505,1.9429,1.9334,1.8779,1.8704,1.8758,1.8749,1.8475,1.8228,1.8219,1.8161,1.8014,1.786,1.7515,1.6883,1.6138,1.5762,1.5606,1.5001,1.4662,1.4654,1.4684,1.4654,1.4654,1.4645,1.4645,1.4666,1.4656,1.4656,1.4627,1.4588,1.4558,1.4499,1.435,1.4151,1.4151,1.4151,1.4151,1.4151,1.4219,1.4586,1.4852,1.502,1.5196,1.541,1.5439,1.5497,1.5565,1.571,1.5739,1.5739,1.5797,1.5768,1.5768,1.5902,1.6056,1.6343,1.6495,1.64,1.6381,1.6353,1.6381,1.6467,1.6609,1.6733,1.6761,1.6761,1.6751,1.6751,1.7162,1.7551,1.7678,1.7854,1.8018,1.8057,1.822,1.8139,1.7947,1.792,1.8057,1.803,1.792,1.7739,1.7529,1.7473,1.7473,1.7518,1.754,1.7339,1.9902,1.9912,1.9902,1.9657,1.9271,1.8882,1.874,1.878,1.878,1.8843,1.8993,1.9192,1.9262,1.9301,1.935,1.9381,1.9381,1.9341,1.9341,1.942,1.9557,1.9597,1.9687,1.9797,1.9763,1.9421,1.9222,1.906,1.8899,1.8597,1.8598,1.8674,1.862,1.8471,1.8145,1.8493,1.8561,1.8351,1.8165,1.7696,1.7035,1.6199,1.585,1.5737,1.5153,1.4803,1.4852,1.4891,1.4891,1.4891,1.4921,1.4921,1.4941,1.4941,1.497,1.5029,1.4863,1.4765,1.4745,1.4588,1.4588,1.4508,1.4478,1.4478,1.4567,1.4725,1.4911,1.5079,1.5216,1.5352,1.5488,1.5661,1.5787,1.5912,1.6056,1.6085,1.6085,1.6085,1.6028,1.6028,1.621,1.6438,1.6761,1.6959,1.6846,1.6779,1.6722,1.6761,1.6818,1.6874,1.6998,1.7043,1.7043,1.7155,1.7256,1.7755,1.8084,1.822,1.8356,1.8464,1.8491,1.8479,1.8371,1.8193,1.8247,1.8383,1.8275,1.8139,1.8111,1.8073,1.7767,1.7711,1.7755,1.7793,1.7686,2.0303,2.0186,2.0147,2.0069,1.9912,1.9487,1.925,1.9112,1.9112,1.9152,1.9183,1.9262,1.9381,1.9469,1.9508,1.9548,1.9657,1.9508,1.9508,1.9706,1.9784,1.9951,2.0012,1.9937,1.9812,1.957,1.9271,1.9031,1.9143,1.8526,1.833,1.8397,1.847,1.8401,1.8573,1.8845,1.8901,1.8481,1.8295,1.8008,1.7424,1.6489,1.5923,1.6077,1.5305,1.495,1.5,1.5029,1.5039,1.5029,1.5029,1.5059,1.5117,1.5147,1.5293,1.5488,1.5488,1.5613,1.57,1.5671,1.5391,1.5108,1.4872,1.4902,1.4872,1.4911,1.5079,1.5245,1.5381,1.5546,1.5719,1.5816,1.5941,1.6124,1.6239,1.6228,1.6228,1.6228,1.6228,1.6324,1.6438,1.6892,1.7295,1.7434,1.734,1.7256,1.72,1.7127,1.7138,1.7138,1.7222,1.7306,1.7351,1.7518,1.7767,1.8111,1.8356,1.8491,1.864,1.8801,1.8827,1.8747,1.8721,1.8614,1.8652,1.8706,1.8706,1.8694,1.8789,1.8735,1.8425,1.8166,1.8139,1.8224,1.8236,2.0537,2.042,2.042,2.0342,2.0225,1.9794,1.9518,1.9429,1.9429,1.939,1.9429,1.946,1.9508,1.9597,1.9676,1.9754,1.9863,1.9784,1.9715,1.9912,2.002,2.0137,2.0188,2.0139,1.9924,1.9658,1.9238,1.8929,1.8724,1.8123,1.8041,1.8238,1.8427,1.8462,1.8629,1.8718,1.9033,1.8788,1.8713,1.8311,1.7692,1.6951,1.6275,1.6053,1.5592,1.5098,1.5108,1.5137,1.5137,1.5137,1.5137,1.5167,1.5264,1.543,1.5565,1.5816,1.6028,1.6114,1.621,1.6228,1.5884,1.5575,1.5469,1.5439,1.5459,1.5546,1.5604,1.5681,1.5671,1.5816,1.5989,1.6056,1.6257,1.6449,1.6591,1.6581,1.6637,1.6666,1.6666,1.6722,1.6948,1.7396,1.7739,1.7838,1.7865,1.7783,1.7711,1.7601,1.7473,1.7445,1.7473,1.7573,1.7711,1.7877,1.8084,1.8317,1.856,1.8694,1.8854,1.8987,1.8987,1.8907,1.896,1.904,1.9052,1.9078,1.9225,1.9317,1.9357,1.9305,1.9095,1.8842,1.8614,1.8682,1.8845,2.0556,2.0566,2.0566,2.043,2.0226,1.9844,1.9627,1.9578,1.9587,1.9597,1.9606,1.9794,1.9833,1.9715,1.9824,1.9942,1.9981,1.9942,1.9981,2.0029,2.0186,2.0255,2.0343,2.0343,1.9951,1.9512,1.9102,1.8682,1.8125,1.8003,1.8013,1.8188,1.8669,1.8605,1.8498,1.8769,1.9094,1.9124,1.8784,1.8408,1.7925,1.7201,1.6573,1.6162,1.5638,1.5322,1.5303,1.5332,1.5362,1.5391,1.541,1.541,1.5526,1.5729,1.5845,1.6017,1.6239,1.6381,1.6467,1.6495,1.6428,1.6267,1.6306,1.6324,1.6181,1.6066,1.6056,1.6085,1.6114,1.62,1.6314,1.6524,1.6733,1.6902,1.7082,1.711,1.7166,1.7194,1.7183,1.7323,1.7534,1.7865,1.8057,1.8193,1.8302,1.8166,1.8084,1.8002,1.7904,1.7739,1.7783,1.792,1.8057,1.822,1.8437,1.856,1.8694,1.8866,1.8907,1.9013,1.9013,1.904,1.9093,1.9172,1.9342,1.9486,1.9734,1.9837,1.985,1.9773,1.9773,1.9488,1.9265,1.941,1.9553,1.9648,1.9648,1.9686,1.9787,2.0022,2.0062,1.9838,1.9447,1.9683,1.9784,1.9824,1.9872,1.999,2.0108,2.0186,2.0255,2.0294,2.0294,2.0333,2.0342,2.0342,2.042,2.0391,2.0264,1.9785,1.9355,1.8955,1.8594,1.8154,1.8008,1.8042,1.8135,1.8648,1.8564,1.8787,1.9144,1.9238,1.917,1.8791,1.8497,1.7992,1.7197,1.6651,1.6117,1.5722,1.5459,1.5449,1.5478,1.5478,1.5449,1.5671,1.5758,1.5787,1.6028,1.6257,1.6542,1.6807,1.7015,1.7015,1.6987,1.6959,1.692,1.6959,1.6666,1.6495,1.6371,1.6371,1.6428,1.6467,1.6524,1.6609,1.679,1.6959,1.7099,1.725,1.7306,1.7334,1.739,1.7418,1.7739,1.7975,1.8209,1.8437,1.8598,1.8652,1.8545,1.8437,1.8383,1.8275,1.8111,1.8111,1.8236,1.8344,1.8506,1.8598,1.8759,1.8866,1.8972,1.9052,1.9093,1.9093,1.9146,1.9198,1.9408,1.9694,2.0016,2.0308,2.0334,2.0296,2.0548,2.0548,2.022,1.9978,2.008,2.0144,1.9277,1.9277,1.9277,1.9443,1.965,1.9838,1.9725,1.9621,1.9927,2.0059,2.0069,2.0137,2.0225,2.0264,2.0381,2.0459,2.0576,2.0489,2.0576,2.0731,2.0576,2.0654,2.0574,2.0231,1.9819,1.9377,1.8919,1.8527,1.8218,1.8178,1.8212,1.8251,1.8611,1.879,1.8954,1.9194,1.9253,1.9092,1.8813,1.8555,1.794,1.7197,1.6662,1.6115,1.5802,1.5721,1.5613,1.5652,1.5739,1.5739,1.6028,1.6056,1.6114,1.6324,1.6637,1.692,1.7127,1.7222,1.7222,1.725,1.7278,1.7306,1.7306,1.7099,1.6931,1.6807,1.6779,1.6779,1.6779,1.679,1.6902,1.7015,1.7127,1.7267,1.7295,1.7351,1.7418,1.7473,1.7711,1.8057,1.8329,1.856,1.8774,1.8934,1.8987,1.8827,1.8747,1.8721,1.8614,1.8452,1.8479,1.8587,1.8667,1.8774,1.8854,1.896,1.9052,1.9158,1.9263,1.9277,1.9251,1.9448,1.9708,1.9965,2.0195,2.0472,2.0723,2.0747,2.0761,2.0997,2.1095,2.0761,2.0498,2.0523,2.0561,1.9141,1.915,1.9219,1.9209,1.9238,1.9316,1.9531,1.9845,2.0043,2.0217,2.0246,2.0362,2.0285,2.0246,2.0343,2.0498,2.0615,2.0644,2.0768,2.1175,2.0992,2.0962,2.0801,2.0411,2.0132,1.9667,1.9167,1.8636,1.8534,1.8448,1.8448,1.8569,1.8926,1.9069,1.9056,1.9379,1.9355,1.8893,1.8887,1.8754,1.8015,1.738,1.6868,1.6277,1.6154,1.6181,1.6056,1.6114,1.6285,1.6296,1.6324,1.6353,1.6524,1.6666,1.6987,1.7127,1.7278,1.7306,1.7306,1.7306,1.7306,1.7306,1.7306,1.725,1.7127,1.7099,1.7071,1.7071,1.7043,1.7043,1.7138,1.7166,1.725,1.7278,1.7306,1.7407,1.7545,1.7711,1.8068,1.8356,1.8572,1.8774,1.8881,1.9013,1.9013,1.8987,1.896,1.8934,1.896,1.8801,1.8881,1.896,1.904,1.9107,1.9239,1.9291,1.9251,1.933,1.9512,1.9591,1.9668,1.9939,2.0321,2.0447,2.0598,2.0822,2.1019,2.1057,2.1131,2.1302,2.1326,2.1169,2.1057,2.1008,2.0885,1.8027,1.834,1.8627,1.8763,1.8838,1.915,1.9363,1.9443,1.9504,1.9738,1.9905,1.9785,1.9795,2.0011,2.0078,2.0272,2.0633,2.0844,2.0859,2.1098,2.1159,2.1273,2.1176,2.0832,2.0533,2.0099,1.952,1.8873,1.858,1.8533,1.8654,1.8911,1.9055,1.9,1.9114,1.9443,1.9354,1.8665,1.874,1.856,1.7778,1.7267,1.6776,1.642,1.6296,1.6324,1.6267,1.6285,1.6314,1.6314,1.6581,1.679,1.7043,1.7138,1.7222,1.7278,1.7306,1.7306,1.7306,1.7306,1.7306,1.7306,1.7306,1.7306,1.7306,1.7306,1.7306,1.7306,1.7306,1.7306,1.7306,1.7306,1.7334,1.7306,1.7334,1.7518,1.7711,1.808,1.846,1.8625,1.8786,1.8917,1.9023,1.9013,1.9013,1.9013,1.8987,1.904,1.9186,1.9186,1.9356,1.9408,1.9422,1.95,1.963,1.9682,1.9642,1.9734,1.9939,2.0029,2.008,2.0397,2.0709,2.0822,2.097,2.1191,2.1337,2.1375,2.1471,2.1616,2.164,2.152,2.1482,2.1458,2.1277,1.7627,1.8027,1.8217,1.8432,1.8633,1.8852,1.9175,1.9433,1.91,1.9215,1.9528,1.9426,1.9497,1.9804,1.9861,2.0247,2.0709,2.1035,2.135,2.1521,2.1473,2.1707,2.1516,2.112,2.0829,2.0409,1.9761,1.9129,1.856,1.8613,1.88,1.8794,1.8742,1.8827,1.8945,1.9233,1.9094,1.8288,1.8525,1.8144,1.7511,1.7124,1.674,1.6441,1.6524,1.6581,1.6609,1.6637,1.6751,1.6751,1.6959,1.7043,1.7222,1.725,1.7278,1.7306,1.7306,1.7306,1.7306,1.7306,1.7306,1.7306,1.7306,1.7306,1.7306,1.7306,1.7306,1.7306,1.7306,1.7306,1.7306,1.7306,1.7418,1.7473,1.7545,1.7711,1.821,1.8764,1.8848,1.8813,1.9003,1.9198,1.9218,1.9013,1.9066,1.933,1.9277,1.9434,1.9526,1.9618,1.9759,1.9901,1.9914,1.9888,1.9939,2.0016,2.0042,2.0195,2.0397,2.0573,2.0723,2.0896,2.108,2.122,2.1356,2.153,2.1626,2.1715,2.1807,2.1959,2.1959,2.1912,2.1912,2.192,2.1828,1.7568,1.7978,1.8018,1.8178,1.8511,1.8526,1.8913,1.9394,1.8901,1.8815,1.9208,1.9267,1.9481,1.9633,1.9843,2.039,2.0797,2.0984,2.1508,2.177,2.1901,2.1977,2.175,2.1286,2.0836,2.0286,1.9674,1.9014,1.8372,1.8522,1.8522,1.8307,1.8356,1.8461,1.8549,1.8551,1.8387,1.8151,1.8082,1.7795,1.7394,1.7043,1.6772,1.6772,1.6892,1.7099,1.7043,1.7071,1.7267,1.7278,1.7222,1.725,1.7278,1.7306,1.7306,1.7306,1.7306,1.7306,1.7306,1.7306,1.7306,1.7306,1.7306,1.7306,1.7334,1.7334,1.7362,1.739,1.739,1.739,1.739,1.7445,1.7573,1.7739,1.7838,1.8066,1.8717,1.9344,1.927,1.9158,1.9302,1.9522,1.9386,1.918,1.9289,1.9551,1.9759,1.9914,2.0067,2.0131,2.0258,2.0397,2.0459,2.0409,2.0372,2.0486,2.06,2.0673,2.0871,2.1118,2.1313,2.1361,2.1477,2.1675,2.1808,2.189,2.2019,2.2146,2.2231,2.231,2.224,2.2231,2.2278,2.2292,2.2404,1.7282,1.8008,1.8008,1.8057,1.8149,1.8411,1.8582,1.8761,1.8954,1.9037,1.914,1.9168,1.9236,1.9344,1.9629,2.012,2.0646,2.0898,2.098,2.1214,2.1746,2.2114,2.1999,2.126,2.0477,1.9789,1.9212,1.8786,1.83,1.8319,1.843,1.846,1.8935,1.8911,1.867,1.8651,1.8588,1.8196,1.7923,1.777,1.7448,1.7222,1.7222,1.7183,1.7211,1.7239,1.7239,1.7239,1.7278,1.7306,1.7306,1.7306,1.7306,1.7306,1.7306,1.7306,1.7306,1.7306,1.7306,1.7334,1.7334,1.7362,1.7379,1.7407,1.7434,1.7507,1.7562,1.7717,1.7728,1.7684,1.7684,1.7822,1.7947,1.8111,1.8236,1.869,1.9238,1.9617,1.9767,1.9749,1.98,1.9853,1.9723,1.9664,1.9794,2.004,2.0258,2.0438,2.0796,2.0793,2.0825,2.0949,2.1111,2.1044,2.1057,2.1189,2.1301,2.1307,2.1364,2.1612,2.1732,2.1712,2.1856,2.2204,2.2221,2.2239,2.2381,2.2719,2.2626,2.2692,2.2578,2.2537,2.2628,2.2942,2.3307]}]]